Date StartTime U_cm/s V_cm/s W_cm/s Ustd_cm/s Vstd_cm/s Wstd_cm/s Uvar_(cm/s)^2 Vvar_(cm/s)^2 Wvar_(cm/s)^2 KE_(m/s)^2 TurbulentKE_(m/s)^2 HorizWindSpeed_cm/s FrictionSpeec_cm/s DragCoef SpeedOfSound_m/s SonicTemperature_C Pressure_mb 
06/29/2014  00:00:00      -22.346       41.534        1.821       42.822       40.433       25.781     1833.736     1634.810      664.660        0.318        0.207       47.164       19.317        0.168      344.601       21.533      861.200
06/29/2014  00:01:00      -21.444       69.205      -14.439       53.440       98.393       32.636     2855.788     9681.151     1065.135        0.953        0.680       72.451       45.224        0.390      344.589       21.514      861.212
06/29/2014  00:02:00      -82.433       78.319       -5.427       46.489       55.384       31.751     2161.192     3067.415     1008.147        0.960        0.312      113.706       32.386        0.081      344.505       21.370      861.230
06/29/2014  00:03:00     -197.587      109.905      -29.471       56.337       55.679       38.033     3173.814     3100.123     1446.515        2.985        0.386      226.097       28.895        0.016      344.521       21.395      861.233
06/29/2014  00:04:00     -151.564      138.043      -26.478       98.238      114.318       45.106     9650.666    13068.668     2034.544        3.374        1.238      205.006       55.511        0.073      344.460       21.292      861.238
06/29/2014  00:05:00     -117.967      172.565      -36.501       50.420       57.530       35.900     2542.187     3309.712     1288.808        2.608        0.357      209.033       27.718        0.018      344.415       21.214      861.262
06/29/2014  00:06:00      -92.062      168.516      -13.260       53.879       88.169       43.608     2902.956     7773.692     1901.686        2.481        0.629      192.024       37.638        0.038      344.371       21.141      861.258
06/29/2014  00:07:00      -85.423      140.990      -15.606       53.139       55.418       30.147     2823.738     3071.202      908.814        1.711        0.340      164.849       28.006        0.029      344.324       21.060      861.252
06/29/2014  00:08:00      -78.532       94.042      -10.320       63.147       52.579       31.695     3987.550     2764.507     1004.559        1.144        0.388      122.520       40.624        0.110      344.278       20.981      861.255
06/29/2014  00:09:00      -86.387      126.965      -21.575       43.091       56.689       35.473     1856.818     3213.654     1258.327        1.519        0.316      153.567       32.879        0.046      344.318       21.051      861.243
06/29/2014  00:10:00     -135.246       61.266      -20.980       64.419       62.059       28.167     4149.816     3851.269      793.364        1.564        0.440      148.475       22.914        0.024      344.429       21.240      861.238
06/29/2014  00:11:00     -170.456      -34.274      -11.922       77.882       44.307       38.935     6065.622     1963.147     1515.902        1.996        0.477      173.868       31.033        0.032      344.390       21.173      861.254
06/29/2014  00:12:00     -170.393       -5.719      -17.929       37.929       44.345       26.520     1438.594     1966.458      703.302        1.675        0.205      170.488       22.818        0.018      344.341       21.091      861.267
06/29/2014  00:13:00     -125.670       -1.244      -19.706       43.373       61.975       22.551     1881.225     3840.859      508.539        1.121        0.312      125.677       21.217        0.029      344.338       21.086      861.281
06/29/2014  00:14:00      -71.720       24.928      -10.000       46.005       43.049       17.723     2116.424     1853.241      314.105        0.507        0.214       75.929       19.818        0.068      344.338       21.088      861.303
06/29/2014  00:15:00       -3.324       27.815       15.995       22.018       44.406       16.908      484.808     1971.875      285.897        0.189        0.137       28.013       19.203        0.470      344.032       20.565      861.303
06/29/2014  00:16:00       -2.302       17.194       11.153       17.473       22.578       21.918      305.301      509.784      480.389        0.086        0.065       17.347        7.912        0.208      343.432       19.540      861.301
06/29/2014  00:17:00      -11.601       16.869       -2.706       23.430       11.058        9.129      548.957      122.284       83.331        0.059        0.038       20.473        8.329        0.165      343.840       20.236      861.302
06/29/2014  00:18:00      -62.326       26.846      -15.638       41.899       44.344       20.107     1755.539     1966.430      404.284        0.449        0.206       67.862       19.867        0.086      344.319       21.053      861.321
06/29/2014  00:19:00      -54.282       -0.685       20.350       45.420       60.884       31.953     2062.949     3706.816     1020.988        0.507        0.340       54.286       35.452        0.426      344.026       20.551      861.316
06/29/2014  00:20:00      -53.682      -31.434        4.109       63.943       42.739       30.117     4088.741     1826.635      907.024        0.535        0.341       62.208       34.702        0.311      344.037       20.572      861.314
06/29/2014  00:21:00      -60.720      -30.609        8.971       50.479       48.173       20.491     2548.163     2320.631      419.895        0.500        0.264       67.999       24.923        0.134      344.139       20.746      861.315
06/29/2014  00:22:00      -45.571       -1.921        2.694       32.744       27.367       23.010     1072.147      748.954      529.443        0.222        0.118       45.612       22.381        0.241      344.166       20.793      861.317
06/29/2014  00:23:00      -36.403       14.896       -5.698       36.826       18.330       22.146     1356.153      335.994      490.436        0.188        0.109       39.333       18.499        0.221      344.146       20.758      861.315
06/29/2014  00:24:00      -21.741        7.455       16.735       26.667       23.459       22.251      711.133      550.310      495.117        0.128        0.088       22.983       19.897        0.749      343.781       20.136      861.286
06/29/2014  00:25:00      -77.928      -29.218        0.081       72.059       45.345       23.377     5192.545     2056.165      546.467        0.736        0.390       83.225       12.088        0.021      343.889       20.319      861.252
06/29/2014  00:26:00      -40.900      -49.088        5.625       72.001       63.762       43.386     5184.122     4065.610     1882.305        0.762        0.557       63.894       50.198        0.617      344.250       20.936      861.277
06/29/2014  00:27:00       -2.056      -24.122       13.610       34.781       41.318       22.997     1209.708     1707.170      528.855        0.211        0.172       24.210       11.819        0.238      344.030       20.560      861.284
06/29/2014  00:28:00       24.535      -61.046       24.321       35.017       39.678       26.095     1226.173     1574.371      680.954        0.420        0.174       65.792       20.696        0.099      344.054       20.599      861.273
06/29/2014  00:29:00       48.702      -25.447       27.043       38.082       22.414       22.769     1450.209      502.404      518.440        0.311        0.124       54.949       22.687        0.170      343.535       19.716      861.263
06/29/2014  00:30:00       47.389      -19.857       12.077       25.148       47.996       24.134      632.442     2303.630      582.438        0.315        0.176       51.381       24.473        0.227      343.159       19.075      861.255
06/29/2014  00:31:00        3.420      127.774      -20.773       42.622       58.019       33.621     1816.607     3366.241     1130.379        1.154        0.316      127.820       25.090        0.039      344.103       20.685      861.248
06/29/2014  00:32:00       24.526      -43.161       11.585       46.447       75.615       46.826     2157.290     5717.652     2192.636        0.633        0.503       49.643       30.433        0.376      343.858       20.266      861.203
06/29/2014  00:33:00       75.216      126.080       12.147      125.160       61.946       57.219    15664.979     3837.318     3273.991        2.223        1.139      146.811       29.722        0.041      343.940       20.403      861.225
06/29/2014  00:34:00      -83.416       99.885      -26.498       59.775       67.780       38.929     3573.035     4594.118     1515.476        1.366        0.484      130.136       40.365        0.096      344.152       20.766      861.260
06/29/2014  00:35:00      -41.825       49.394      -20.433       45.863       78.935       25.361     2103.427     6230.715      643.156        0.679        0.449       64.724       17.318        0.072      344.313       21.043      861.228
06/29/2014  00:36:00      -76.623      -56.936        4.242       64.600       67.130       33.889     4173.189     4506.487     1148.498        0.948        0.491       95.461       31.575        0.109      344.136       20.740      861.210
06/29/2014  00:37:00      -51.907      -96.947        3.970       49.094       46.820       25.943     2410.244     2192.096      673.047        0.869        0.264      109.968       20.320        0.034      344.150       20.765      861.222
06/29/2014  00:38:00      -43.298      -93.573        1.264       31.694       49.994       29.485     1004.487     2499.391      869.360        0.750        0.219      103.105       22.293        0.047      344.144       20.754      861.206
06/29/2014  00:39:00      -52.381      -35.878      -16.180       67.103       24.819       23.198     4502.822      615.965      538.126        0.497        0.283       63.490        9.712        0.023      344.010       20.525      861.212
06/29/2014  00:40:00       41.543      -15.836       12.074       18.841       33.454       18.157      354.985     1119.137      329.667        0.196        0.090       44.459        9.732        0.048      343.862       20.272      861.223
06/29/2014  00:41:00       61.255      -66.708       -4.814       35.526       33.421       21.272     1262.131     1116.969      452.510        0.553        0.142       90.566       24.386        0.073      343.342       19.385      861.189
06/29/2014  00:42:00      -57.022       -8.451        5.740       59.575       33.292       20.374     3549.190     1108.351      415.090        0.421        0.254       57.645       26.717        0.215      343.605       19.835      861.185
06/29/2014  00:43:00     -103.890      -46.038        6.395       51.160       39.208       26.728     2617.308     1537.285      714.363        0.891        0.243      113.634       23.109        0.041      343.858       20.266      861.202
06/29/2014  00:44:00       16.347      -41.698       17.113       36.119       29.912       21.211     1304.554      894.752      449.904        0.247        0.132       44.788       13.941        0.097      343.808       20.180      861.202
06/29/2014  00:45:00       27.792       15.638       23.623       26.450       16.421       22.077      699.616      269.643      487.410        0.152        0.073       31.890       12.499        0.154      343.465       19.596      861.212
06/29/2014  00:46:00       24.475      -17.626        9.830       21.383       38.722       28.517      457.249     1499.381      813.238        0.189        0.138       30.161       22.977        0.580      343.311       19.333      861.230
06/29/2014  00:47:00       20.376       -4.506       20.077       32.619       24.340       18.489     1064.029      592.433      341.857        0.142        0.100       20.868       15.698        0.566      342.972       18.756      861.231
06/29/2014  00:48:00       34.428      -29.246        2.189       28.049       22.482       22.527      786.771      505.458      507.445        0.192        0.090       45.173       18.089        0.160      342.872       18.585      861.220
06/29/2014  00:49:00       13.809       -2.293       16.029       30.090       14.869       18.663      905.379      221.090      348.302        0.096        0.074       13.998        7.134        0.260      343.069       18.921      861.220
06/29/2014  00:50:00       38.644      -23.312       -1.240       25.464       26.167       20.301      648.401      684.710      412.132        0.189        0.087       45.131       15.431        0.117      343.295       19.305      861.221
06/29/2014  00:51:00       26.747       -1.365       25.126       25.527       26.882       20.625      651.629      722.618      425.405        0.157        0.090       26.782        6.123        0.052      343.030       18.855      861.233
06/29/2014  00:52:00       14.648        7.986       10.081       27.626       25.127       15.504      763.202      631.379      240.371        0.101        0.082       16.683       18.342        1.209      343.386       19.461      861.270
06/29/2014  00:53:00       28.774       -5.870       24.954       64.614       23.338       22.554     4174.934      544.650      508.696        0.336        0.261       29.367       14.181        0.233      343.554       19.749      861.295
06/29/2014  00:54:00       80.716       -6.129       21.098       49.113       25.648       36.160     2412.039      657.813     1307.527        0.569        0.219       80.949       21.278        0.069      342.891       18.618      861.300
06/29/2014  00:55:00       56.437      -26.859        1.450       28.077       29.259       22.311      788.326      856.110      497.803        0.303        0.107       62.502       18.249        0.085      342.985       18.777      861.312
06/29/2014  00:56:00       20.945        2.327       14.329       25.709       27.055       20.131      660.930      731.949      405.274        0.122        0.090       21.074       19.572        0.863      343.005       18.812      861.322
06/29/2014  00:57:00       -3.609       10.656        0.248       28.153       18.356       13.865      792.596      336.937      192.247        0.072        0.066       11.250        9.680        0.740      343.626       19.872      861.324
06/29/2014  00:58:00      -58.356       -3.265       -1.251       15.424       15.670       11.079      237.900      245.557      122.734        0.201        0.030       58.447        7.656        0.017      344.023       20.546      861.328
06/29/2014  00:59:00      -31.230        5.607        4.543       22.225       30.479       15.547      493.953      928.951      241.707        0.135        0.083       31.729       13.020        0.168      343.859       20.268      861.330
06/29/2014  01:00:00       20.095       11.286        5.085       30.627       37.271       17.182      937.989     1389.124      295.230        0.159        0.131       23.048       15.857        0.473      343.338       19.378      861.322
06/29/2014  01:01:00      -97.572       -4.906       -7.535       59.550       47.322       21.979     3546.187     2239.354      483.086        0.793        0.313       97.695       15.100        0.024      343.612       19.847      861.317
06/29/2014  01:02:00     -104.800       74.805      -20.408       55.651       39.155       18.823     3097.004     1533.145      354.301        1.099        0.249      128.759       19.428        0.023      344.066       20.623      861.325
06/29/2014  01:03:00      -68.482      126.850      -16.808       48.079       51.668       39.788     2311.567     2669.543     1583.067        1.381        0.328      144.155       27.964        0.038      343.909       20.353      861.311
06/29/2014  01:04:00      -82.138       70.358       -2.621       63.676       59.641       34.612     4054.694     3557.022     1197.969        1.026        0.440      108.152       26.126        0.058      343.859       20.267      861.292
06/29/2014  01:05:00     -178.666       43.719      -32.826       52.279       86.553       37.533     2733.043     7491.394     1408.751        2.327        0.582      183.937       25.214        0.019      343.915       20.359      861.298
06/29/2014  01:06:00      -24.689       -3.488       10.785       60.550       45.051       31.059     3666.359     2029.586      964.667        0.370        0.333       24.935       29.649        1.414      343.885       20.312      861.308
06/29/2014  01:07:00     -117.079      -32.578       -7.997       57.734       48.862       27.813     3333.225     2387.465      773.539        1.066        0.325      121.527       20.961        0.030      343.856       20.263      861.302
06/29/2014  01:08:00      -73.676      123.264      -16.769       72.049       73.311       42.648     5191.068     5374.475     1818.839        1.664        0.619      143.605       44.794        0.097      343.807       20.178      861.299
06/29/2014  01:09:00      -93.995       20.569        0.942       60.569       49.959       24.324     3668.611     2495.896      591.633        0.801        0.338       96.219       20.332        0.045      343.748       20.077      861.301
06/29/2014  01:10:00     -110.593       57.476      -17.337       42.960       59.997       25.355     1845.526     3599.618      642.892        1.096        0.304      124.637       30.309        0.059      343.815       20.192      861.328
06/29/2014  01:11:00     -101.770      146.781      -27.588       65.892      102.420       38.438     4341.695    10489.760     1477.456        2.448        0.815      178.610       42.941        0.058      343.830       20.216      861.328
06/29/2014  01:12:00     -112.289       99.993      -15.886       94.516       74.699       40.458     8933.187     5579.977     1636.815        1.950        0.807      150.357       45.812        0.093      343.777       20.126      861.312
06/29/2014  01:13:00      -83.478       65.429       -9.180       78.618       67.778       38.844     6180.839     4593.867     1508.838        1.181        0.614      106.064       42.266        0.159      343.694       19.986      861.309
06/29/2014  01:14:00      -70.990      100.522       -9.073       34.995       38.275       31.884     1224.644     1464.968     1016.620        0.947        0.185      123.062       24.750        0.040      343.737       20.060      861.312
06/29/2014  01:15:00      -75.720       92.067      -22.555       54.813       35.795       27.093     3004.487     1281.258      734.055        0.987        0.251      119.205       28.517        0.057      343.664       19.935      861.324
06/29/2014  01:16:00     -114.558      122.259      -26.699       83.283       56.678       35.971     6935.988     3212.393     1293.886        2.011        0.572      167.544       33.178        0.039      343.721       20.030      861.340
06/29/2014  01:17:00      -22.670      215.196      -19.167       66.675       81.733       46.996     4445.545     6680.247     2208.599        3.026        0.667      216.387       38.640        0.032      343.754       20.085      861.349
06/29/2014  01:18:00     -136.390      341.434      -42.038       88.905       99.015       47.561     7904.175     9803.951     2262.068        7.845        0.999      367.667       48.055        0.017      343.773       20.116      861.339
06/29/2014  01:19:00      -57.417      238.427      -26.752       57.103       64.478       42.199     3260.776     4157.392     1780.724        3.503        0.460      245.243       40.430        0.027      343.784       20.136      861.333
06/29/2014  01:20:00     -146.983      245.522      -31.976       79.231       91.994       49.014     6277.557     8462.917     2402.360        5.002        0.857      286.155       45.321        0.025      343.898       20.330      861.334
06/29/2014  01:21:00      -36.543      302.603      -33.559       53.166       89.163       29.945     2826.585     7950.038      896.712        5.285        0.584      304.802       36.878        0.015      343.921       20.371      861.329
06/29/2014  01:22:00       15.552      260.962      -45.015       48.554       65.155       29.734     2357.531     4245.136      884.099        3.893        0.374      261.425       26.485        0.010      343.988       20.484      861.316
06/29/2014  01:23:00      -44.489      216.091      -13.790       71.088       79.115       44.672     5053.440     6259.111     1995.589        3.108        0.665      220.624       35.175        0.025      343.885       20.310      861.319
06/29/2014  01:24:00      -61.339      144.227      -16.022       46.292       55.369       31.354     2142.932     3065.691      983.071        1.551        0.310      156.729       31.380        0.040      343.773       20.120      861.344
06/29/2014  01:25:00      -22.926       95.050       -5.225       74.420       44.702       25.487     5538.304     1998.230      649.582        0.889        0.409       97.776       28.501        0.085      343.745       20.072      861.348
06/29/2014  01:26:00      -39.294      124.526      -20.473       27.233       26.464       17.372      741.610      700.321      301.793        0.961        0.087      130.578       14.574        0.012      343.724       20.038      861.345
06/29/2014  01:27:00       -4.011      120.169       -7.456       23.394       26.934       21.234      547.273      725.463      450.863        0.812        0.086      120.236       13.680        0.013      343.816       20.194      861.356
06/29/2014  01:28:00      -27.924       25.263       -1.467       33.245       56.005       18.405     1105.231     3136.576      338.752        0.300        0.229       37.656       14.628        0.151      343.718       20.027      861.361
06/29/2014  01:29:00        7.765       27.380      -11.236       28.649       25.161       19.653      820.742      633.085      386.234        0.139        0.092       28.460       10.293        0.131      343.720       20.029      861.342
06/29/2014  01:30:00        9.468       59.491       -0.638       34.450       37.044       17.938     1186.788     1372.223      321.771        0.325        0.144       60.240       14.914        0.061      343.516       19.682      861.336
06/29/2014  01:31:00      -30.530       73.985       -4.964       33.703       52.393       24.584     1135.901     2745.040      604.350        0.546        0.224       80.037       32.512        0.165      343.621       19.862      861.356
06/29/2014  01:32:00      -26.132       83.237        0.481       35.410       53.225       23.168     1253.834     2832.910      536.738        0.612        0.231       87.243       25.883        0.088      343.577       19.787      861.368
06/29/2014  01:33:00     -114.495      131.481      -30.769       53.191       57.805       29.146     2829.283     3341.458      849.497        1.918        0.351      174.345       25.957        0.022      343.784       20.138      861.367
06/29/2014  01:34:00      -67.660      133.613      -11.686       49.154       53.901       30.247     2416.111     2905.271      914.904        1.440        0.312      149.768       31.409        0.044      343.734       20.053      861.354
06/29/2014  01:35:00      -93.137       79.115      -15.249       52.395       44.965       35.751     2745.272     2021.842     1278.121        1.060        0.302      122.204       32.023        0.069      343.705       20.004      861.361
06/29/2014  01:36:00     -113.427      188.272      -28.565       57.640       74.287       37.685     3322.351     5518.539     1420.176        2.969        0.513      219.800       38.709        0.031      343.772       20.115      861.377
06/29/2014  01:37:00      -85.813       92.453      -12.787       74.905       77.098       39.251     5610.712     5944.027     1540.629        1.458        0.655      126.140       23.320        0.034      343.751       20.084      861.378
06/29/2014  01:38:00      -27.457       68.291        4.657       61.396       56.470       36.651     3769.442     3188.885     1343.263        0.687        0.415       73.604       30.567        0.172      343.727       20.042      861.356
06/29/2014  01:39:00     -103.308       82.700      -23.018       58.292       79.038       38.111     3397.986     6247.019     1452.462        1.457        0.555      132.332       35.454        0.072      343.732       20.049      861.359
06/29/2014  01:40:00      -76.502      116.713       -6.282       44.101       44.909       29.233     1944.868     2016.846      854.572        1.216        0.241      139.551       28.049        0.040      343.666       19.938      861.347
06/29/2014  01:41:00      -61.266       78.363      -12.405       46.919       44.798       24.050     2201.363     2006.848      578.412        0.742        0.239       99.470       22.585        0.052      343.716       20.022      861.356
06/29/2014  01:42:00      -40.403       72.387        0.218       28.169       27.361       24.498      793.508      748.604      600.128        0.451        0.107       82.899       17.104        0.043      343.624       19.867      861.364
06/29/2014  01:43:00      -16.969       35.387       12.350       48.324       47.901       26.764     2335.226     2294.540      716.330        0.352        0.267       39.245       28.611        0.531      343.572       19.778      861.359
06/29/2014  01:44:00      -70.152       41.711      -10.365       41.608       43.956       27.233     1731.231     1932.086      741.614        0.559        0.220       81.616       29.655        0.132      343.685       19.969      861.363
06/29/2014  01:45:00     -160.672      -21.677       -0.232      125.682       74.342       41.995    15795.874     5526.714     1763.589        2.468        1.154      162.128       62.001        0.146      343.730       20.046      861.335
06/29/2014  01:46:00      -16.279       62.574       11.182       46.532       39.791       36.451     2165.215     1583.327     1328.706        0.469        0.254       64.657       31.666        0.240      343.449       19.570      861.338
06/29/2014  01:47:00      -25.919      146.682       -9.823       50.111       63.220       29.818     2511.108     3996.722      889.140        1.484        0.370      148.954       29.667        0.040      343.620       19.859      861.335
06/29/2014  01:48:00     -153.570       99.503      -26.619       69.234       55.813       35.108     4793.321     3115.099     1232.584        2.167        0.457      182.988       40.736        0.050      343.651       19.910      861.333
06/29/2014  01:49:00       48.509       80.334        0.046       53.554       47.590       37.854     2867.979     2264.796     1432.892        0.769        0.328       93.844       32.440        0.119      343.552       19.744      861.315
06/29/2014  01:50:00       34.175      166.670      -23.501       40.867       86.832       38.497     1670.140     7539.813     1482.013        2.009        0.535      170.138       42.775        0.063      343.508       19.668      861.301
06/29/2014  01:51:00       32.373      147.743       -0.283       84.057       68.886       48.850     7065.625     4745.289     2386.318        1.853        0.710      151.248       37.553        0.062      343.410       19.500      861.304
06/29/2014  01:52:00       25.395      203.996      -21.044       61.278       86.974       41.989     3755.046     7564.536     1763.099        2.789        0.654      205.571       45.266        0.048      343.388       19.463      861.309
06/29/2014  01:53:00      -13.828      160.918      -21.439       52.495       73.485       43.470     2755.755     5400.003     1889.649        1.829        0.502      161.511       42.031        0.068      343.371       19.434      861.305
06/29/2014  01:54:00      -71.713      102.897       -9.157       40.223       64.077       32.463     1617.923     4105.899     1053.822        1.129        0.339      125.421       27.696        0.049      343.357       19.411      861.310
06/29/2014  01:55:00      -39.218       47.423        2.063       27.169       35.447       22.493      738.164     1256.475      505.937        0.315        0.125       61.538       17.279        0.079      343.403       19.490      861.300
06/29/2014  01:56:00      -47.908       92.090      -13.730      108.159       47.452       43.955    11698.339     2251.680     1932.016        1.342        0.794      103.806       54.683        0.278      343.364       19.422      861.292
06/29/2014  01:57:00      -36.334      134.143       -8.547       82.835       69.520       36.652     6861.576     4832.988     1343.357        1.621        0.652      138.977       37.467        0.073      343.259       19.243      861.278
06/29/2014  01:58:00      -89.811      107.729      -19.495       44.426       58.145       33.256     1973.649     3380.807     1105.988        1.325        0.323      140.255       33.762        0.058      343.337       19.379      861.290
06/29/2014  01:59:00     -105.119       55.397      -15.987       32.768       43.395       23.891     1073.759     1883.146      570.784        0.895        0.176      118.823       21.434        0.033      343.366       19.427      861.290
06/29/2014  02:00:00      -92.255      106.196      -13.993       53.551       55.803       34.899     2867.756     3113.958     1217.945        1.359        0.360      140.672       31.167        0.049      343.333       19.370      861.289
06/29/2014  02:01:00     -126.844       -1.255      -14.350       44.195       46.476       26.955     1953.202     2160.063      726.556        1.057        0.242      126.850       25.649        0.041      343.413       19.508      861.286
06/29/2014  02:02:00       -4.204       50.321        7.381       51.715       56.163       35.344     2674.442     3154.327     1249.169        0.484        0.354       50.496       32.060        0.403      343.310       19.331      861.271
06/29/2014  02:03:00     -120.801      -30.373       -5.323       53.485       39.500       28.114     2860.601     1560.249      790.379        1.038        0.261      124.561       30.741        0.061      343.277       19.274      861.274
06/29/2014  02:04:00      -87.092      -51.823        1.078       36.975       28.176       21.536     1367.120      793.900      463.806        0.645        0.131      101.344       17.751        0.031      343.275       19.273      861.273
06/29/2014  02:05:00      -84.775      -51.592        2.885       33.814       37.995       20.445     1143.419     1443.597      418.008        0.643        0.150       99.239       21.209        0.046      343.197       19.139      861.269
06/29/2014  02:06:00      -51.994      -30.040       -9.495       52.666       28.602       21.997     2773.702      818.068      483.873        0.389        0.204       60.049       16.751        0.078      343.335       19.375      861.282
06/29/2014  02:07:00      -45.101        9.890        7.102       21.852       30.873       13.678      477.526      953.120      187.091        0.190        0.081       46.173       13.506        0.086      343.213       19.165      861.302
06/29/2014  02:08:00       11.122      -21.103        6.913       33.268       23.162       19.484     1106.764      536.495      379.622        0.132        0.101       23.854       17.028        0.510      342.735       18.353      861.298
06/29/2014  02:09:00      -35.826      -15.963        6.187       26.368       21.313       16.971      695.254      454.241      288.014        0.151        0.072       39.221       16.660        0.180      342.870       18.582      861.295
06/29/2014  02:10:00      -57.438       31.933       -7.480       35.289       44.417       20.858     1245.314     1972.838      435.059        0.401        0.183       65.718       20.690        0.099      343.240       19.211      861.300
06/29/2014  02:11:00      -72.353       73.324      -10.300       63.873       76.879       35.813     4079.715     5910.392     1282.599        1.099        0.564      103.011       46.609        0.205      343.457       19.582      861.304
06/29/2014  02:12:00      -72.829       99.009      -17.158       30.613       61.003       21.119      937.163     3721.358      446.029        1.025        0.255      122.910       12.883        0.011      343.472       19.607      861.307
06/29/2014  02:13:00     -103.134       60.206      -15.657       56.896       40.005       19.837     3237.179     1600.416      393.524        0.987        0.262      119.421       14.079        0.014      343.461       19.589      861.318
06/29/2014  02:14:00     -115.833       21.256       -8.688       34.358       24.972       19.928     1180.500      623.600      397.126        0.807        0.110      117.767       13.932        0.014      343.415       19.511      861.326
06/29/2014  02:15:00      -97.629       82.988      -20.936       37.977       59.090       31.032     1442.226     3491.687      962.982        1.138        0.295      128.134       21.615        0.028      343.550       19.740      861.334
06/29/2014  02:16:00     -108.648       -7.199       -8.382       34.551       31.853       23.561     1193.801     1014.612      555.142        0.734        0.138      108.887       18.543        0.029      343.423       19.525      861.338
06/29/2014  02:17:00      -78.601       56.280       -7.353       36.760       30.148       18.532     1351.294      908.898      343.435        0.600        0.130       96.673       19.378        0.040      343.420       19.521      861.351
06/29/2014  02:18:00      -59.462        7.546      -11.749       20.520       36.469       13.727      421.060     1330.000      188.419        0.283        0.097       59.939        9.247        0.024      343.403       19.489      861.355
06/29/2014  02:19:00      -79.857       11.168       -8.025       20.084       25.078       12.109      403.379      628.895      146.629        0.387        0.059       80.634        8.589        0.011      343.310       19.332      861.351
06/29/2014  02:20:00      -61.824        3.269       -1.871       35.966       21.571       10.018     1293.529      465.328      100.365        0.285        0.093       61.910       12.660        0.042      343.157       19.071      861.343
06/29/2014  02:21:00     -140.088       16.221      -14.538       38.272       36.505       20.342     1464.758     1332.593      413.796        1.165        0.161      141.024       16.389        0.014      343.323       19.354      861.343
06/29/2014  02:22:00     -195.143       24.288      -28.819       50.447       34.839       23.243     2544.936     1213.725      540.244        2.190        0.215      196.649       17.997        0.008      343.677       19.956      861.358
06/29/2014  02:23:00     -160.841      -65.932      -22.828       65.089       41.072       33.024     4236.601     1686.944     1090.574        1.887        0.351      173.830       35.900        0.043      343.438       19.549      861.357
06/29/2014  02:24:00      -53.900        1.755       -3.892       37.154       37.267       24.588     1380.409     1388.821      604.575        0.315        0.169       53.928       15.993        0.088      343.294       19.304      861.368
06/29/2014  02:25:00     -119.522      -33.569      -16.393       45.662       32.617       18.729     2085.040     1063.855      350.774        0.959        0.175      124.147        5.860        0.002      343.300       19.313      861.377
06/29/2014  02:26:00     -126.536      -17.518      -11.752       25.093       36.827       23.040      629.659     1356.263      530.850        0.949        0.126      127.743       18.328        0.021      343.213       19.167      861.388
06/29/2014  02:27:00      -79.768      -15.244        6.534       41.115       30.070       23.063     1690.421      904.189      531.914        0.488        0.156       81.211       26.394        0.106      343.093       18.963      861.385
06/29/2014  02:28:00      -95.564      -15.093      -11.645       25.377       40.452       18.963      643.977     1636.348      359.586        0.607        0.132       96.749       14.705        0.023      343.123       19.012      861.393
06/29/2014  02:29:00     -123.419       27.028      -16.408       35.796       44.181       26.092     1281.359     1951.961      680.813        1.007        0.196      126.344       20.156        0.025      343.212       19.166      861.403
06/29/2014  02:30:00      -13.065       37.742        5.134       39.431       27.756       27.691     1554.837      770.415      766.775        0.236        0.155       39.939       28.001        0.492      343.403       19.490      861.389
06/29/2014  02:31:00     -140.606       40.206       -7.428       51.458       31.185       20.214     2647.919      972.502      408.589        1.273        0.201      146.241       19.265        0.017      343.382       19.454      861.367
06/29/2014  02:32:00      -77.699       58.193       -7.667       62.984       32.860       25.806     3966.984     1079.768      665.956        0.760        0.286       97.075       30.580        0.099      343.203       19.148      861.355
06/29/2014  02:33:00      -61.425       77.978      -10.476       71.669       53.097       29.146     5136.460     2819.248      849.484        0.938        0.440       99.265       29.950        0.091      343.209       19.160      861.342
06/29/2014  02:34:00      -88.042       28.092       -2.047       41.568       52.501       31.105     1727.863     2756.358      967.494        0.700        0.273       92.415       30.078        0.106      343.196       19.138      861.350
06/29/2014  02:35:00     -105.423       43.092      -15.785       32.808       67.290       22.379     1076.377     4527.996      500.805        0.966        0.305      113.890       11.456        0.010      343.093       18.964      861.363
06/29/2014  02:36:00      -95.127      -30.618       -1.428       35.268       36.785       19.250     1243.859     1353.152      370.551        0.648        0.148       99.932       19.981        0.040      342.964       18.743      861.380
06/29/2014  02:37:00     -107.163      -35.725      -10.442       34.100       22.696       17.042     1162.796      515.117      290.438        0.742        0.098      112.961       10.439        0.009      342.840       18.532      861.385
06/29/2014  02:38:00      -15.816      -25.973       -1.632       28.717       21.839       15.983      824.688      476.941      255.451        0.124        0.078       30.409       13.973        0.211      342.895       18.623      861.367
06/29/2014  02:39:00      -11.367      -26.303        9.257       34.468       19.914       15.416     1188.038      396.561      237.638        0.136        0.091       28.654       17.608        0.378      342.882       18.603      861.353
06/29/2014  02:40:00      -46.022      -40.425       -0.899       18.953       21.721       13.614      359.205      471.822      185.343        0.238        0.051       61.255       12.875        0.044      342.955       18.726      861.350
06/29/2014  02:41:00      -44.092       -8.353       -1.736       17.817       14.643        8.087      317.454      214.428       65.401        0.131        0.030       44.876        8.409        0.035      342.979       18.765      861.349
06/29/2014  02:42:00      -61.005        6.675       -3.749       13.279        8.804        5.900      176.325       77.502       34.811        0.203        0.014       61.369        4.824        0.006      342.998       18.801      861.338
06/29/2014  02:43:00     -100.045        0.363      -11.869        9.733       13.751        6.300       94.722      189.088       39.696        0.524        0.016      100.046        4.968        0.002      342.998       18.798      861.332
06/29/2014  02:44:00      -85.087       -8.575       -8.276       25.632       16.018       10.596      656.980      256.574      112.265        0.420        0.051       85.518       11.497        0.018      342.876       18.592      861.330
06/29/2014  02:45:00      -87.532      -18.955       -9.377       27.301       22.739       13.696      745.331      517.052      187.583        0.478        0.072       89.561       14.637        0.027      342.866       18.578      861.339
06/29/2014  02:46:00     -117.682       23.109       -8.516       43.604       23.841       20.288     1901.302      568.375      411.620        0.867        0.144      119.929       20.236        0.028      342.865       18.574      861.347
06/29/2014  02:47:00     -152.347       34.849      -12.322       51.916       25.894       18.370     2695.301      670.524      337.466        1.414        0.185      156.282       13.467        0.007      342.917       18.662      861.350
06/29/2014  02:48:00     -162.999       33.733      -20.390       31.637       28.656       18.307     1000.920      821.143      335.148        1.514        0.108      166.453       13.360        0.006      342.926       18.678      861.345
06/29/2014  02:49:00     -150.304       46.329      -12.269       29.340       24.408       15.716      860.811      595.763      247.007        1.330        0.085      157.282       10.877        0.005      342.941       18.703      861.347
06/29/2014  02:50:00     -135.655       38.910      -10.693       33.993       27.129       16.980     1155.531      735.984      288.314        1.110        0.109      141.125        5.126        0.001      342.922       18.671      861.356
06/29/2014  02:51:00      -97.968        1.231       -5.430       28.522       31.667       15.039      813.491     1002.772      226.172        0.584        0.102       97.976       14.112        0.021      342.778       18.426      861.367
06/29/2014  02:52:00      -54.922       -6.367       -3.391       19.462       23.753       17.519      378.781      564.202      306.926        0.216        0.062       55.290       14.797        0.072      342.697       18.285      861.367
06/29/2014  02:53:00      -59.057       -3.386       -4.965       21.190       25.893       13.946      449.037      670.460      194.482        0.242        0.066       59.154        8.447        0.020      342.866       18.576      861.375
06/29/2014  02:54:00      -48.210      -28.504       -2.120       13.288       18.729       15.722      176.577      350.767      247.196        0.196        0.039       56.006       12.596        0.051      342.811       18.482      861.373
06/29/2014  02:55:00      -60.521      -32.741       -7.701       12.149       12.466        7.006      147.594      155.393       49.083        0.257        0.018       68.809        4.028        0.003      342.564       18.061      861.381
06/29/2014  02:56:00      -85.775      -22.972      -12.643       26.357       19.885        9.973      694.683      395.412       99.460        0.462        0.059       88.797       13.975        0.025      342.671       18.243      861.381
06/29/2014  02:57:00     -131.010        4.681      -12.535       21.306       16.397       10.026      453.944      268.855      100.529        0.908        0.041      131.093        8.635        0.004      343.035       18.863      861.380
06/29/2014  02:58:00     -136.206       21.908      -15.400       35.739       28.264       20.551     1277.285      798.873      422.354        1.088        0.125      137.957       16.375        0.014      342.669       18.242      861.381
06/29/2014  02:59:00     -151.579       21.306      -17.183       26.335       34.719       19.031      693.556     1205.393      362.181        1.299        0.113      153.069       12.805        0.007      342.960       18.736      861.368
06/29/2014  03:00:00     -134.939       49.594      -12.095       34.018       28.796       22.799     1157.214      829.205      519.772        1.166        0.125      143.764       13.348        0.009      342.739       18.359      861.362
06/29/2014  03:01:00     -114.285       -6.837      -12.409       29.158       27.779       15.536      850.185      771.652      241.372        0.756        0.093      114.490        8.870        0.006      342.848       18.546      861.370
06/29/2014  03:02:00     -106.452      -27.516       -7.078       34.314       32.177       14.634     1177.424     1035.337      214.161        0.728        0.121      109.951        6.159        0.003      342.600       18.124      861.369
06/29/2014  03:03:00     -117.675      -29.526       -2.687       36.901       37.000       17.808     1361.708     1369.024      317.141        0.889        0.152      121.323       18.929        0.024      342.557       18.050      861.372
06/29/2014  03:04:00     -147.191       -5.813      -12.990       42.904       29.374       18.189     1840.784      862.825      330.857        1.245        0.152      147.306       16.394        0.012      342.534       18.012      861.381
06/29/2014  03:05:00     -165.929        2.501      -16.986       30.388       23.387       18.972      923.433      546.950      359.948        1.483        0.092      165.948       10.850        0.004      342.515       17.979      861.401
06/29/2014  03:06:00     -110.931      -11.416       -9.119       22.113       23.208       13.498      488.980      538.615      182.191        0.686        0.060      111.517        9.150        0.007      342.400       17.783      861.418
06/29/2014  03:07:00     -105.716      -13.225      -10.005       29.201       19.320       15.505      852.700      373.264      240.405        0.646        0.073      106.540       14.276        0.018      342.366       17.725      861.420
06/29/2014  03:08:00     -128.805        6.879      -12.436       16.503       14.691       10.178      272.333      215.826      103.589        0.869        0.030      128.989        9.566        0.005      342.415       17.809      861.424
06/29/2014  03:09:00     -141.101      -25.365      -14.823       26.170       23.345       18.587      684.858      544.986      345.491        1.117        0.079      143.363       16.145        0.013      342.359       17.712      861.441
06/29/2014  03:10:00     -117.197      -28.942       -1.670       20.053       31.541       17.246      402.125      994.806      297.435        0.813        0.085      120.717       11.169        0.009      342.238       17.508      861.449
06/29/2014  03:11:00      -93.054      -26.758       -0.836       26.451       22.902       16.966      699.660      524.492      287.837        0.544        0.076       96.825       14.899        0.024      342.166       17.387      861.454
06/29/2014  03:12:00      -99.470      -38.536       -2.336       18.725       18.464       14.882      350.632      340.930      221.462        0.615        0.046      106.673       14.020        0.017      342.218       17.473      861.447
06/29/2014  03:13:00     -117.963      -29.899       -9.995       26.201       21.398       15.226      686.505      457.884      231.822        0.814        0.069      121.693       14.923        0.015      342.181       17.412      861.462
06/29/2014  03:14:00      -86.586        1.100       -5.943       38.617       28.069       19.747     1491.301      787.879      389.952        0.510        0.133       86.593       18.994        0.048      342.071       17.222      861.482
06/29/2014  03:15:00     -155.313        9.199      -17.178       20.727       24.987       14.590      429.600      624.345      212.860        1.288        0.063      155.585        9.771        0.004      342.073       17.226      861.493
06/29/2014  03:16:00     -121.073      -11.239      -12.355       27.140       23.948       18.355      736.583      573.506      336.908        0.829        0.082      121.593       14.231        0.014      342.101       17.276      861.490
06/29/2014  03:17:00      -68.616      -14.228       -9.191       37.954       26.881       20.550     1440.469      722.600      422.307        0.379        0.129       70.076       18.320        0.068      342.032       17.159      861.493
06/29/2014  03:18:00      -64.496      -23.222       -1.558       39.110       21.981       16.652     1529.594      483.156      277.279        0.350        0.115       68.549       16.673        0.059      342.124       17.315      861.509
06/29/2014  03:19:00      -91.473      -21.193       -4.565       25.876       30.872       15.238      669.583      953.078      232.182        0.535        0.093       93.896       12.170        0.017      342.128       17.320      861.521
06/29/2014  03:20:00      -47.800      -41.873        7.507       44.239       28.006       23.546     1957.045      784.322      554.405        0.369        0.165       63.546       23.689        0.139      342.068       17.220      861.542
06/29/2014  03:21:00      -54.761        2.364        8.020       37.530       20.465       15.044     1408.533      418.799      226.334        0.256        0.103       54.812       19.488        0.126      341.885       16.909      861.565
06/29/2014  03:22:00      -58.488      -12.266        3.493       24.511       17.180       12.186      600.772      295.139      148.510        0.231        0.052       59.760        6.476        0.012      341.971       17.054      861.587
06/29/2014  03:23:00        5.038      -24.413        9.276       29.737       21.521       17.458      884.277      463.149      304.792        0.118        0.083       24.928       13.572        0.296      341.586       16.400      861.599
06/29/2014  03:24:00      -35.289      -21.449        8.021       34.466       20.562       19.385     1187.875      422.780      375.781        0.188        0.099       41.297       21.883        0.281      341.646       16.503      861.615
06/29/2014  03:25:00      -39.521      -24.729        2.880       15.967       18.779       11.995      254.953      352.655      143.877        0.147        0.038       46.620        9.295        0.040      341.700       16.594      861.620
06/29/2014  03:26:00      -61.706        6.984       -4.157       20.829       14.665       10.914      433.864      215.051      119.109        0.232        0.038       62.100        8.129        0.017      341.697       16.590      861.621
06/29/2014  03:27:00      -29.730        8.128        5.509       18.501       22.169       10.441      342.293      491.461      109.012        0.096        0.047       30.821        9.624        0.097      341.518       16.287      861.614
06/29/2014  03:28:00      -63.042      -14.020       -5.590       16.334       27.289       10.654      266.794      744.673      113.505        0.266        0.056       64.582        4.879        0.006      341.862       16.870      861.611
06/29/2014  03:29:00      -77.126      -20.279       -2.384       22.243       20.876       11.888      494.755      435.820      141.333        0.372        0.054       79.748       11.002        0.019      341.945       17.010      861.605
06/29/2014  03:30:00      -74.965      -22.117       -2.750       23.328       17.373       13.364      544.199      301.817      178.594        0.357        0.051       78.159       10.583        0.018      341.867       16.879      861.613
06/29/2014  03:31:00     -127.713        0.343      -10.784       32.798       21.387       18.128     1075.706      457.420      328.639        0.914        0.093      127.714       19.403        0.023      341.860       16.867      861.609
06/29/2014  03:32:00     -141.506       17.056       -9.088       30.149       19.818       20.066      908.935      392.773      402.638        1.105        0.085      142.530       17.558        0.015      341.882       16.903      861.601
06/29/2014  03:33:00     -102.697        2.414       -4.462       26.005       22.201       16.494      676.250      492.877      272.054        0.601        0.072      102.725       10.875        0.011      341.830       16.815      861.601
06/29/2014  03:34:00     -104.329       -5.370       -8.857       30.501       31.298       19.032      930.318      979.564      362.213        0.663        0.114      104.467       14.605        0.020      341.630       16.477      861.618
06/29/2014  03:35:00      -96.077        1.255      -10.066       33.604       28.548       16.008     1129.223      814.978      256.269        0.577        0.110       96.085       13.856        0.021      341.570       16.374      861.611
06/29/2014  03:36:00     -108.793        6.627       -6.702       27.714       27.586       16.712      768.077      761.010      279.283        0.687        0.090      108.995       16.757        0.024      341.569       16.373      861.618
06/29/2014  03:37:00      -67.575        8.223       -5.596       33.836       28.813       23.778     1144.904      830.196      565.394        0.360        0.127       68.074       13.105        0.037      341.494       16.244      861.631
06/29/2014  03:38:00      -90.207       16.098       -6.758       40.169       21.480       19.620     1613.526      461.379      384.964        0.545        0.123       91.632       21.778        0.056      341.611       16.443      861.654
06/29/2014  03:39:00      -71.565       18.462       -6.614       25.483       28.331       14.740      649.389      802.667      217.276        0.359        0.083       73.908       12.770        0.030      341.622       16.461      861.661
06/29/2014  03:40:00      -90.991       79.878      -19.094       31.919       47.953       28.438     1018.795     2299.535      808.703        0.958        0.206      121.078       23.029        0.036      341.599       16.423      861.678
06/29/2014  03:41:00     -113.277      102.529      -22.549       33.906       38.877       26.169     1149.583     1511.438      684.811        1.360        0.167      152.787       25.691        0.028      341.552       16.344      861.693
06/29/2014  03:42:00     -130.944       62.001      -19.737       38.543       38.600       25.873     1485.548     1489.958      669.409        1.251        0.182      144.881       19.636        0.018      341.617       16.451      861.721
06/29/2014  03:43:00     -105.287       23.344      -15.214       31.059       23.716       19.660      964.648      562.444      386.511        0.689        0.096      107.844       17.925        0.028      341.612       16.445      861.731
06/29/2014  03:44:00     -112.917       27.627      -13.710       30.640       27.712       21.177      938.805      767.973      448.459        0.793        0.108      116.248       18.278        0.025      341.584       16.398      861.744
06/29/2014  03:45:00      -80.991       25.638       -2.445       24.440       15.769       14.972      597.310      248.654      224.159        0.415        0.054       84.952        9.334        0.012      341.610       16.441      861.756
06/29/2014  03:46:00      -59.566        3.882       -1.259       15.033       18.619       12.371      225.983      346.682      153.042        0.215        0.036       59.693        8.085        0.018      341.605       16.434      861.762
06/29/2014  03:47:00      -60.137      -26.431       -5.988       15.150       16.892       10.566      229.514      285.354      111.638        0.249        0.031       65.689        9.964        0.023      341.627       16.472      861.764
06/29/2014  03:48:00      -70.916      -18.610       -3.826       28.527       20.379       12.465      813.773      415.302      155.382        0.339        0.069       73.318       13.463        0.034      341.579       16.390      861.780
06/29/2014  03:49:00     -103.832      -26.368      -10.199       16.014       16.000       12.657      256.450      256.013      160.211        0.613        0.034      107.128       10.098        0.009      341.512       16.274      861.785
06/29/2014  03:50:00      -68.139      -28.361       -1.348       15.901       20.251       13.187      252.842      410.104      173.903        0.314        0.042       73.805        8.474        0.013      341.515       16.282      861.782
06/29/2014  03:51:00      -70.917      -35.425       -0.256       26.356       24.611       13.308      694.635      605.683      177.093        0.388        0.074       79.273       12.177        0.024      341.421       16.121      861.781
06/29/2014  03:52:00      -49.445      -35.761        1.709       37.110       14.325       14.626     1377.139      205.196      213.922        0.276        0.090       61.022       16.480        0.073      341.316       15.945      861.769
06/29/2014  03:53:00      -64.625      -22.751       -1.564       40.087       14.113       16.437     1606.929      199.172      270.173        0.339        0.104       68.513       20.861        0.093      341.353       16.006      861.755
06/29/2014  03:54:00     -102.834      -39.656      -13.666       15.584       20.226       16.036      242.867      409.098      257.166        0.662        0.045      110.215        8.458        0.006      341.402       16.088      861.757
06/29/2014  03:55:00      -97.120      -32.592       -7.392       19.901       21.679       12.227      396.047      469.992      149.511        0.578        0.051      102.443       11.619        0.013      341.395       16.078      861.757
06/29/2014  03:56:00      -95.687      -21.943       -6.058       17.928       15.386       10.465      321.406      236.728      109.526        0.517        0.033       98.170        7.424        0.006      341.386       16.063      861.757
06/29/2014  03:57:00     -114.028        0.823       -7.481       19.810       19.032       17.247      392.423      362.234      297.450        0.706        0.053      114.031       11.920        0.011      341.357       16.015      861.770
06/29/2014  03:58:00      -87.227       24.448       -1.969       41.599       26.703       19.216     1730.512      713.036      369.239        0.551        0.141       90.588       19.445        0.046      341.517       16.286      861.776
06/29/2014  03:59:00      -88.493       24.190       -0.553       34.393       18.562       15.197     1182.845      344.546      230.960        0.509        0.088       91.739       11.961        0.017      341.638       16.491      861.784
06/29/2014  04:00:00      -93.823       17.256       -3.454       20.935       25.751       17.337      438.295      663.126      300.581        0.526        0.070       95.396       12.363        0.017      341.683       16.565      861.796
06/29/2014  04:01:00      -65.912        3.277       -1.559       27.641       24.481       15.121      764.049      599.317      228.646        0.297        0.080       65.993       14.455        0.048      341.612       16.446      861.809
06/29/2014  04:02:00      -70.461      -30.878        2.823       31.103       27.183       16.947      967.381      738.890      287.201        0.396        0.100       76.930       15.567        0.041      341.600       16.426      861.809
06/29/2014  04:03:00      -84.012      -29.073       -9.659       18.396       21.203       14.374      338.397      449.569      206.618        0.450        0.050       88.901       10.106        0.013      341.536       16.315      861.811
06/29/2014  04:04:00      -93.888      -32.764       -2.609       22.792       18.352       12.234      519.469      336.786      149.682        0.545        0.050       99.441       11.524        0.013      341.501       16.256      861.826
06/29/2014  04:05:00      -68.370      -18.985       -1.061       18.316       23.113       12.339      335.473      534.212      152.245        0.303        0.051       70.956       10.624        0.022      341.389       16.066      861.832
06/29/2014  04:06:00      -35.993       -7.931        3.775       24.847       12.762       10.738      617.382      162.875      115.300        0.113        0.045       36.856       12.028        0.107      341.306       15.926      861.827
06/29/2014  04:07:00      -56.506       -5.710       -0.004       18.055       15.778        8.272      325.977      248.954       68.432        0.193        0.032       56.793        7.583        0.018      341.393       16.076      861.828
06/29/2014  04:08:00      -77.092        7.698       -8.688        9.623        7.957        9.210       92.600       63.306       84.820        0.316        0.012       77.475        3.933        0.003      341.633       16.480      861.830
06/29/2014  04:09:00      -70.498       29.705       -9.136       21.237       19.073       14.048      450.998      363.789      197.354        0.347        0.051       76.501       10.988        0.021      341.484       16.228      861.836
06/29/2014  04:10:00      -52.688       34.396       -5.595       25.203       25.301       19.688      635.173      640.138      387.632        0.283        0.083       62.921       11.658        0.034      341.408       16.100      861.840
06/29/2014  04:11:00      -39.972       13.265       -8.941       20.107       29.446       18.723      404.300      867.065      350.566        0.174        0.081       42.115       11.802        0.079      341.548       16.336      861.845
06/29/2014  04:12:00        3.431      -13.563       11.876       21.027       15.572       15.693      442.148      242.476      246.258        0.063        0.047       13.990       11.809        0.712      341.258       15.846      861.858
06/29/2014  04:13:00      -29.768      -23.039       13.219       37.480       28.521       21.511     1404.746      813.466      462.740        0.214        0.134       37.642       21.140        0.315      341.125       15.620      861.871
06/29/2014  04:14:00      -62.046      -49.508        4.203       47.634       29.388       17.826     2268.956      863.648      317.770        0.488        0.173       79.377       12.989        0.027      341.297       15.912      861.880
06/29/2014  04:15:00      -62.737      -60.524        1.879       34.362       43.840       26.355     1180.720     1921.922      694.574        0.570        0.190       87.173       24.886        0.081      341.252       15.835      861.894
06/29/2014  04:16:00      -76.476      -85.618        0.287       49.115       40.727       25.756     2412.304     1658.729      663.383        0.896        0.237      114.800       13.470        0.014      341.241       15.817      861.899
06/29/2014  04:17:00     -103.372      -79.322        4.228       39.432       34.427       25.097     1554.879     1185.212      629.866        1.018        0.168      130.299       18.628        0.020      341.191       15.732      861.895
06/29/2014  04:18:00     -102.304      -51.490       -1.388       18.431       24.248       13.129      339.715      587.980      172.364        0.711        0.055      114.531       11.615        0.010      341.178       15.709      861.892
06/29/2014  04:19:00      -83.237      -39.047       -1.235       27.133       20.856       11.786      736.184      434.965      138.917        0.488        0.066       91.940       13.261        0.021      341.162       15.683      861.897
06/29/2014  04:20:00      -50.089      -41.951        2.376       29.381       19.229       16.755      863.235      369.746      280.744        0.289        0.076       65.336        6.870        0.011      341.250       15.832      861.883
06/29/2014  04:21:00      -43.872      -35.869        3.157       40.772       27.994       18.602     1662.322      783.668      346.024        0.301        0.140       56.669       18.490        0.106      341.209       15.763      861.870
06/29/2014  04:22:00      -76.504      -60.271        0.709       31.819       24.459       14.448     1012.450      598.221      208.742        0.565        0.091       97.393       14.463        0.022      341.266       15.859      861.876
06/29/2014  04:23:00      -64.897      -40.175        1.054       24.176       15.812       11.775      584.461      250.023      138.647        0.340        0.049       76.326        8.103        0.011      341.257       15.844      861.887
06/29/2014  04:24:00      -82.252      -49.996        1.411       35.340       18.495       15.561     1248.883      342.072      242.142        0.555        0.092       96.255       18.007        0.035      341.298       15.913      861.890
06/29/2014  04:25:00     -127.794      -52.476       -5.492       20.753       23.928       14.809      430.673      572.542      219.297        1.017        0.061      138.149       12.299        0.008      341.277       15.880      861.906
06/29/2014  04:26:00     -113.326      -36.573       -5.199       26.825       18.788       16.725      719.585      352.978      279.725        0.778        0.068      119.081       14.603        0.015      341.197       15.743      861.926
06/29/2014  04:27:00      -42.538      -23.581        5.422       31.531       15.125       15.503      994.214      228.761      240.351        0.193        0.073       48.637       12.936        0.071      341.207       15.761      861.926
06/29/2014  04:28:00      -54.282      -44.840       10.206       34.879       26.718       18.553     1216.531      713.828      344.232        0.367        0.114       70.407       17.821        0.064      341.191       15.733      861.923
06/29/2014  04:29:00      -54.088      -47.847        2.365       29.717       27.864       17.071      883.110      776.420      291.428        0.359        0.098       72.214       15.297        0.045      341.161       15.681      861.924
06/29/2014  04:30:00      -73.816      -43.121        3.409       52.240       27.616       17.846     2729.010      762.634      318.464        0.556        0.191       85.489       21.320        0.062      341.213       15.770      861.933
06/29/2014  04:31:00      -62.493      -45.850        6.801       69.605       32.861       19.581     4844.905     1079.833      383.399        0.618        0.315       77.509       21.099        0.074      341.151       15.666      861.941
06/29/2014  04:32:00      -55.130      -66.580        8.321       42.126       30.158       22.417     1774.561      909.503      502.501        0.536        0.159       86.442       23.843        0.076      341.213       15.771      861.951
06/29/2014  04:33:00      -78.081      -42.778       -0.124       29.599       33.695       19.653      876.073     1135.335      386.226        0.516        0.120       89.031       19.101        0.046      341.237       15.810      861.953
06/29/2014  04:34:00      -68.649      -46.422       -0.152       23.457       24.767       16.437      550.237      613.412      270.166        0.415        0.072       82.871       14.482        0.031      341.301       15.918      861.967
06/29/2014  04:35:00      -61.983      -24.325       -1.920       18.746       19.967       11.126      351.407      398.694      123.785        0.266        0.044       66.585        5.916        0.008      341.264       15.856      861.974
06/29/2014  04:36:00      -59.248      -12.643        0.269       20.639       16.878       10.444      425.975      284.880      109.070        0.224        0.041       60.582       10.733        0.031      341.170       15.696      861.965
06/29/2014  04:37:00      -45.294      -28.853        1.516       22.545       16.133       11.927      508.295      260.281      142.244        0.190        0.046       53.703       11.810        0.048      341.180       15.713      861.972
06/29/2014  04:38:00      -13.573      -30.884        7.453       22.920       12.889       12.310      525.332      166.115      151.532        0.102        0.042       33.735       14.204        0.177      341.172       15.701      861.983
06/29/2014  04:39:00       -1.523      -33.725        2.213        7.408        7.992        7.878       54.876       63.875       62.070        0.066        0.009       33.760        5.313        0.025      341.193       15.737      861.989
06/29/2014  04:40:00      -21.392      -23.143        5.984       14.853       10.227       10.492      220.606      104.593      110.081        0.073        0.022       31.515        7.637        0.059      341.197       15.743      861.988
06/29/2014  04:41:00      -37.615      -30.172       -4.721       11.076       10.578        8.593      122.671      111.895       73.832        0.133        0.015       48.220        2.744        0.003      341.169       15.693      861.980
06/29/2014  04:42:00      -73.403      -37.533       -5.414       24.836       11.777        7.648      616.850      138.701       58.490        0.382        0.041       82.442        6.846        0.007      341.077       15.538      861.972
06/29/2014  04:43:00     -123.709      -44.553       -5.515       18.206       13.365        9.012      331.460      178.611       81.219        0.896        0.030      131.487        7.709        0.003      341.031       15.461      861.980
06/29/2014  04:44:00     -121.102      -41.828       -4.798       21.100       15.851       10.226      445.214      251.263      104.574        0.862        0.040      128.122        9.018        0.005      341.013       15.431      861.988
06/29/2014  04:45:00     -104.908      -20.340       -4.149       30.135       17.022       16.196      908.132      289.750      262.294        0.645        0.073      106.861       16.248        0.023      340.873       15.194      861.993
06/29/2014  04:46:00      -99.226      -10.419       -2.609       35.331       26.873       20.815     1248.303      722.132      433.285        0.618        0.120       99.771       16.638        0.028      340.853       15.159      861.993
06/29/2014  04:47:00     -121.566      -14.530       -6.214       36.246       31.738       23.625     1313.738     1007.296      558.147        0.895        0.144      122.431       22.167        0.033      341.006       15.420      861.992
06/29/2014  04:48:00      -70.815      -35.824        7.666       37.368       30.042       19.866     1396.351      902.539      394.665        0.452        0.135       79.360       21.445        0.073      340.764       15.010      862.004
06/29/2014  04:49:00     -147.347      -31.525       -7.581       24.447       22.716       16.398      597.646      516.008      268.894        1.207        0.069      150.682       13.777        0.008      340.671       14.853      862.022
06/29/2014  04:50:00     -105.554      -63.237        1.496       33.515       22.541       17.132     1123.224      508.108      293.512        0.853        0.096      123.047       14.594        0.014      340.851       15.157      862.035
06/29/2014  04:51:00      -63.319      -49.310        4.315       41.978       30.517       18.786     1762.175      931.290      352.913        0.475        0.152       80.255       20.267        0.064      340.856       15.165      862.055
06/29/2014  04:52:00      -55.898      -65.714       10.251       54.529       47.786       25.824     2973.457     2283.468      666.878        0.673        0.296       86.272       29.778        0.119      340.822       15.108      862.066
06/29/2014  04:53:00      -88.474      -65.216       -5.369       23.058       26.656       16.221      531.649      710.530      263.132        0.681        0.075      109.913        8.863        0.007      340.886       15.216      862.075
06/29/2014  04:54:00     -101.017      -72.203       -6.670       26.250       35.899       22.876      689.048     1288.741      523.332        0.898        0.125      124.168       13.200        0.011      340.895       15.232      862.085
06/29/2014  04:55:00      -52.679      -35.278        8.251       45.159       26.136       20.904     2039.350      683.067      436.974        0.362        0.158       63.401       15.382        0.059      340.757       14.999      862.092
06/29/2014  04:56:00      -96.572      -47.445       -0.468       27.042       17.059       14.238      731.246      290.997      202.719        0.640        0.061      107.598       10.532        0.010      340.718       14.931      862.098
06/29/2014  04:57:00      -78.662      -30.396       -3.735       18.735       17.891       12.525      351.007      320.101      156.875        0.398        0.041       84.330       10.905        0.017      340.685       14.876      862.104
06/29/2014  04:58:00      -74.998      -18.412       -2.636       15.740       18.333        9.240      247.754      336.107       85.382        0.332        0.033       77.225        6.097        0.006      340.693       14.890      862.109
06/29/2014  04:59:00      -94.407      -29.100       -0.868       21.899       20.565       13.088      479.581      422.905      171.294        0.542        0.054       98.790       13.353        0.018      340.669       14.851      862.108
06/29/2014  05:00:00     -121.824      -49.901       -0.645       31.552       25.668       15.954      995.509      658.866      254.518        0.962        0.095      131.648       14.721        0.013      340.629       14.780      862.112
06/29/2014  05:01:00      -85.630      -61.792        5.293       49.800       34.497       24.428     2480.018     1190.012      596.710        0.772        0.213      105.597       22.819        0.047      340.662       14.838      862.106
06/29/2014  05:02:00      -64.249      -61.791        7.548       43.167       45.019       24.955     1863.379     2026.686      622.730        0.626        0.226       89.140       26.251        0.087      340.748       14.982      862.109
06/29/2014  05:03:00      -98.338      -73.663       -1.185       33.268       32.792       16.731     1106.759     1075.311      279.925        0.878        0.123      122.868       16.116        0.017      340.752       14.989      862.113
06/29/2014  05:04:00      -87.613      -50.808        6.355       31.348       22.710       14.794      982.694      515.722      218.874        0.601        0.086      101.279       11.594        0.013      340.729       14.951      862.115
06/29/2014  05:05:00      -96.661      -29.035       -4.745       25.616       16.444       13.002      656.200      270.417      169.063        0.565        0.055      100.928       11.964        0.014      340.674       14.859      862.123
06/29/2014  05:06:00      -92.861      -25.563       -0.615       30.567       15.942       14.064      934.322      254.150      197.794        0.533        0.069       96.315        7.217        0.006      340.629       14.782      862.139
06/29/2014  05:07:00     -111.695      -48.596        4.662       28.620       25.994       15.824      819.133      675.696      250.396        0.830        0.087      121.809       11.459        0.009      340.656       14.827      862.159
06/29/2014  05:08:00     -101.551      -36.175        0.212       25.072       23.511       17.327      628.627      552.748      300.236        0.655        0.074      107.801       13.887        0.017      340.579       14.697      862.167
06/29/2014  05:09:00      -96.076      -43.960       -4.427       30.595       18.386       17.006      936.049      338.046      289.192        0.637        0.078      105.656       13.923        0.017      340.615       14.759      862.167
06/29/2014  05:10:00     -103.385      -44.872       -1.878       22.186       22.371       15.677      492.235      500.442      245.769        0.697        0.062      112.703        8.155        0.005      340.625       14.775      862.170
06/29/2014  05:11:00      -88.424      -14.336       -4.098       25.628       19.163       15.690      656.815      367.213      246.186        0.466        0.064       89.578       10.714        0.014      340.563       14.670      862.179
06/29/2014  05:12:00      -78.416      -22.151       -1.003       18.683       16.275       12.222      349.056      264.871      149.374        0.370        0.038       81.484        7.574        0.009      340.592       14.720      862.176
06/29/2014  05:13:00      -66.916       -9.925       -0.409       21.758       18.121       14.186      473.425      328.365      201.241        0.279        0.050       67.648       12.580        0.035      340.531       14.615      862.165
06/29/2014  05:14:00      -83.936      -10.713       -1.827       30.546       20.117       16.060      933.075      404.681      257.918        0.438        0.080       84.617       16.489        0.038      340.493       14.552      862.161
06/29/2014  05:15:00      -95.164      -33.319        2.809       38.640       27.040       17.118     1493.071      731.147      293.038        0.635        0.126      100.828       21.100        0.044      340.522       14.600      862.168
06/29/2014  05:16:00     -146.212      -52.922       -3.838       30.167       19.957       15.778      910.044      398.279      248.955        1.288        0.078      155.495       14.561        0.009      340.539       14.630      862.188
06/29/2014  05:17:00     -150.053      -66.400       -0.928       38.377       31.665       20.844     1472.780     1002.680      434.480        1.492        0.145      164.088       16.567        0.010      340.497       14.558      862.196
06/29/2014  05:18:00     -163.960      -55.048       -2.589       26.541       30.023       19.940      704.443      901.359      397.584        1.596        0.100      172.954       14.805        0.007      340.474       14.519      862.197
06/29/2014  05:19:00     -144.483      -43.648       -4.955       59.930       41.762       26.696     3591.556     1744.094      712.669        1.443        0.302      150.932       29.162        0.037      340.478       14.526      862.187
06/29/2014  05:20:00     -121.755      -57.435       -4.385       35.834       26.167       22.371     1284.053      684.734      500.459        1.031        0.123      134.622       18.877        0.020      340.475       14.521      862.179
06/29/2014  05:21:00      -96.033      -44.235       -6.169       33.888       31.072       18.120     1148.405      965.481      328.332        0.683        0.122      105.731       16.500        0.024      340.461       14.497      862.177
06/29/2014  05:22:00     -101.563      -63.659       -4.387       23.971       20.033       13.981      574.632      401.331      195.463        0.778        0.059      119.864        9.061        0.006      340.501       14.566      862.179
06/29/2014  05:23:00     -118.902      -41.796       -5.752       13.118       13.813       11.588      172.073      190.798      134.291        0.821        0.025      126.034        4.883        0.002      340.508       14.577      862.188
06/29/2014  05:24:00     -107.893      -48.769       -4.526       14.452       13.579       11.524      208.871      184.387      132.800        0.728        0.026      118.404        4.786        0.002      340.478       14.526      862.191
06/29/2014  05:25:00     -103.725      -33.894       -4.527       13.697       13.888       10.458      187.619      192.872      109.366        0.621        0.024      109.122        5.935        0.003      340.453       14.484      862.191
06/29/2014  05:26:00      -89.932      -48.211      -10.005       24.948       18.556       10.684      622.419      344.330      114.156        0.580        0.054      102.040        8.995        0.008      340.542       14.635      862.200
06/29/2014  05:27:00      -96.210      -32.171       -3.986       17.639       19.706       13.158      311.143      388.345      173.126        0.559        0.044      101.446       10.328        0.010      340.551       14.649      862.203
06/29/2014  05:28:00     -110.107      -38.894      -11.273       11.268       10.184       10.914      126.959      103.718      119.115        0.706        0.017      116.775        6.131        0.003      340.547       14.644      862.211
06/29/2014  05:29:00     -108.618      -34.810       -9.245       24.496       18.132       11.308      600.066      328.755      127.864        0.708        0.053      114.060       14.245        0.016      340.460       14.495      862.216
06/29/2014  05:30:00     -110.542      -39.985       -8.141       17.323       12.941        9.196      300.095      167.464       84.573        0.722        0.028      117.552        3.392        0.001      340.451       14.481      862.229
06/29/2014  05:31:00      -98.264      -50.756       -7.328       16.886       15.340       10.971      285.140      235.306      120.364        0.646        0.032      110.598        7.706        0.005      340.458       14.491      862.238
06/29/2014  05:32:00     -104.008      -48.817       -5.209       11.384       10.979        8.341      129.603      120.540       69.579        0.677        0.016      114.895        6.079        0.003      340.390       14.379      862.244
06/29/2014  05:33:00     -104.549      -33.719       -8.600       21.611       15.297       12.257      467.037      234.002      150.225        0.650        0.043      109.852       14.159        0.017      340.333       14.281      862.247
06/29/2014  05:34:00     -115.260      -16.154      -12.784       22.861       15.615       15.132      522.646      243.824      228.990        0.735        0.050      116.387       14.357        0.015      340.330       14.276      862.262
06/29/2014  05:35:00     -105.804      -52.851       -2.151       14.082       12.306       10.495      198.310      151.438      110.148        0.723        0.023      118.270        6.072        0.003      340.262       14.161      862.277
06/29/2014  05:36:00     -100.066      -40.913       -5.766       14.945       12.692       11.798      223.346      161.085      139.188        0.612        0.026      108.107        5.468        0.003      340.286       14.200      862.287
06/29/2014  05:37:00      -99.529      -40.694      -10.750       18.130       20.666        9.889      328.689      427.079       97.784        0.627        0.043      107.527        6.960        0.004      340.249       14.139      862.296
06/29/2014  05:38:00     -111.953      -60.096      -18.057       14.694       22.334       12.490      215.921      498.792      156.003        0.867        0.044      127.063        9.044        0.005      340.221       14.093      862.297
06/29/2014  05:39:00     -100.661      -49.251       -5.974       19.643       18.453       13.907      385.841      340.504      193.404        0.676        0.046      112.064       12.102        0.012      340.153       13.979      862.291
06/29/2014  05:40:00      -88.140      -42.309       -3.989       28.360       27.270       18.670      804.302      743.634      348.576        0.574        0.095       97.768       20.994        0.046      340.191       14.041      862.291
06/29/2014  05:41:00      -70.321      -32.887        3.040       29.155       27.668       16.613      850.029      765.530      275.996        0.396        0.095       77.631       15.159        0.038      340.147       13.967      862.299
06/29/2014  05:42:00      -72.805      -17.427        3.317       28.774       19.660       13.800      827.915      386.500      190.432        0.351        0.070       74.861       13.801        0.034      340.163       13.994      862.308
06/29/2014  05:43:00      -58.187      -34.664        4.542       23.103       29.372       12.772      533.752      862.691      163.136        0.308        0.078       67.730       10.106        0.022      340.109       13.903      862.315
06/29/2014  05:44:00      -64.102        1.161        0.708       37.377       20.640       16.539     1397.006      426.009      273.540        0.310        0.105       64.112       19.492        0.092      340.137       13.949      862.315
06/29/2014  05:45:00      -67.674      -34.607        1.754       27.160       25.286       19.108      737.640      639.387      365.114        0.376        0.087       76.009       16.307        0.046      340.137       13.950      862.318
06/29/2014  05:46:00      -65.224      -42.587        6.110       30.345       24.506       18.221      920.809      600.527      332.009        0.398        0.093       77.896       13.558        0.030      340.170       14.004      862.322
06/29/2014  05:47:00      -76.558      -12.441       -1.166       30.537       20.641       18.119      932.502      426.069      328.304        0.385        0.084       77.562       17.389        0.050      340.207       14.069      862.335
06/29/2014  05:48:00      -58.347      -19.235        2.956       27.428       26.511       16.054      752.306      702.857      257.728        0.275        0.086       61.436       17.690        0.083      340.147       13.967      862.337
06/29/2014  05:49:00      -53.955      -16.936        0.528       37.158       20.775       15.420     1380.682      431.606      237.767        0.262        0.103       56.550       15.625        0.076      340.179       14.021      862.344
06/29/2014  05:50:00      -59.721      -23.664        8.094       30.252       24.813       14.167      915.181      615.671      200.711        0.296        0.087       64.238       11.048        0.030      340.213       14.078      862.353
06/29/2014  05:51:00      -51.533      -23.374        1.264       24.267       23.469       14.972      588.863      550.814      224.174        0.228        0.068       56.586        6.524        0.013      340.190       14.040      862.368
06/29/2014  05:52:00      -47.703      -13.551       -0.662       27.261       20.439       12.034      743.185      417.758      144.816        0.188        0.065       49.590       11.403        0.053      340.290       14.207      862.399
06/29/2014  05:53:00      -44.565       -4.845        3.455       29.672       20.789       16.731      880.415      432.179      279.939        0.181        0.080       44.827       17.185        0.147      340.239       14.122      862.419
06/29/2014  05:54:00        1.102        7.350       11.267       13.754       12.654       17.421      189.160      160.126      303.484        0.042        0.033        7.432        9.945        1.791      339.784       13.355      862.436
06/29/2014  05:55:00      -28.772      -12.737       -1.537       37.437       30.762       14.416     1401.549      946.318      207.829        0.177        0.128       31.465       17.238        0.300      339.943       13.624      862.442
06/29/2014  05:56:00      -92.658      -48.333       -8.588       19.439       19.132       14.364      377.886      366.019      206.323        0.597        0.048      104.506       12.466        0.014      340.078       13.850      862.452
06/29/2014  05:57:00     -137.704      -29.925      -18.934       19.925       18.090       11.524      397.005      327.266      132.806        1.054        0.043      140.918       10.153        0.005      340.170       14.005      862.461
06/29/2014  05:58:00      -83.278      -42.512        0.763       21.135       21.689       15.676      446.693      470.404      245.727        0.495        0.058       93.501       12.171        0.017      340.172       14.010      862.474
06/29/2014  05:59:00      -59.885      -60.138        6.788       47.392       37.350       21.229     2246.000     1395.040      450.676        0.567        0.205       84.870       20.600        0.059      340.242       14.126      862.487
06/29/2014  06:00:00     -116.454      -62.815       -5.853       27.090       31.853       19.997      733.885     1014.612      399.873        0.984        0.107      132.315       11.712        0.008      340.349       14.307      862.487
06/29/2014  06:01:00     -109.158      -60.248        0.856       30.412       33.709       17.794      924.877     1136.296      316.635        0.896        0.119      124.680       15.843        0.016      340.390       14.377      862.494
06/29/2014  06:02:00     -103.034      -77.495       -1.938       39.873       32.709       23.372     1589.846     1069.897      546.257        0.992        0.160      128.924       22.264        0.030      340.315       14.249      862.499
06/29/2014  06:03:00     -100.180      -85.823       -8.569       32.463       27.092       23.555     1053.877      733.986      554.842        0.991        0.117      131.915       20.684        0.025      340.257       14.152      862.507
06/29/2014  06:04:00      -78.293      -63.616       -0.052       38.188       28.780       20.404     1458.285      828.315      416.334        0.644        0.135      100.880       22.137        0.048      340.298       14.222      862.517
06/29/2014  06:05:00      -35.962      -45.045       16.377       41.068       27.190       21.542     1686.555      739.316      464.043        0.324        0.144       57.639       21.607        0.141      340.383       14.366      862.525
06/29/2014  06:06:00      -72.204      -42.005        1.512       52.495       31.112       23.024     2755.775      967.963      530.121        0.562        0.213       83.533       22.767        0.074      340.338       14.289      862.534
06/29/2014  06:07:00     -127.693      -60.103      -10.058       23.013       21.211       19.180      529.598      449.895      367.872        1.068        0.067      141.131       14.625        0.011      340.264       14.165      862.541
06/29/2014  06:08:00     -110.620      -31.251       -9.536       23.135       29.816       15.993      535.250      889.018      255.774        0.749        0.084      114.949       13.242        0.013      340.237       14.118      862.537
06/29/2014  06:09:00     -115.805      -43.453        0.888       28.507       21.691       18.934      812.677      470.499      358.505        0.847        0.082      123.689       17.607        0.020      340.272       14.177      862.534
06/29/2014  06:10:00     -117.552      -25.230       -2.651       43.958       31.345       25.057     1932.290      982.515      627.872        0.900        0.177      120.229       19.211        0.026      340.293       14.213      862.541
06/29/2014  06:11:00     -133.392      -39.337        6.850       47.565       34.640       23.385     2262.476     1199.918      546.868        1.170        0.200      139.072       22.288        0.026      340.298       14.223      862.558
06/29/2014  06:12:00     -121.408      -62.594       -0.526       39.749       27.083       21.384     1580.019      733.472      457.287        1.071        0.139      136.594       18.656        0.019      340.310       14.242      862.573
06/29/2014  06:13:00     -120.361      -68.930       -1.802       39.507       30.620       19.419     1560.770      937.583      377.091        1.106        0.144      138.702       16.296        0.014      340.386       14.371      862.580
06/29/2014  06:14:00      -99.684      -66.580       -3.623       42.537       24.331       20.623     1809.362      591.978      425.298        0.860        0.141      119.874       17.370        0.021      340.457       14.490      862.591
06/29/2014  06:15:00     -128.997      -50.819       -4.432       25.047       24.387       16.820      627.337      594.705      282.900        1.037        0.075      138.646       12.606        0.008      340.454       14.484      862.606
06/29/2014  06:16:00     -121.870      -53.346       -3.131       27.160       19.682       18.674      737.646      387.365      348.731        0.959        0.074      133.034       16.771        0.016      340.501       14.564      862.621
06/29/2014  06:17:00     -112.427      -17.411       -2.849       27.916       22.327       16.116      779.276      498.497      259.712        0.724        0.077      113.767       17.205        0.023      340.532       14.618      862.618
06/29/2014  06:18:00     -102.707      -28.240       -3.193       27.939       25.656       17.074      780.615      658.223      291.532        0.654        0.087      106.519       17.397        0.027      340.533       14.620      862.624
06/29/2014  06:19:00     -125.147      -52.670       -7.553       18.768       17.559       13.714      352.255      308.307      188.066        0.967        0.042      135.779        8.759        0.004      340.539       14.630      862.642
06/29/2014  06:20:00     -102.756      -46.088       -4.351       34.364       29.939       17.628     1180.917      896.323      310.751        0.754        0.119      112.618       12.071        0.011      340.555       14.656      862.667
06/29/2014  06:21:00      -99.944      -80.134       -2.382       36.839       27.232       20.145     1357.118      741.601      405.827        0.946        0.125      128.103       16.095        0.016      340.568       14.679      862.682
06/29/2014  06:22:00      -97.815      -80.668       -7.664       39.426       31.619       19.450     1554.391      999.738      378.298        0.953        0.147      126.787       11.935        0.009      340.596       14.725      862.707
06/29/2014  06:23:00      -57.684      -44.745        4.711       39.603       29.580       20.651     1568.423      874.970      426.470        0.411        0.143       73.004       23.523        0.104      340.727       14.947      862.730
06/29/2014  06:24:00      -56.945      -62.566       -1.041       40.120       28.919       24.351     1609.605      836.316      592.949        0.510        0.152       84.601       26.075        0.095      340.716       14.929      862.738
06/29/2014  06:25:00      -82.046      -89.517       -5.096       26.962       26.193       20.199      726.974      686.077      408.000        0.830        0.091      121.428       16.510        0.018      340.800       15.072      862.745
06/29/2014  06:26:00      -71.166      -62.071        4.197       40.275       32.970       20.645     1622.064     1087.018      426.218        0.603        0.157       94.432       23.274        0.061      340.860       15.173      862.764
06/29/2014  06:27:00      -80.678      -60.345       -0.078       44.139       39.447       20.775     1948.256     1556.070      431.611        0.704        0.197      100.749       22.347        0.049      340.878       15.201      862.760
06/29/2014  06:28:00      -81.778      -56.467        4.130       43.954       37.671       22.370     1931.938     1419.085      500.429        0.687        0.193       99.379       21.037        0.045      340.839       15.137      862.785
06/29/2014  06:29:00      -61.977      -45.086        7.760       45.026       28.716       21.638     2027.385      824.634      468.197        0.463        0.166       76.641       24.578        0.103      340.852       15.159      862.802
06/29/2014  06:30:00      -83.636      -35.236       -4.824       23.309       27.354       15.172      543.305      748.247      230.193        0.489        0.076       90.756       10.662        0.014      340.806       15.081      862.812
06/29/2014  06:31:00      -73.883      -41.984       -1.157       16.866       19.193       12.921      284.470      368.370      166.958        0.402        0.041       84.978       11.365        0.018      340.876       15.199      862.826
06/29/2014  06:32:00      -77.885       -7.901       -0.927       22.818       18.477       13.400      520.646      341.393      179.573        0.359        0.052       78.285       12.769        0.027      340.904       15.246      862.837
06/29/2014  06:33:00      -63.343      -21.806       -0.262       18.162       16.864       11.441      329.872      284.404      130.888        0.262        0.037       66.992        8.577        0.016      340.881       15.207      862.846
06/29/2014  06:34:00      -61.539      -31.092       10.361       42.346       33.120       20.968     1793.146     1096.937      439.652        0.409        0.166       68.947       25.091        0.132      340.948       15.320      862.865
06/29/2014  06:35:00      -59.325      -51.623        2.803       45.637       30.200       21.606     2082.774      912.012      466.836        0.483        0.173       78.641       23.098        0.086      341.018       15.440      862.869
06/29/2014  06:36:00      -63.571      -55.593        2.708       47.123       33.728       18.283     2220.614     1137.576      334.250        0.542        0.185       84.450       19.999        0.056      340.981       15.378      862.885
06/29/2014  06:37:00      -56.753      -53.341        2.612       37.904       25.661       19.040     1436.678      658.507      362.528        0.426        0.123       77.886       14.740        0.036      340.883       15.210      862.890
06/29/2014  06:38:00      -58.523      -44.669        2.544       36.306       23.320       15.587     1318.117      543.831      242.943        0.377        0.105       73.623       12.577        0.029      340.965       15.351      862.901
06/29/2014  06:39:00      -47.513      -33.193        5.486       25.824       25.365       18.719      666.863      643.369      350.416        0.252        0.083       57.959       16.552        0.082      341.054       15.502      862.898
06/29/2014  06:40:00      -64.797      -32.553        0.633       25.265       15.276       13.324      638.340      233.370      177.523        0.315        0.052       72.514       12.409        0.029      341.072       15.533      862.898
06/29/2014  06:41:00      -59.477      -37.855       -3.811       21.454       13.345       11.366      460.255      178.086      129.187        0.288        0.038       70.501       10.129        0.021      341.110       15.596      862.899
06/29/2014  06:42:00      -42.186      -37.955       -1.876       17.998       17.092        9.171      323.928      292.143       84.116        0.196        0.035       56.747        4.839        0.007      341.117       15.608      862.907
06/29/2014  06:43:00      -38.217      -31.484       -5.591       19.639       11.337       11.783      385.684      128.527      138.828        0.157        0.033       49.516        8.116        0.027      341.215       15.774      862.918
06/29/2014  06:44:00        5.584       -7.289       24.392       19.427       23.127       15.601      377.419      534.879      243.378        0.092        0.058        9.183       15.515        2.855      341.611       16.444      862.930
06/29/2014  06:45:00      -13.270      -32.809        4.712       18.731       20.972       11.744      350.867      439.804      137.923        0.110        0.046       35.391        7.262        0.042      341.215       15.772      862.945
06/29/2014  06:46:00      -22.913      -42.408        2.792       14.160       12.108       11.549      200.520      146.608      133.389        0.141        0.024       48.202        5.269        0.012      341.184       15.720      862.954
06/29/2014  06:47:00      -51.112      -58.240       -0.780       28.361       19.434       12.871      804.357      377.689      165.657        0.368        0.067       77.488       13.045        0.028      341.182       15.717      862.966
06/29/2014  06:48:00      -56.382      -56.161       -6.390       21.242       18.847        8.896      451.204      355.222       79.144        0.363        0.044       79.580       10.894        0.019      341.141       15.649      862.968
06/29/2014  06:49:00      -23.187      -32.883        8.775       17.103       14.714       12.636      292.502      216.503      159.662        0.118        0.033       40.236        9.060        0.051      341.260       15.850      862.969
06/29/2014  06:50:00      -17.936      -44.114        1.312       22.352       10.041       10.346      499.632      100.814      107.035        0.149        0.035       47.621       10.979        0.053      341.302       15.920      862.976
06/29/2014  06:51:00       -4.544      -19.039       13.148       16.889       16.479       14.954      285.233      271.545      223.629        0.067        0.039       19.574       13.808        0.498      341.597       16.419      862.979
06/29/2014  06:52:00        2.621       -4.760       26.540       18.056       16.554       14.142      326.033      274.026      199.997        0.077        0.040        5.434        8.556        2.479      341.488       16.236      862.992
06/29/2014  06:53:00      -37.653      -10.647        6.859       16.240       10.348        8.360      263.746      107.083       69.891        0.101        0.022       39.130        6.496        0.028      341.497       16.251      863.010
06/29/2014  06:54:00      -29.761      -26.191        9.886       31.660       22.843       16.452     1002.355      521.807      270.666        0.173        0.090       39.644       19.687        0.247      341.503       16.262      863.025
06/29/2014  06:55:00      -29.145      -71.444        5.783       27.264       36.926       16.819      743.299     1363.511      282.876        0.419        0.119       77.160       20.029        0.067      341.434       16.144      863.036
06/29/2014  06:56:00      -36.922     -100.905       -5.487       18.668       17.105       13.185      348.498      292.572      173.844        0.619        0.041      107.448        8.934        0.007      341.360       16.018      863.048
06/29/2014  06:57:00      -44.622      -72.206        3.615       33.302       26.445       23.157     1109.048      699.336      536.230        0.478        0.117       84.881       21.535        0.064      341.412       16.107      863.061
06/29/2014  06:58:00      -74.043      -74.339        2.613       29.586       30.896       18.785      875.311      954.567      352.878        0.660        0.109      104.922       18.592        0.031      341.452       16.174      863.058
06/29/2014  06:59:00      -86.638      -81.373       -6.805       36.349       37.272       21.158     1321.254     1389.184      447.660        0.867        0.158      118.860       19.249        0.026      341.461       16.190      863.066
06/29/2014  07:00:00      -79.060      -71.448       -1.867       30.501       31.682       23.558      930.285     1003.751      554.956        0.692        0.124      106.561       19.952        0.035      341.471       16.206      863.066
06/29/2014  07:01:00      -72.041      -72.865        5.478       50.511       37.890       30.573     2551.380     1435.662      934.713        0.772        0.246      102.465       35.582        0.121      341.597       16.419      863.062
06/29/2014  07:02:00      -92.261      -55.852       -2.236       33.134       45.149       24.252     1097.843     2038.454      588.172        0.768        0.186      107.850       18.570        0.030      341.500       16.255      863.067
06/29/2014  07:03:00      -91.830      -90.159       -1.083       46.326       39.609       24.470     2146.129     1568.878      598.804        1.044        0.216      128.691       24.834        0.037      341.512       16.275      863.066
06/29/2014  07:04:00      -80.962      -99.895        4.276       45.869       36.623       29.038     2104.006     1341.273      843.198        1.042        0.214      128.584       27.429        0.046      341.569       16.372      863.071
06/29/2014  07:05:00      -66.628      -57.517        9.526       34.388       26.192       23.282     1182.534      686.006      542.053        0.512        0.121       88.020       20.523        0.054      341.665       16.534      863.083
06/29/2014  07:06:00      -51.207      -55.362       10.418       41.275       25.119       23.403     1703.644      630.975      547.723        0.434        0.144       75.412       26.076        0.120      341.758       16.692      863.088
06/29/2014  07:07:00      -73.823      -73.980       -2.380       28.260       27.962       17.350      798.654      781.848      301.028        0.640        0.094      104.512       11.945        0.013      341.717       16.624      863.096
06/29/2014  07:08:00      -76.415      -79.576       -0.455       27.133       24.925       22.233      736.203      621.259      494.305        0.701        0.093      110.324       13.403        0.015      341.745       16.672      863.106
06/29/2014  07:09:00      -64.978      -61.583       -3.938       36.103       28.391       19.807     1303.461      806.063      392.304        0.527        0.125       89.524       19.641        0.048      341.818       16.795      863.114
06/29/2014  07:10:00      -75.932      -95.254       -3.777       32.470       28.255       19.255     1054.291      798.370      370.757        0.854        0.111      121.815       19.519        0.026      341.768       16.711      863.125
06/29/2014  07:11:00      -68.474      -77.625        1.333       33.733       34.667       21.928     1137.884     1201.806      480.827        0.677        0.141      103.510       22.432        0.047      341.824       16.804      863.136
06/29/2014  07:12:00      -46.809      -62.657        6.823       34.250       23.235       18.851     1173.069      539.856      355.378        0.412        0.103       78.211       15.330        0.038      341.900       16.934      863.144
06/29/2014  07:13:00      -51.169      -67.462       -1.693       33.956       30.489       24.527     1153.006      929.562      601.552        0.493        0.134       84.672       19.344        0.052      341.958       17.033      863.164
06/29/2014  07:14:00      -47.728      -46.455       17.060       28.100       34.213       22.632      789.634     1170.523      512.230        0.360        0.124       66.603       18.327        0.076      341.945       17.011      863.170
06/29/2014  07:15:00      -78.788      -71.300       -0.458       38.828       36.703       23.008     1507.607     1347.136      529.349        0.734        0.169      106.260       18.427        0.030      341.894       16.924      863.182
06/29/2014  07:16:00      -67.066      -81.374        1.754       28.023       36.534       23.592      785.279     1334.720      556.595        0.690        0.134      105.450       21.226        0.041      341.930       16.986      863.181
06/29/2014  07:17:00      -59.828      -60.570       -2.031       46.966       37.560       20.865     2205.842     1410.767      435.351        0.565        0.203       85.136       20.509        0.058      342.058       17.202      863.178
06/29/2014  07:18:00      -20.471      -42.476        8.931       24.332       32.506       19.547      592.063     1056.665      382.100        0.217        0.102       47.152       16.839        0.128      342.118       17.304      863.183
06/29/2014  07:19:00      -56.052      -64.444       -1.040       27.854       28.671       15.444      775.866      822.034      238.502        0.457        0.092       85.410        3.782        0.002      342.062       17.210      863.181
06/29/2014  07:20:00      -30.779      -63.575        9.328       36.815       26.251       19.281     1355.342      689.100      371.771        0.375        0.121       70.633       17.810        0.064      342.172       17.395      863.188
06/29/2014  07:21:00      -74.466      -71.818       -2.660       30.230       32.594       21.381      913.832     1062.378      457.141        0.657        0.122      103.455       18.005        0.030      342.089       17.252      863.202
06/29/2014  07:22:00      -50.488      -69.039        2.375       48.110       35.704       21.189     2314.530     1274.747      448.980        0.568        0.202       85.530       14.911        0.030      342.200       17.442      863.213
06/29/2014  07:23:00      -43.387      -65.318       -1.777       30.539       43.777       20.609      932.622     1916.430      424.723        0.471        0.164       78.415       16.114        0.042      342.176       17.404      863.224
06/29/2014  07:24:00      -34.307      -77.277        0.709       27.417       26.132       25.299      751.714      682.899      640.048        0.461        0.104       84.550       16.621        0.039      342.116       17.300      863.233
06/29/2014  07:25:00      -38.269      -71.848        4.661       40.048       37.905       20.125     1603.857     1436.753      405.027        0.505        0.172       81.404       20.027        0.061      342.156       17.369      863.242
06/29/2014  07:26:00      -35.523      -59.276        3.742       33.493       36.536       20.255     1121.791     1334.892      410.270        0.383        0.143       69.105       17.129        0.061      342.293       17.602      863.255
06/29/2014  07:27:00      -68.887      -80.469       -3.809       33.822       30.503       19.386     1143.944      930.444      375.810        0.684        0.123      105.927       11.724        0.012      342.153       17.363      863.259
06/29/2014  07:28:00      -56.934      -68.246       -3.198       50.976       42.133       25.943     2598.520     1775.205      673.036        0.648        0.252       88.877       22.365        0.063      342.192       17.429      863.261
06/29/2014  07:29:00      -51.037      -97.778       -6.889       58.001       41.704       31.977     3364.109     1739.242     1022.540        0.917        0.306      110.296       28.891        0.069      342.218       17.475      863.258
06/29/2014  07:30:00      -32.831      -94.719       -2.591       43.879       61.694       27.115     1925.350     3806.134      735.201        0.826        0.323      100.248       24.631        0.060      342.147       17.354      863.257
06/29/2014  07:31:00      -50.980     -100.748        3.655       49.133       62.329       32.143     2414.003     3884.934     1033.161        1.005        0.367      112.912       31.864        0.080      342.162       17.379      863.262
06/29/2014  07:32:00      -57.676      -38.678       10.021       44.681       36.310       27.169     1996.389     1318.424      738.176        0.449        0.203       69.445       24.892        0.128      342.284       17.586      863.257
06/29/2014  07:33:00      -66.729      -73.358        7.070       38.181       45.654       27.547     1457.783     2084.289      758.834        0.709        0.215       99.167       23.797        0.058      342.253       17.532      863.267
06/29/2014  07:34:00      -52.787     -129.038        3.264       48.017       82.639       29.999     2305.602     6829.252      899.956        1.474        0.502      139.418       39.424        0.080      342.183       17.414      863.274
06/29/2014  07:35:00      -58.251     -118.071       12.063       47.708       68.419       29.633     2276.031     4681.104      878.142        1.266        0.392      131.658       29.116        0.049      342.216       17.471      863.285
06/29/2014  07:36:00      -78.147     -121.878        8.332       48.679       51.918       33.194     2369.597     2695.497     1101.832        1.360        0.308      144.780       29.570        0.042      342.157       17.370      863.306
06/29/2014  07:37:00      -81.785     -137.097       -2.617       45.474       61.505       29.675     2067.902     3782.841      880.592        1.611        0.337      159.638       30.357        0.036      342.132       17.328      863.320
06/29/2014  07:38:00      -50.644     -104.565       -3.749       48.108       56.351       24.291     2314.350     3175.381      590.048        0.980        0.304      116.184       17.316        0.022      342.179       17.408      863.310
06/29/2014  07:39:00     -124.023     -153.834       -3.523       53.508       52.463       32.836     2863.117     2752.346     1078.196        2.288        0.335      197.602       28.643        0.021      342.135       17.330      863.315
06/29/2014  07:40:00     -113.917     -128.169       -3.704       41.239       55.109       22.406     1700.652     3036.975      502.019        1.733        0.262      171.477       19.078        0.012      342.164       17.382      863.307
06/29/2014  07:41:00     -132.647     -110.927       -1.317       46.414       49.859       31.332     2154.293     2485.890      981.722        1.776        0.281      172.916       31.025        0.032      342.195       17.434      863.307
06/29/2014  07:42:00     -141.176      -85.560        4.735       74.322       58.440       33.674     5523.773     3415.272     1133.911        1.867        0.504      165.079       18.046        0.012      342.263       17.548      863.304
06/29/2014  07:43:00     -121.888     -116.981        1.609       66.363       59.401       42.225     4404.060     3528.455     1782.912        1.913        0.486      168.941       34.520        0.042      342.217       17.471      863.316
06/29/2014  07:44:00     -143.969     -163.163      -11.753       40.078       75.003       25.707     1606.281     5625.398      660.865        2.769        0.395      217.599       21.293        0.010      342.158       17.369      863.324
06/29/2014  07:45:00     -137.988     -131.192       -0.573       57.707       63.046       29.646     3330.068     3974.795      878.899        2.222        0.409      190.399       27.227        0.020      342.224       17.480      863.332
06/29/2014  07:46:00     -122.208     -114.470      -12.514       48.262       48.949       26.865     2329.255     2395.980      721.742        1.682        0.272      167.446       28.793        0.030      342.305       17.621      863.339
06/29/2014  07:47:00      -91.527      -79.176        3.549       58.829       39.087       35.790     3460.829     1527.798     1280.949        1.046        0.313      121.021       35.645        0.087      342.382       17.751      863.356
06/29/2014  07:48:00      -72.831      -76.088        9.726       54.788       35.461       33.713     3001.769     1257.463     1136.570        0.829        0.270      105.327       31.800        0.091      342.501       17.955      863.365
06/29/2014  07:49:00      -94.008      -73.552       -2.936       41.573       47.534       23.227     1728.345     2259.464      539.490        0.939        0.226      119.362       19.632        0.027      342.498       17.949      863.384
06/29/2014  07:50:00      -29.315     -107.456        6.394       40.420       37.732       22.905     1633.800     1423.686      524.624        0.801        0.179      111.382       20.310        0.033      342.620       18.157      863.388
06/29/2014  07:51:00      -96.007      -78.906       -7.995       39.165       34.044       25.397     1533.890     1159.017      644.992        0.942        0.167      124.271       21.013        0.029      342.591       18.110      863.398
06/29/2014  07:52:00      -70.025      -87.377        5.854       70.431       37.034       24.380     4960.514     1371.548      594.407        0.975        0.346      111.975       25.196        0.051      342.633       18.179      863.395
06/29/2014  07:53:00      -61.650      -83.157        1.527       43.797       46.335       27.219     1918.202     2146.905      740.871        0.776        0.240      103.517       20.968        0.041      342.730       18.344      863.402
06/29/2014  07:54:00      -39.905      -90.283        2.301       42.175       41.637       28.981     1778.758     1733.633      839.900        0.705        0.218       98.709       16.465        0.028      342.727       18.337      863.399
06/29/2014  07:55:00      -50.817      -76.520       -2.004       41.105       39.308       26.294     1689.615     1545.114      691.370        0.618        0.196       91.857       22.442        0.060      342.701       18.296      863.417
06/29/2014  07:56:00      -54.440      -79.571        2.706       34.582       47.584       17.141     1195.930     2264.271      293.810        0.653        0.188       96.412       18.055        0.035      342.798       18.459      863.413
06/29/2014  07:57:00      -68.528     -151.316        3.156       29.684       49.812       18.567      881.135     2481.272      344.734        1.565        0.185      166.110       17.926        0.012      342.728       18.339      863.419
06/29/2014  07:58:00      -75.244     -147.600       -1.880       35.179       35.843       17.317     1237.591     1284.691      299.877        1.514        0.141      165.673       10.808        0.004      342.783       18.433      863.427
06/29/2014  07:59:00      -55.125     -119.650        9.992       39.370       54.606       23.704     1549.978     2981.792      561.871        1.127        0.255      131.738       18.059        0.019      342.840       18.531      863.436
06/29/2014  08:00:00      -69.733     -143.030        1.266       33.193       35.526       21.701     1101.802     1262.074      470.952        1.408        0.142      159.124        9.150        0.003      342.813       18.488      863.448
06/29/2014  08:01:00      -65.310     -115.624        0.410       41.774       62.052       26.742     1745.072     3850.414      715.114        1.197        0.316      132.795       28.572        0.046      342.915       18.658      863.442
06/29/2014  08:02:00      -49.508      -94.380       -2.399       34.381       52.321       22.666     1182.080     2737.449      513.757        0.790        0.222      106.577       16.425        0.024      342.898       18.629      863.446
06/29/2014  08:03:00      -81.188      -80.779       -1.884       52.125       23.573       25.827     2716.991      555.687      667.030        0.853        0.197      114.529       24.583        0.046      342.946       18.711      863.430
06/29/2014  08:04:00      -95.570      -97.394       -7.761       34.049       42.437       28.356     1159.333     1800.873      804.044        1.122        0.188      136.452       10.133        0.006      342.946       18.711      863.429
06/29/2014  08:05:00      -32.003      -56.045        7.243       37.537       37.238       26.442     1408.997     1386.706      699.203        0.386        0.175       64.539       20.041        0.096      343.160       19.077      863.417
06/29/2014  08:06:00      -72.470      -63.066        4.395       34.072       29.819       21.935     1160.878      889.162      481.134        0.589        0.127       96.069       17.237        0.032      343.091       18.959      863.423
06/29/2014  08:07:00      -56.111      -66.843        1.494       41.213       38.237       22.143     1698.486     1462.100      490.305        0.563        0.183       87.273       19.361        0.049      343.050       18.888      863.430
06/29/2014  08:08:00      -97.989      -90.440       -6.770       40.571       62.945       25.652     1645.994     3962.124      658.048        1.205        0.313      133.347       26.863        0.041      343.167       19.088      863.436
06/29/2014  08:09:00      -56.451     -109.856       -0.720       30.946       50.822       24.057      957.653     2582.896      578.736        0.969        0.206      123.511       12.430        0.010      343.062       18.908      863.446
06/29/2014  08:10:00      -78.934     -122.303       -2.209       33.043       50.561       19.677     1091.867     2556.391      387.191        1.261        0.202      145.563       10.675        0.005      343.081       18.941      863.451
06/29/2014  08:11:00      -76.287      -87.706        2.200       50.498       56.767       32.047     2550.025     3222.492     1027.000        1.016        0.340      116.241       28.833        0.062      343.191       19.127      863.438
06/29/2014  08:12:00      -58.703      -41.452       13.552       42.228       39.451       21.730     1783.223     1556.398      472.182        0.458        0.191       71.863       17.171        0.057      343.405       19.493      863.433
06/29/2014  08:13:00      -19.259      -16.417        2.845       38.454       54.682       32.257     1478.681     2990.124     1040.489        0.308        0.275       25.306       27.702        1.198      343.479       19.620      863.412
06/29/2014  08:14:00      -66.545      -60.761       -2.241       53.786       38.582       20.422     2892.931     1488.589      417.068        0.646        0.240       90.111       15.425        0.029      343.223       19.183      863.411
06/29/2014  08:15:00      -61.715      -35.534        7.075       44.422       37.280       26.486     1973.272     1389.785      701.489        0.459        0.203       71.214       19.979        0.079      343.459       19.587      863.400
06/29/2014  08:16:00      -64.817      -35.304       -3.539       55.924       57.092       39.723     3127.535     3259.501     1577.883        0.671        0.398       73.807       46.462        0.396      343.487       19.634      863.402
06/29/2014  08:17:00      -58.696      -49.987       -2.174       42.098       37.439       25.567     1772.224     1401.666      653.673        0.489        0.191       77.097       21.691        0.079      343.533       19.712      863.399
06/29/2014  08:18:00      -48.513      -16.033       16.489       49.883       39.410       24.906     2488.300     1553.160      620.285        0.377        0.233       51.093       27.348        0.287      343.632       19.881      863.398
06/29/2014  08:19:00      -38.837      -75.990        2.019       59.325       50.603       21.587     3519.470     2560.645      465.990        0.692        0.327       85.339       17.582        0.042      343.404       19.493      863.396
06/29/2014  08:20:00      -63.423     -112.490       -3.530       42.160       50.466       22.352     1777.493     2546.845      499.600        1.076        0.241      129.138       22.451        0.030      343.341       19.384      863.392
06/29/2014  08:21:00      -56.371     -100.781        5.095       35.711       33.432       24.708     1275.302     1117.718      610.506        0.818        0.150      115.475       21.748        0.035      343.393       19.473      863.380
06/29/2014  08:22:00      -57.024      -12.656        6.350       27.709       33.769       18.391      767.769     1140.315      338.240        0.285        0.112       58.412       16.454        0.079      343.696       19.991      863.372
06/29/2014  08:23:00      -27.523      -21.421      -14.163       40.084       29.160       33.589     1606.733      850.309     1128.220        0.250        0.179       34.876       20.025        0.330      343.680       19.963      863.361
06/29/2014  08:24:00      -43.515      -13.579        1.107       37.106       23.561       18.266     1376.849      555.126      333.635        0.217        0.113       45.585       18.668        0.168      343.871       20.290      863.358
06/29/2014  08:25:00      -83.827      -26.846       12.342       45.255       37.552       25.964     2047.970     1410.127      674.116        0.602        0.207       88.021       28.174        0.102      343.699       19.995      863.350
06/29/2014  08:26:00      -56.388      -17.223        7.514       52.927       42.260       25.962     2801.268     1785.938      674.028        0.440        0.263       58.960       27.579        0.219      343.943       20.412      863.340
06/29/2014  08:27:00      -69.028       -3.986      -10.395       59.842       36.011       28.113     3581.075     1296.820      790.314        0.528        0.283       69.143       13.663        0.039      343.688       19.976      863.327
06/29/2014  08:28:00      -36.634      -57.557       15.540       52.352       54.097       32.233     2740.701     2926.452     1038.970        0.580        0.335       68.226       39.283        0.332      343.918       20.369      863.321
06/29/2014  08:29:00      -57.088      -35.817        0.798       45.111       55.601       25.227     2035.030     3091.433      636.406        0.515        0.288       67.394       33.348        0.245      343.995       20.501      863.295
06/29/2014  08:30:00      -45.843      -13.263       -0.537       32.225       27.783       19.252     1038.437      771.878      370.625        0.223        0.109       47.723       14.085        0.087      343.826       20.211      863.280
06/29/2014  08:31:00      -51.922       -6.390        8.124       34.057       41.837       22.502     1159.873     1750.346      506.344        0.311        0.171       52.314       10.157        0.038      344.072       20.632      863.273
06/29/2014  08:32:00      -10.296      -20.830       -1.175       34.519       27.889       24.386     1191.572      777.803      594.698        0.155        0.128       23.236       20.034        0.743      344.060       20.612      863.262
06/29/2014  08:33:00      -28.965       11.137       16.524       23.628       23.395       21.438      558.286      547.349      459.571        0.140        0.078       31.033       17.775        0.328      344.410       21.211      863.258
06/29/2014  08:34:00      -19.507       14.396       10.554       53.253       32.104       28.578     2835.891     1030.644      816.676        0.269        0.234       24.244       20.240        0.697      344.376       21.152      863.261
06/29/2014  08:35:00      -19.975       -4.305       44.623       23.956       41.760       19.682      573.868     1743.863      387.365        0.256        0.135       20.434        9.342        0.209      344.290       21.005      863.250
06/29/2014  08:36:00      -43.931      -15.623       -6.160       19.887       35.755       18.010      395.489     1278.387      324.357        0.210        0.100       46.626       10.962        0.055      343.806       20.177      863.243
06/29/2014  08:37:00      -28.196      -12.821        8.028       32.253       28.832       20.924     1040.257      831.292      437.833        0.167        0.115       30.974       16.806        0.294      344.179       20.815      863.252
06/29/2014  08:38:00        2.616       14.907       55.344       29.333       56.592       23.552      860.439     3202.650      554.709        0.395        0.231       15.135       23.367        2.384      344.345       21.099      863.243
06/29/2014  08:39:00        8.986        4.797       49.521       36.520       51.820       35.692     1333.738     2685.261     1273.891        0.392        0.265       10.186       31.523        9.577      344.385       21.167      863.251
06/29/2014  08:40:00        1.465       28.345       65.648       30.268       55.804       29.853      916.140     3114.040      891.176        0.502        0.246       28.383       27.892        0.966      344.152       20.768      863.259
06/29/2014  08:41:00      -13.650        0.049       43.715       26.063       22.938       23.003      679.294      526.144      529.138        0.192        0.087       13.650       14.367        1.108      344.702       21.708      863.264
06/29/2014  08:42:00      -14.660      -20.359       -4.060       27.877       31.206       24.503      777.149      973.803      600.408        0.150        0.118       25.088        8.086        0.104      344.255       20.944      863.278
06/29/2014  08:43:00       10.662      -38.440       16.458       17.621       35.516       28.944      310.482     1261.363      837.754        0.214        0.120       39.891       15.130        0.144      344.629       21.585      863.294
06/29/2014  08:44:00       -3.655       -9.365       15.160       17.211       16.609       23.979      296.225      275.850      575.016        0.074        0.057       10.053       15.931        2.511      345.055       22.313      863.307
06/29/2014  08:45:00      -48.950      -28.649        0.601       42.609       27.698       16.614     1815.526      767.188      276.010        0.304        0.143       56.717       14.791        0.068      344.357       21.118      863.318
06/29/2014  08:46:00      -35.605      -29.833        5.492       51.679       37.127       27.931     2670.719     1378.414      780.168        0.351        0.241       46.452       22.365        0.232      344.349       21.106      863.330
06/29/2014  08:47:00      -21.849      -15.505       19.292       44.225       34.617       27.642     1955.854     1198.302      764.088        0.250        0.196       26.791       26.605        0.986      344.663       21.643      863.333
06/29/2014  08:48:00       -5.517       -2.328       16.365       30.784       42.966       34.347      947.650     1846.080     1179.694        0.214        0.199        5.988       26.319       19.319      344.706       21.716      863.344
06/29/2014  08:49:00      -45.266      -24.296       12.617       46.585       40.576       25.029     2170.150     1646.451      626.467        0.362        0.222       51.374       20.560        0.160      344.384       21.165      863.345
06/29/2014  08:50:00     -101.373      -42.025        2.103       47.113       34.508       23.930     2219.653     1190.792      572.643        0.801        0.199      109.739       20.771        0.036      344.205       20.859      863.346
06/29/2014  08:51:00        0.749       -4.136       32.154       19.774       20.368       20.008      391.012      414.861      400.302        0.113        0.060        4.203       13.800       10.780      345.396       22.898      863.340
06/29/2014  08:52:00       -6.287        7.389       22.340       22.350       25.521       26.138      499.534      651.334      683.190        0.121        0.092        9.701       12.237        1.591      344.778       21.840      863.337
06/29/2014  08:53:00      -36.396        5.606       34.938       23.179       29.502       21.826      537.283      870.385      476.395        0.223        0.094       36.825       21.834        0.352      344.738       21.771      863.321
06/29/2014  08:54:00      -41.031      -30.771       24.733       41.768       43.648       31.122     1744.604     1905.121      968.575        0.393        0.231       51.287       20.829        0.165      344.772       21.829      863.293
06/29/2014  08:55:00        2.592      -25.978       21.418       58.284       57.654       47.457     3397.040     3323.982     2252.206        0.506        0.449       26.107       32.302        1.531      344.945       22.125      863.285
06/29/2014  08:56:00        2.794       14.670       60.111       25.169       32.713       22.092      633.471     1070.119      488.054        0.301        0.110       14.934       17.249        1.334      345.044       22.295      863.283
06/29/2014  08:57:00       18.910      -30.866       31.773       39.817       46.534       45.457     1585.373     2165.376     2066.331        0.407        0.291       36.198       29.644        0.671      344.642       21.606      863.278
06/29/2014  08:58:00       15.686       24.584       61.749       36.102       58.887       36.745     1303.322     3467.707     1350.207        0.539        0.306       29.162       34.986        1.439      344.579       21.499      863.288
06/29/2014  08:59:00       37.714      -10.080       35.961       41.505       40.342       37.424     1722.684     1627.480     1400.586        0.378        0.238       39.038       24.150        0.383      344.671       21.655      863.281
06/29/2014  09:00:00      100.062      -66.190       -4.871       48.726       44.236       37.513     2374.235     1956.856     1407.208        1.008        0.287      119.973       29.357        0.060      344.006       20.520      863.281
06/29/2014  09:01:00       44.409      -70.604        7.397       56.547       73.314       47.153     3197.615     5374.933     2223.363        0.890        0.540       83.409       43.632        0.274      344.618       21.564      863.287
06/29/2014  09:02:00        0.315       52.888       71.853       25.435       46.564       30.981      646.933     2168.244      959.847        0.587        0.189       52.889       28.888        0.298      344.749       21.790      863.282
06/29/2014  09:03:00      -14.833      -14.119       38.345       20.774       23.768       14.337      431.568      564.922      205.553        0.155        0.060       20.478        9.142        0.199      344.861       21.981      863.281
06/29/2014  09:04:00      -39.456       -5.283        2.950       31.010       28.557       18.343      961.594      815.504      336.473        0.185        0.106       39.808       11.926        0.090      344.534       21.421      863.282
06/29/2014  09:05:00      -26.710      -28.258        0.897       26.667       18.712       22.171      711.144      350.123      491.555        0.153        0.078       38.883       14.720        0.143      344.746       21.784      863.275
06/29/2014  09:06:00      -27.081       -3.001        3.767       34.932       34.026       29.525     1220.221     1157.785      871.731        0.200        0.162       27.247       19.289        0.501      344.949       22.132      863.265
06/29/2014  09:07:00      -27.549      -21.193        3.956       36.196       30.631       27.610     1310.151      938.267      762.296        0.212        0.151       34.758        9.573        0.076      344.929       22.098      863.241
06/29/2014  09:08:00       -6.235      -26.787        9.594       30.261       25.541       23.060      915.699      652.353      531.758        0.147        0.105       27.503       16.838        0.375      344.912       22.069      863.241
06/29/2014  09:09:00      -18.375      -64.082       -0.200       44.512       45.356       30.944     1981.316     2057.181      957.537        0.472        0.250       66.664       28.191        0.179      344.808       21.889      863.230
06/29/2014  09:10:00      -22.197        5.164       28.092       29.970       31.111       20.638      898.198      967.875      425.922        0.180        0.115       22.790       17.870        0.615      345.246       22.641      863.233
06/29/2014  09:11:00      -17.786       -9.328       25.293       26.239       25.369       22.297      688.465      643.597      497.165        0.144        0.091       20.084       19.602        0.953      345.238       22.628      863.225
06/29/2014  09:12:00        5.429       28.445       24.991       50.238       26.840       24.025     2523.872      720.406      577.191        0.264        0.191       28.959       16.737        0.334      345.012       22.240      863.221
06/29/2014  09:13:00       28.043       -1.197       16.876       37.568       27.527       24.318     1411.338      757.756      591.365        0.192        0.138       28.069       18.256        0.423      345.013       22.241      863.227
06/29/2014  09:14:00       40.823       -5.345       43.488       54.096       54.223       30.145     2926.382     2940.100      908.729        0.518        0.339       41.171       33.648        0.668      344.791       21.863      863.215
06/29/2014  09:15:00       16.784        4.128       61.158       36.136       61.596       34.351     1305.841     3794.079     1180.003        0.516        0.314       17.284       29.272        2.868      344.908       22.062      863.219
06/29/2014  09:16:00       28.605       12.708       31.955       45.288       27.223       27.879     2050.988      741.113      777.230        0.278        0.178       31.301       30.294        0.937      345.043       22.294      863.235
06/29/2014  09:17:00       36.912      -57.454      -15.794       35.274       25.403       23.060     1244.287      645.323      531.767        0.367        0.121       68.290       18.378        0.072      344.090       20.663      863.247
06/29/2014  09:18:00       15.297       -3.973       13.152       32.813       40.189       26.270     1076.705     1615.128      690.105        0.190        0.169       15.804       25.093        2.521      344.462       21.300      863.237
06/29/2014  09:19:00      -26.094       21.224       19.435       19.486       16.311       21.134      379.694      266.048      446.665        0.130        0.055       33.636       16.172        0.231      345.223       22.602      863.244
06/29/2014  09:20:00       22.880       10.206       35.713       31.727       26.425       26.474     1006.621      698.296      700.877        0.215        0.120       25.053       17.910        0.511      345.063       22.327      863.252
06/29/2014  09:21:00       28.970      -32.793       16.545       36.043       39.077       33.875     1299.081     1527.030     1147.546        0.308        0.199       43.757       25.659        0.344      344.667       21.650      863.253
06/29/2014  09:22:00       13.167       30.280       67.529       32.606       46.857       19.248     1063.169     2195.568      370.496        0.464        0.181       33.019       18.147        0.302      345.011       22.237      863.246
06/29/2014  09:23:00       19.712       -6.816       22.177       26.482       30.571       25.944      701.271      934.557      673.114        0.162        0.115       20.857        7.430        0.127      344.736       21.767      863.257
06/29/2014  09:24:00        7.076        4.723        3.800       25.545       36.724       23.025      652.546     1348.643      530.173        0.131        0.127        8.508       10.881        1.636      344.816       21.903      863.251
06/29/2014  09:25:00        8.092       -8.075       -3.005       28.900       21.925       23.615      835.198      480.690      557.649        0.101        0.094       11.432       19.389        2.876      344.927       22.095      863.234
06/29/2014  09:26:00       -5.883        3.287       33.472       13.605       14.504       17.432      185.089      210.357      303.871        0.093        0.035        6.739       11.044        2.686      346.180       24.244      863.218
06/29/2014  09:27:00       42.237       28.830        4.908       28.067       17.749       24.875      787.765      315.031      618.749        0.218        0.086       51.138       12.594        0.061      344.755       21.799      863.209
06/29/2014  09:28:00       81.135       33.360       19.392       51.905       39.689       32.667     2694.165     1575.178     1067.154        0.670        0.267       87.726       22.446        0.065      345.383       22.876      863.189
06/29/2014  09:29:00        7.596       22.358       38.074       46.045       44.433       24.288     2120.098     1974.268      589.908        0.334        0.234       23.613       14.389        0.371      345.901       23.763      863.183
06/29/2014  09:30:00       89.114       68.299       15.511       47.575       38.538       35.928     2263.398     1485.168     1290.842        0.894        0.252      112.277       15.963        0.020      345.121       22.426      863.185
06/29/2014  09:31:00       64.151       59.425       46.840       37.406       25.195       39.482     1399.176      634.769     1558.819        0.672        0.180       87.445       28.775        0.108      344.911       22.066      863.180
06/29/2014  09:32:00        9.987       40.845       64.058       36.912       33.306       30.330     1362.494     1109.282      919.912        0.463        0.170       42.048       27.842        0.438      345.429       22.955      863.174
06/29/2014  09:33:00       81.411      -59.675        0.197       52.410       41.456       32.581     2746.788     1718.584     1061.506        0.786        0.276      100.940       24.856        0.061      344.486       21.339      863.163
06/29/2014  09:34:00       34.923        1.881       27.026       35.346       54.506       42.253     1249.343     2970.896     1785.332        0.398        0.300       34.973       39.401        1.269      345.058       22.318      863.152
06/29/2014  09:35:00      -41.953      -43.635        2.615       29.552       30.263       30.379      873.324      915.865      922.880        0.319        0.136       60.531       21.422        0.125      345.035       22.280      863.134
06/29/2014  09:36:00       23.799        2.129       40.499       34.875       26.991       23.577     1216.272      728.535      555.891        0.236        0.125       23.894       17.647        0.545      345.553       23.168      863.133
06/29/2014  09:37:00       97.510       33.205       20.311       64.824       45.128       37.490     4202.183     2036.543     1405.537        0.933        0.382      103.008       12.565        0.015      344.961       22.151      863.129
06/29/2014  09:38:00      163.638      120.479       19.519       43.393       33.251       33.250     1882.963     1105.609     1105.550        2.288        0.205      203.206       22.457        0.012      345.030       22.268      863.129
06/29/2014  09:39:00      163.203       76.691        7.449       51.379       49.944       39.348     2639.831     2494.377     1548.253        1.963        0.334      180.324       24.075        0.018      345.116       22.415      863.121
06/29/2014  09:40:00       70.524       62.655       -1.073       40.892       39.813       33.938     1672.140     1585.037     1151.806        0.665        0.220       94.336       20.881        0.049      345.329       22.782      863.125
06/29/2014  09:41:00       74.873       54.276        3.068       36.166       37.474       23.704     1308.011     1404.288      561.873        0.592        0.164       92.476       15.472        0.028      345.320       22.766      863.103
06/29/2014  09:42:00       43.327       72.548       -5.115       44.745       42.981       31.719     2002.072     1847.356     1006.098        0.601        0.243       84.501       29.803        0.124      345.480       23.040      863.107
06/29/2014  09:43:00       53.349       52.316        3.439       37.167       43.802       38.795     1381.353     1918.575     1505.068        0.520        0.240       74.720       32.574        0.190      345.430       22.956      863.084
06/29/2014  09:44:00      -33.817       23.218        8.970       34.079       56.175       26.196     1161.400     3155.582      686.239        0.338        0.250       41.020       31.733        0.598      345.334       22.791      863.082
06/29/2014  09:45:00        5.059       42.324        9.305       21.779       30.482       22.975      474.306      929.172      527.870        0.192        0.097       42.625       13.799        0.105      346.044       24.010      863.081
06/29/2014  09:46:00      -23.713       11.858       23.293       19.780       29.084       19.982      391.266      845.905      399.275        0.144        0.082       26.513        8.858        0.112      346.210       24.295      863.078
06/29/2014  09:47:00       13.970       30.386       22.488       33.787       36.416       45.394     1141.548     1326.098     2060.641        0.308        0.226       33.443       29.822        0.795      345.867       23.705      863.058
06/29/2014  09:48:00      -26.941       -4.991       26.463       27.410       22.669       18.012      751.307      513.868      324.431        0.152        0.079       27.399       14.232        0.270      346.054       24.029      863.039
06/29/2014  09:49:00      -47.182      -25.841       13.748       51.441       32.924       26.404     2646.205     1084.018      697.188        0.375        0.221       53.795       19.279        0.128      345.790       23.574      863.016
06/29/2014  09:50:00      -23.329      -41.741       10.458       28.723       35.075       34.818      825.020     1230.288     1212.268        0.283        0.163       47.818       23.876        0.249      345.960       23.866      863.008
06/29/2014  09:51:00       -0.091      -88.816       25.587       62.343       58.270       44.200     3886.687     3395.382     1953.675        0.889        0.462       88.816       40.718        0.210      345.664       23.356      862.989
06/29/2014  09:52:00       54.668      -32.231       23.290       40.202       46.722       31.910     1616.171     2182.954     1018.271        0.469        0.241       63.462       28.207        0.198      345.557       23.174      862.989
06/29/2014  09:53:00       -1.577      -30.591        5.370       30.429       31.375       18.814      925.940      984.392      353.974        0.162        0.113       30.631       17.833        0.339      345.728       23.467      862.967
06/29/2014  09:54:00      -66.951       -5.576        4.450       56.452       29.370       21.766     3186.811      862.581      473.750        0.453        0.226       67.183       17.192        0.065      345.563       23.183      862.947
06/29/2014  09:55:00      -45.971      -43.650       12.205       42.997       32.307       22.086     1848.756     1043.762      487.782        0.377        0.169       63.393       24.534        0.150      345.484       23.049      862.932
06/29/2014  09:56:00      -34.939        0.392        8.295       36.083       14.654       19.265     1301.999      214.746      371.140        0.159        0.094       34.941       17.320        0.246      345.811       23.610      862.931
06/29/2014  09:57:00       -4.506       23.853       59.349       22.532       32.660       22.904      507.690     1066.670      524.578        0.310        0.105       24.275       17.364        0.512      346.565       24.905      862.913
06/29/2014  09:58:00       42.638       37.492       61.384       60.971       74.110       51.474     3717.470     5492.219     2649.614        0.942        0.593       56.777       51.813        0.833      346.023       23.972      862.911
06/29/2014  09:59:00       48.259       23.770       64.520       58.562       86.258       55.100     3429.506     7440.481     3035.990        1.048        0.695       53.795       63.942        1.413      346.111       24.124      862.886
06/29/2014  10:00:00      106.978       90.769       80.596       80.481       66.624       57.443     6477.134     4438.735     3299.684        2.019        0.711      140.297       57.801        0.170      345.753       23.507      862.875
06/29/2014  10:01:00       60.687       91.591      100.179       73.695       62.484       40.345     5430.956     3904.201     1627.731        1.653        0.548      109.872       37.780        0.118      345.871       23.710      862.859
06/29/2014  10:02:00       71.602      129.606      108.948       57.904       50.277       42.971     3352.833     2527.729     1846.545        2.076        0.386      148.069       32.705        0.049      345.678       23.378      862.851
06/29/2014  10:03:00      115.440       94.259       51.234      110.576       53.257       66.261    12227.043     2836.291     4390.517        2.214        0.973      149.034       66.595        0.200      345.931       23.814      862.856
06/29/2014  10:04:00      138.341       88.198        6.017       59.920       49.009       47.702     3590.437     2401.887     2275.491        1.761        0.413      164.065       31.761        0.037      345.746       23.495      862.861
06/29/2014  10:05:00      130.062       83.855        8.133       43.958       45.108       41.297     1932.346     2034.740     1705.458        1.484        0.284      154.751       19.274        0.016      345.893       23.747      862.861
06/29/2014  10:06:00      143.093      100.600       13.812       68.794       54.127       49.321     4732.557     2929.709     2432.565        2.044        0.505      174.917       42.144        0.058      345.739       23.482      862.861
06/29/2014  10:07:00       64.290       81.028       38.223       77.084       73.443       54.947     5942.018     5393.880     3019.137        1.326        0.718      103.435       41.518        0.161      346.129       24.153      862.864
06/29/2014  10:08:00       24.162      -10.591       40.556       53.604       53.982       25.795     2873.409     2914.086      665.362        0.440        0.323       26.381       18.710        0.503      346.276       24.407      862.875
06/29/2014  10:09:00       57.705       70.288       17.275       70.346       61.662       43.739     4948.611     3802.255     1913.072        0.961        0.533       90.941       29.166        0.103      346.123       24.144      862.869
06/29/2014  10:10:00       67.461       68.091       12.785       47.807       41.754       36.706     2285.556     1743.374     1347.354        0.736        0.269       95.851       26.399        0.076      345.999       23.930      862.870
06/29/2014  10:11:00        7.471       68.856      -18.156       60.078       34.306       31.429     3609.400     1176.877      987.755        0.545        0.289       69.260       23.580        0.116      345.635       23.307      862.866
06/29/2014  10:12:00       56.450       71.439        4.061       50.970       26.048       30.821     2597.937      678.506      949.904        0.627        0.211       91.050       24.944        0.075      345.787       23.567      862.860
06/29/2014  10:13:00       27.430       29.341       10.752       29.678       33.280       27.339      880.797     1107.580      747.423        0.223        0.137       40.166       21.665        0.291      346.041       24.002      862.845
06/29/2014  10:14:00       24.369        7.737       -2.706       21.994       11.321       16.044      483.727      128.156      257.397        0.077        0.043       25.568       13.861        0.294      345.604       23.252      862.847
06/29/2014  10:15:00       13.241      -18.156       22.499       13.787       13.050       11.875      190.083      170.295      141.013        0.076        0.025       22.471        7.511        0.112      345.998       23.930      862.837
06/29/2014  10:16:00       -9.867      -28.574        8.948       26.253       23.481       17.043      689.207      551.363      290.464        0.126        0.077       30.229        8.931        0.087      345.789       23.571      862.825
06/29/2014  10:17:00       22.318      -21.662       22.172       25.776       19.489       23.542      664.402      379.831      554.224        0.153        0.080       31.102       15.604        0.252      346.433       24.679      862.804
06/29/2014  10:18:00       27.302      -37.084       11.266       27.422       31.330       34.892      751.952      981.591     1217.479        0.260        0.148       46.051       21.283        0.214      346.011       23.952      862.800
06/29/2014  10:19:00       -5.034        4.761       15.134       36.750       47.901       35.044     1350.597     2294.517     1228.106        0.257        0.244        6.929       22.595       10.633      346.440       24.692      862.796
06/29/2014  10:20:00       36.075       82.109       15.819       58.521       48.190       41.281     3424.682     2322.240     1704.116        0.787        0.373       89.684       27.729        0.096      346.457       24.718      862.779
06/29/2014  10:21:00       54.205       80.872       -8.997       46.268       53.518       44.155     2140.770     2864.132     1949.678        0.826        0.348       97.358       37.560        0.149      346.357       24.547      862.762
06/29/2014  10:22:00       23.243      184.164      -13.724       50.087       67.733       49.676     2508.716     4587.816     2467.722        2.210        0.478      185.625       39.188        0.045      346.099       24.101      862.728
06/29/2014  10:23:00       95.057       59.262       17.465       23.416       19.848       28.835      548.291      393.948      831.429        0.731        0.089      112.017       10.463        0.009      345.716       23.444      862.720
06/29/2014  10:24:00       44.733       55.571       14.334       29.166       22.561       30.725      850.675      509.006      944.048        0.380        0.115       71.339       17.043        0.057      345.957       23.860      862.706
06/29/2014  10:25:00       87.495       79.996        7.160       57.518       45.484       41.260     3308.337     2068.784     1702.423        1.059        0.354      118.553       29.956        0.064      346.200       24.277      862.711
06/29/2014  10:26:00       49.928       80.092        5.769       57.091       44.241       42.741     3259.394     1957.258     1826.813        0.799        0.352       94.380       33.838        0.129      346.238       24.343      862.704
06/29/2014  10:27:00       50.341       88.962        5.339       56.524       44.493       48.392     3194.910     1979.616     2341.789        0.900        0.376      102.218       30.715        0.090      346.339       24.516      862.707
06/29/2014  10:28:00       74.515       74.034        8.441       43.295       32.538       34.163     1874.453     1058.742     1167.097        0.760        0.205      105.040       19.453        0.034      346.243       24.351      862.698
06/29/2014  10:29:00       56.730       67.619        7.268       71.526       48.228       45.789     5115.942     2325.938     2096.613        0.869        0.477       88.264       33.843        0.147      346.681       25.105      862.696
06/29/2014  10:30:00      -30.861       97.410      -12.478       34.287       39.045       30.982     1175.629     1524.481      959.860        0.713        0.183      102.182       24.348        0.057      346.207       24.289      862.690
06/29/2014  10:31:00      -36.129       41.941       -4.897       47.741       51.745       33.648     2279.234     2677.531     1132.164        0.459        0.304       55.357       34.305        0.384      346.524       24.835      862.686
06/29/2014  10:32:00       12.759       52.431       69.188       30.080       46.757       31.926      904.796     2186.250     1019.290        0.590        0.206       53.962       34.519        0.409      347.121       25.860      862.675
06/29/2014  10:33:00       63.144       60.756       54.577       67.457       44.763       43.169     4550.449     2003.729     1863.559        0.954        0.421       87.627       40.320        0.212      346.636       25.026      862.662
06/29/2014  10:34:00       21.969       84.232      113.062       55.573       76.209       45.170     3088.359     5807.854     2040.327        1.565        0.547       87.050       44.196        0.258      346.691       25.120      862.649
06/29/2014  10:35:00       22.952       89.005      130.666       50.310       74.284       55.906     2531.145     5518.059     3125.445        1.835        0.559       91.916       53.516        0.339      346.817       25.337      862.643
06/29/2014  10:36:00       42.646       62.987      103.021       47.889       81.718       52.777     2293.385     6677.862     2785.436        1.408        0.588       76.066       61.618        0.656      346.211       24.296      862.657
06/29/2014  10:37:00      -68.529      -35.377       -2.084       77.275       29.613       28.368     5971.502      876.914      804.732        0.680        0.383       77.121       34.139        0.196      345.937       23.824      862.649
06/29/2014  10:38:00      -45.708      -61.025        1.140       64.786       54.671       28.528     4197.178     2988.875      813.857        0.691        0.400       76.245       28.984        0.145      346.541       24.863      862.626
06/29/2014  10:39:00      -12.136      -17.151       27.972       30.469       39.783       24.782      928.367     1582.671      614.135        0.217        0.156       21.011       27.011        1.653      347.203       26.005      862.612
06/29/2014  10:40:00       19.973       40.749       29.151       82.321       45.547       35.122     6776.808     2074.548     1233.549        0.650        0.504       45.380       45.117        0.988      346.711       25.156      862.614
06/29/2014  10:41:00       53.300      -36.161       28.690       59.073       67.067       40.225     3489.673     4497.981     1618.034        0.729        0.480       64.409       27.440        0.181      346.505       24.802      862.591
06/29/2014  10:42:00        4.457       64.357       67.275       33.442       50.335       68.429     1118.360     2533.654     4682.586        0.851        0.417       64.511       47.623        0.545      347.005       25.662      862.573
06/29/2014  10:43:00       41.293       60.936       43.258       46.940       51.007       52.264     2203.326     2601.738     2731.486        0.741        0.377       73.609       41.637        0.320      346.384       24.595      862.572
06/29/2014  10:44:00       -2.469       10.367        4.588       70.804       24.056       20.655     5013.200      578.673      426.642        0.308        0.301       10.657        9.499        0.795      346.415       24.648      862.554
06/29/2014  10:45:00       70.299      127.237       17.217      107.172       50.518       39.906    11485.781     2552.036     1592.462        1.853        0.782      145.366       47.838        0.108      346.430       24.670      862.541
06/29/2014  10:46:00      111.653       95.545       -1.553       50.583       46.745       42.040     2558.656     2185.126     1767.341        1.405        0.326      146.953       22.969        0.024      346.194       24.266      862.535
06/29/2014  10:47:00       73.433       76.222        5.194       69.524       60.334       34.818     4833.587     3640.180     1212.328        1.046        0.484      105.841       18.625        0.031      346.578       24.926      862.522
06/29/2014  10:48:00      117.966       61.654       23.690       74.311       44.746       43.649     5522.093     2002.226     1905.200        1.385        0.471      133.106       24.379        0.034      346.640       25.034      862.529
06/29/2014  10:49:00      133.283       78.942       13.862       84.941       68.220       42.587     7214.988     4653.977     1813.621        1.893        0.684      154.907       18.363        0.014      346.447       24.700      862.526
06/29/2014  10:50:00      134.516      100.790       37.506       60.449       50.051       47.194     3654.083     2505.055     2227.290        1.902        0.419      168.087       28.896        0.030      346.574       24.918      862.523
06/29/2014  10:51:00       63.372      112.519        0.937       50.136       66.102       38.897     2513.625     4369.457     1512.947        1.254        0.420      129.138       32.005        0.061      346.492       24.779      862.537
06/29/2014  10:52:00       35.866       -8.278       31.319       54.675       47.818       34.084     2989.301     2286.530     1161.714        0.439        0.322       36.809       15.960        0.188      346.949       25.565      862.529
06/29/2014  10:53:00      222.771      136.375       22.106       71.970       47.702       50.303     5179.716     2275.491     2530.390        3.935        0.499      261.199       20.883        0.006      346.346       24.523      862.517
06/29/2014  10:54:00      206.679      137.396       29.534       65.812       40.228       58.833     4331.188     1618.255     3461.374        3.594        0.471      248.181       39.727        0.026      346.297       24.439      862.518
06/29/2014  10:55:00       29.095       98.651       -8.505      116.925       44.141       46.416    13671.498     1948.468     2154.485        1.421        0.889      102.852       63.180        0.377      346.123       24.145      862.518
06/29/2014  10:56:00     -129.581       67.912      -22.813       25.080       31.804       17.744      628.999     1011.510      314.859        1.194        0.098      146.299        4.862        0.001      346.303       24.454      862.496
06/29/2014  10:57:00       -1.410       20.141       27.971       44.720       33.094       31.817     1999.913     1095.216     1012.341        0.265        0.205       20.190       29.529        2.139      347.543       26.590      862.489
06/29/2014  10:58:00       11.718       16.549       27.839       22.137       22.684       23.993      490.060      514.571      575.680        0.138        0.079       20.277        9.532        0.221      347.540       26.583      862.501
06/29/2014  10:59:00       90.493       92.816        8.291       60.864       37.538       37.902     3704.428     1409.086     1436.562        1.171        0.328      129.630       31.965        0.061      347.003       25.659      862.501
06/29/2014  11:00:00       50.115      126.488       -6.848       53.672       76.829       53.388     2880.710     5902.675     2850.259        1.509        0.582      136.054       42.091        0.096      347.076       25.784      862.481
06/29/2014  11:01:00      103.845      121.582        3.568       84.594       69.214       55.115     7156.171     4790.584     3037.637        2.028        0.749      159.893       42.458        0.071      346.839       25.374      862.473
06/29/2014  11:02:00      129.935       83.075       10.323       81.895       66.928       53.019     6706.861     4479.406     2811.050        1.894        0.700      154.222       30.955        0.040      346.906       25.489      862.462
06/29/2014  11:03:00       80.499       64.442       31.346       88.244       58.846       39.918     7787.057     3462.818     1593.411        1.223        0.642      103.116       25.104        0.059      347.034       25.710      862.451
06/29/2014  11:04:00      163.374      100.215       36.702       68.567       51.508       54.115     4701.451     2653.039     2928.435        2.418        0.514      191.661       22.285        0.014      346.918       25.507      862.450
06/29/2014  11:05:00      120.645       90.369       50.181       61.831       48.072       64.484     3823.046     2310.904     4158.168        1.776        0.515      150.738       41.795        0.077      347.085       25.798      862.446
06/29/2014  11:06:00      116.269       65.503       17.884       43.871       39.823       39.636     1924.649     1585.874     1570.974        1.160        0.254      133.451       18.584        0.019      346.947       25.562      862.455
06/29/2014  11:07:00      135.209       71.860       14.788       78.702       55.779       51.112     6194.055     3111.316     2612.407        1.779        0.596      153.118       53.328        0.121      346.492       24.776      862.444
06/29/2014  11:08:00       96.631       65.544       18.905       80.250       60.804       39.856     6439.987     3697.066     1588.479        1.286        0.586      116.763       43.733        0.140      346.839       25.374      862.433
06/29/2014  11:09:00       95.906       53.417       45.935       48.867       60.118       52.888     2388.014     3614.197     2797.139        1.148        0.440      109.778       36.099        0.108      346.841       25.378      862.437
06/29/2014  11:10:00       67.427      -14.057       28.024       54.134       47.145       39.639     2930.484     2222.666     1571.254        0.613        0.336       68.877       26.056        0.143      346.785       25.282      862.425
06/29/2014  11:11:00       48.186       45.434       38.276       76.082       47.040       38.164     5788.528     2212.741     1456.485        0.765        0.473       66.228       38.029        0.330      347.507       26.526      862.420
06/29/2014  11:12:00      147.515      107.056       15.986       92.104       73.742       48.652     8483.117     5437.863     2366.998        2.488        0.814      182.268       44.676        0.060      347.014       25.675      862.416
06/29/2014  11:13:00       87.179      103.022        4.606       61.225       62.674       56.340     3748.468     3927.973     3174.242        1.454        0.543      134.958       42.199        0.098      347.015       25.677      862.407
06/29/2014  11:14:00       86.838       91.986       51.423       72.279       57.280       47.208     5224.323     3281.027     2228.598        1.469        0.537      126.500       37.518        0.088      347.249       26.080      862.398
06/29/2014  11:15:00       43.780      120.088       -8.369       39.046       53.505       35.936     1524.596     2862.780     1291.423        1.104        0.284      127.820       23.795        0.035      346.921       25.517      862.388
06/29/2014  11:16:00        9.580       43.926       19.828       27.347       31.247       22.896      747.845      976.393      524.211        0.233        0.112       44.959       22.867        0.259      347.553       26.605      862.385
06/29/2014  11:17:00       12.880      128.017       -2.522       49.081       72.284       36.680     2408.942     5224.954     1345.425        1.277        0.449      128.663       38.035        0.087      347.172       25.947      862.389
06/29/2014  11:18:00      -36.736      139.560       -3.941       31.962       58.108       30.088     1021.547     3376.562      905.311        1.307        0.265      144.314       30.955        0.046      347.283       26.142      862.371
06/29/2014  11:19:00      -12.810       56.458       14.676       33.796       76.046       38.193     1142.196     5782.959     1458.719        0.597        0.419       57.893       43.724        0.570      347.905       27.214      862.372
06/29/2014  11:20:00       20.589      176.408      -13.587       39.861       52.588       45.023     1588.871     2765.466     2027.094        1.905        0.319      177.605       39.002        0.048      347.320       26.203      862.356
06/29/2014  11:21:00       71.031       90.390        3.708       70.234       52.196       39.773     4932.830     2724.371     1581.867        1.123        0.462      114.960       35.499        0.095      347.547       26.596      862.366
06/29/2014  11:22:00       30.904       46.613       14.030       45.584       38.796       33.840     2077.888     1505.114     1145.165        0.403        0.236       55.927       25.105        0.201      347.904       27.211      862.351
06/29/2014  11:23:00      -17.196       40.868       82.326       23.758       47.575       36.289      564.438     2263.386     1316.878        0.644        0.207       44.339       26.439        0.356      348.339       27.963      862.348
06/29/2014  11:24:00       36.592       66.742       87.107       49.353       50.901       38.947     2435.711     2590.927     1516.894        0.996        0.327       76.115       31.042        0.166      347.564       26.624      862.340
06/29/2014  11:25:00       15.243       30.172       62.505       43.283       70.865       45.908     1873.446     5021.919     2107.533        0.702        0.450       33.804       41.254        1.489      347.739       26.927      862.322
06/29/2014  11:26:00       65.270       54.086       57.995       51.587       66.764       42.591     2661.236     4457.464     1813.953        0.974        0.447       84.767       33.615        0.157      347.391       26.326      862.318
06/29/2014  11:27:00       64.013     -131.010        3.292       67.028       85.390       53.974     4492.707     7291.376     2913.191        1.798        0.735      145.813       45.499        0.097      347.548       26.597      862.301
06/29/2014  11:28:00       98.214      -84.197       37.924       80.029      105.680       59.176     6404.639    11168.292     3501.777        1.962        1.054      129.364       71.286        0.304      347.881       27.170      862.291
06/29/2014  11:29:00       85.181     -112.028       -8.801       88.132      102.406       59.475     7767.268    10486.934     3537.247        2.083        1.090      140.734       60.522        0.185      347.690       26.840      862.283
06/29/2014  11:30:00      102.034     -117.504      -27.886       81.625      113.262       58.172     6662.606    12828.289     3383.952        2.393        1.144      155.621       66.540        0.183      347.506       26.523      862.291
06/29/2014  11:31:00       83.026      -97.885        5.834       48.135       83.376       54.484     2317.009     6951.477     2968.486        1.437        0.612      128.354       53.777        0.176      347.368       26.287      862.281
06/29/2014  11:32:00       23.802     -134.669      -17.427       64.764       64.744       47.892     4194.341     4191.723     2293.635        1.484        0.534      136.757       34.088        0.062      347.426       26.387      862.249
06/29/2014  11:33:00       53.766     -112.887        2.164       47.429       53.175       34.163     2249.509     2827.534     1167.115        1.094        0.312      125.037       23.658        0.036      347.217       26.026      862.249
06/29/2014  11:34:00       18.657     -111.598      -13.556       80.183      101.223       50.705     6429.300    10246.193     2570.969        1.611        0.962      113.147       62.515        0.305      347.548       26.595      862.217
06/29/2014  11:35:00       -7.700     -107.138        1.727       55.796       59.985       33.833     3113.187     3598.194     1144.667        0.970        0.393      107.414       21.837        0.041      347.131       25.879      862.213
06/29/2014  11:36:00      -25.674      -19.284       18.698       36.949       32.185       22.025     1365.239     1035.885      485.086        0.213        0.144       32.109       19.310        0.362      347.822       27.071      862.218
06/29/2014  11:37:00      -15.152        5.905       11.185       30.610       29.118       30.487      936.984      847.850      929.459        0.155        0.136       16.262       18.971        1.361      347.768       26.977      862.202
06/29/2014  11:38:00       19.235      -15.342       52.923       58.159       95.389       67.964     3382.448     9098.985     4619.155        1.025        0.855       24.604       62.808        6.517      348.215       27.748      862.198
06/29/2014  11:39:00      127.099       -5.067       61.319      103.027      103.421       74.005    10614.469    10695.855     5476.794        2.336        1.339      127.200       65.393        0.264      347.781       26.999      862.187
06/29/2014  11:40:00       84.524      -63.194       56.397       87.656      128.222       79.717     7683.514    16440.963     6354.743        2.239        1.524      105.536       82.488        0.611      347.970       27.324      862.171
06/29/2014  11:41:00       68.417      -21.546       60.741       76.801      106.777       85.737     5898.400    11401.305     7350.858        1.674        1.233       71.729       86.169        1.443      347.886       27.179      862.185
06/29/2014  11:42:00       46.256      -71.095       17.698       46.185       88.114       47.840     2133.076     7764.068     2288.651        0.984        0.609       84.819       55.804        0.433      347.920       27.240      862.195
06/29/2014  11:43:00     -109.625      -41.946       -6.363       88.580       51.018       35.377     7846.364     2602.788     1251.552        1.276        0.585      117.376       24.224        0.043      347.129       25.874      862.175
06/29/2014  11:44:00       -3.937       -6.621       18.724       45.608       40.531       32.136     2080.085     1642.753     1032.704        0.258        0.238        7.703       24.940       10.482      348.134       27.611      862.150
06/29/2014  11:45:00       20.678     -103.731       -8.509       51.313       33.572       22.580     2633.046     1127.066      509.864        0.776        0.213      105.772       15.013        0.020      347.623       26.725      862.144
06/29/2014  11:46:00       34.555      -98.570       -6.301       55.967       62.329       56.939     3132.350     3884.869     3242.031        1.060        0.513      104.451       42.699        0.167      347.781       27.000      862.146
06/29/2014  11:47:00       40.285      -29.657       37.944       56.562       69.799       50.733     3199.241     4871.908     2573.793        0.729        0.532       50.024       44.503        0.791      348.205       27.731      862.136
06/29/2014  11:48:00      -26.178      -66.808        8.172       48.540       73.941       55.964     2356.179     5467.203     3131.973        0.808        0.548       71.753       51.833        0.522      348.168       27.668      862.124
06/29/2014  11:49:00      -18.385       -7.163       24.667       27.925       40.514       27.497      779.787     1641.407      756.062        0.209        0.159       19.731       23.480        1.416      348.722       28.628      862.116
06/29/2014  11:50:00      105.089     -165.384      -22.187       80.276       80.552       50.530     6444.256     6488.558     2553.301        2.718        0.774      195.948       48.951        0.062      347.662       26.792      862.100
06/29/2014  11:51:00       16.279      -19.200       42.280       37.507       86.583       47.298     1406.764     7496.642     2237.057        0.678        0.557       25.172       58.427        5.387      348.103       27.557      862.083
06/29/2014  11:52:00       51.703      -23.200       39.994       52.346       76.024       62.309     2740.129     5779.667     3882.389        0.860        0.620       56.669       46.480        0.673      347.966       27.318      862.059
06/29/2014  11:53:00       94.303      -60.543       35.836       93.330      132.883       82.652     8710.530    17657.826     6831.340        2.352        1.660      112.065      100.357        0.802      347.933       27.261      862.045
06/29/2014  11:54:00       55.726       14.901       55.661       83.965      107.034       66.592     7050.160    11456.210     4434.492        1.468        1.147       57.684       83.143        2.077      348.077       27.511      862.040
06/29/2014  11:55:00       45.896       48.705       84.198       66.887       80.797       48.536     4473.891     6528.109     2355.734        1.246        0.668       66.922       56.305        0.708      348.200       27.722      862.046
06/29/2014  11:56:00      123.112      123.817       81.705       92.680       50.766       61.339     8589.623     2577.156     3762.434        2.604        0.746      174.605       51.405        0.087      347.681       26.825      862.042
06/29/2014  11:57:00      122.416       50.105       87.777      108.696       89.414       59.218    11814.801     7994.821     3506.790        2.425        1.166      132.274       51.796        0.153      348.095       27.540      862.014
06/29/2014  11:58:00      115.765       97.058       43.275      101.930       61.574       61.254    10389.696     3791.415     3752.057        2.131        0.897      151.068       43.880        0.084      348.124       27.590      862.000
06/29/2014  11:59:00      210.080      136.001       21.801       60.126       47.320       45.285     3615.102     2239.176     2050.760        3.550        0.395      250.260       30.058        0.014      347.651       26.771      861.996
06/29/2014  12:00:00      198.124      116.174       17.589       86.675       60.154       52.028     7512.500     3618.516     2706.952        3.345        0.692      229.672       26.411        0.013      347.779       26.992      861.999
06/29/2014  12:01:00      121.962      127.304      150.102      120.230       95.019       80.327    14455.145     9028.595     6452.407        4.177        1.497      176.298       78.704        0.199      347.807       27.041      861.967
06/29/2014  12:02:00      137.940      145.907      141.956       87.247       84.902       56.915     7612.112     7208.403     3239.300        3.926        0.903      200.789       52.103        0.067      347.677       26.816      861.968
06/29/2014  12:03:00       76.774      -82.114        5.801       47.949       57.667       38.805     2299.076     3325.512     1505.832        0.990        0.357      112.415       33.342        0.088      347.523       26.553      861.986
06/29/2014  12:04:00       66.480       -9.546       40.906       54.333       55.483       38.962     2952.110     3078.374     1518.008        0.686        0.377       67.162       34.970        0.271      348.013       27.399      861.968
06/29/2014  12:05:00       19.287       53.349       90.694       74.075      102.381       55.081     5487.056    10481.790     3033.933        1.522        0.950       56.728       58.972        1.081      348.362       28.002      861.955
06/29/2014  12:06:00       20.069       54.956       88.891       48.948       68.725       51.182     2395.953     4723.172     2619.629        1.053        0.487       58.506       42.929        0.538      348.545       28.318      861.952
06/29/2014  12:07:00      112.000     -168.729      -24.307       88.299      118.838       72.948     7796.774    14122.427     5321.361        3.442        1.362      202.517       79.122        0.153      348.012       27.395      861.935
06/29/2014  12:08:00       13.730      -75.588       20.518       30.974       68.048       40.835      959.374     4630.593     1667.500        0.679        0.363       76.825       37.625        0.240      348.105       27.559      861.927
06/29/2014  12:09:00      121.377     -144.035      -10.737       93.887      104.461       58.215     8814.761    10912.013     3388.953        2.935        1.156      188.357       57.861        0.094      347.922       27.240      861.906
06/29/2014  12:10:00       54.932     -129.840      -14.474       89.250       81.693       48.782     7965.535     6673.817     2379.639        1.855        0.851      140.982       48.335        0.118      348.193       27.708      861.886
06/29/2014  12:11:00      -16.302      -35.788       20.505       42.671       72.983       41.347     1820.813     5326.459     1709.550        0.541        0.443       39.326       24.691        0.394      348.645       28.493      861.888
06/29/2014  12:12:00       11.947       67.973       99.678       52.818       45.865       40.241     2789.763     2103.621     1619.356        1.060        0.326       69.015       37.207        0.291      348.323       27.936      861.899
06/29/2014  12:13:00       90.498       32.961       43.799       66.854       58.640       44.825     4469.434     3438.702     2009.252        1.055        0.496       96.313       44.027        0.209      348.329       27.943      861.922
06/29/2014  12:14:00       75.514       15.050       17.281       45.325       58.281       42.436     2054.313     3396.634     1800.854        0.674        0.363       77.000       26.399        0.118      348.338       27.961      861.910
06/29/2014  12:15:00      100.901       83.769       12.224       86.017       54.447       36.452     7398.973     2964.517     1328.744        1.452        0.585      131.142       21.347        0.026      348.235       27.784      861.902
06/29/2014  12:16:00      132.268      110.511       29.978       91.705       65.802       59.796     8409.863     4329.929     3575.502        2.346        0.816      172.358       46.937        0.074      348.330       27.946      861.888
06/29/2014  12:17:00       93.537       90.523       -1.026       72.942       57.513       51.343     5320.513     3307.781     2636.090        1.410        0.563      130.168       33.220        0.065      348.259       27.823      861.888
06/29/2014  12:18:00       54.946       69.978       54.980       59.581       57.760       53.558     3549.850     3336.226     2868.460        1.035        0.488       88.972       32.029        0.130      348.241       27.794      861.873
06/29/2014  12:19:00      130.569       84.207       29.600       85.837       54.642       50.908     7367.932     2985.734     2591.660        1.898        0.647      155.367       27.686        0.032      348.157       27.646      861.874
06/29/2014  12:20:00      197.303      107.531       43.018       77.440       63.840       55.545     5996.971     4075.535     3085.253        3.275        0.658      224.703       48.171        0.046      347.960       27.305      861.872
06/29/2014  12:21:00      117.860       92.037       51.551       61.277       48.705       37.755     3754.821     2372.208     1425.429        1.628        0.378      149.538       27.194        0.033      348.234       27.781      861.877
06/29/2014  12:22:00       -0.081      -53.168       23.170       50.891       55.091       30.853     2589.848     3034.988      951.878        0.497        0.329       53.168       25.272        0.226      348.172       27.673      861.887
06/29/2014  12:23:00       33.977       59.689       15.358       60.017       58.425       43.374     3602.098     3413.476     1881.310        0.692        0.445       68.682       30.251        0.194      348.728       28.635      861.874
06/29/2014  12:24:00      220.098      119.576       21.630       81.506       55.935       54.703     6643.180     3128.761     2992.402        3.798        0.638      250.482       46.425        0.034      348.102       27.549      861.857
06/29/2014  12:25:00      196.135      141.774       24.004       68.036       59.754       54.160     4628.948     3570.543     2933.285        3.514        0.557      242.010       26.795        0.012      348.145       27.623      861.850
06/29/2014  12:26:00      193.931      109.981       15.847       81.003       68.346       62.351     6561.413     4671.154     3887.677        3.254        0.756      222.946       31.941        0.021      348.138       27.611      861.846
06/29/2014  12:27:00      136.522      107.130       45.603       86.809       79.458       80.672     7535.753     6313.502     6507.997        2.627        1.018      173.537       61.960        0.127      348.515       28.266      861.827
06/29/2014  12:28:00      114.064       67.491       49.168       90.572       56.339       57.244     8203.338     3174.093     3276.825        1.732        0.733      132.535       49.240        0.138      348.215       27.747      861.818
06/29/2014  12:29:00       26.135       31.449       10.649       50.061       42.195       27.491     2506.085     1780.435      755.744        0.341        0.252       40.891       18.120        0.196      348.645       28.492      861.807
06/29/2014  12:30:00       54.997       10.506       43.491       46.920       58.560       50.840     2201.531     3429.295     2584.750        0.662        0.411       55.992       34.974        0.390      348.871       28.883      861.805
06/29/2014  12:31:00       58.823      -24.981       66.834       65.360       92.755       72.223     4271.987     8603.554     5216.223        1.332        0.905       63.908       59.008        0.853      348.763       28.696      861.786
06/29/2014  12:32:00       57.342     -191.304       -2.464       52.550       46.467       36.870     2761.522     2159.190     1359.376        2.308        0.314      199.713       26.576        0.018      347.877       27.163      861.784
06/29/2014  12:33:00      -44.235      -75.230       -1.816       51.750       76.630       42.018     2678.069     5872.153     1765.553        0.897        0.516       87.271       43.648        0.250      348.491       28.227      861.760
06/29/2014  12:34:00       74.021     -138.773        7.014       67.331       75.965       52.370     4533.517     5770.683     2742.628        1.891        0.652      157.280       43.063        0.075      348.470       28.187      861.739
06/29/2014  12:35:00       42.940     -119.779       -2.842       67.771       87.587       53.973     4592.938     7671.471     2913.069        1.569        0.759      127.243       56.406        0.197      348.607       28.425      861.711
06/29/2014  12:36:00      -10.633       31.794       33.862       27.757       35.080       37.523      770.465     1230.637     1407.949        0.284        0.170       33.525       21.008        0.393      349.255       29.551      861.703
06/29/2014  12:37:00      -14.078       41.939        5.547       39.216       35.351       28.553     1537.910     1249.668      815.271        0.279        0.180       44.239       24.196        0.299      348.934       28.993      861.691
06/29/2014  12:38:00       -7.714       84.238        0.931       89.737       73.373       43.337     8052.673     5383.571     1878.129        1.123        0.766       84.590       47.506        0.315      348.853       28.853      861.670
06/29/2014  12:39:00      220.553      157.571       23.914      107.847       67.889       54.480    11630.899     4608.974     2968.024        4.662        0.960      271.057       34.873        0.017      348.609       28.427      861.645
06/29/2014  12:40:00      189.258      113.966       53.845      109.569       74.232       76.729    12005.405     5510.460     5887.263        3.755        1.170      220.923       64.606        0.086      348.562       28.345      861.623
06/29/2014  12:41:00      168.772      148.417        3.234      129.140       72.886       71.718    16677.123     5312.418     5143.511        3.882        1.357      224.748       47.777        0.045      348.527       28.286      861.616
06/29/2014  12:42:00      150.595       99.975        9.585      112.785       62.100       60.516    12720.539     3856.419     3662.234        2.650        1.012      180.759       49.645        0.075      348.840       28.827      861.597
06/29/2014  12:43:00      107.218       93.788       12.483       97.754       70.784       51.657     9555.836     5010.387     2668.440        1.884        0.862      142.450       42.594        0.089      348.485       28.215      861.604
06/29/2014  12:44:00       73.851       46.488       21.427       49.345       34.791       31.319     2434.937     1210.418      980.859        0.635        0.231       87.264       13.774        0.025      348.708       28.602      861.592
06/29/2014  12:45:00       13.197       75.976       -8.412       28.914       47.079       32.418      836.022     2216.448     1050.931        0.506        0.205       77.114       11.047        0.021      348.769       28.707      861.564
06/29/2014  12:46:00      -57.610      154.082       -0.390       60.357       79.000       43.690     3643.001     6240.980     1908.793        1.942        0.590      164.500       39.262        0.057      348.927       28.980      861.551
06/29/2014  12:47:00       38.102       85.173        2.906       89.684       63.342       46.186     8043.169     4012.184     2133.162        1.145        0.709       93.307       40.265        0.186      349.097       29.274      861.534
06/29/2014  12:48:00      109.937      102.959       15.012       47.039       71.516       44.358     2212.661     5114.525     1967.651        1.610        0.465      150.621       45.612        0.092      348.998       29.102      861.517
06/29/2014  12:49:00       39.236      165.263       -7.349       56.191       85.204       49.287     3157.479     7259.639     2429.212        2.087        0.642      169.856       47.359        0.078      348.738       28.653      861.521
06/29/2014  12:50:00      -18.667      122.636       -7.085       43.646       46.123       43.311     1904.968     2127.286     1875.866        1.067        0.295      124.048       32.063        0.067      348.658       28.515      861.506
06/29/2014  12:51:00        1.056       44.475       30.860       25.300       40.436       31.050      640.090     1635.034      964.128        0.308        0.162       44.488       21.455        0.233      349.309       29.643      861.482
06/29/2014  12:52:00      -16.889       12.760       17.898       24.860       29.792       24.936      618.019      887.558      621.823        0.145        0.106       21.167       13.394        0.400      349.420       29.835      861.468
06/29/2014  12:53:00       -8.761       96.162        5.581       44.319       58.052       33.031     1964.199     3370.035     1091.060        0.789        0.321       96.560       28.372        0.086      349.078       29.242      861.459
06/29/2014  12:54:00       21.930       60.480       18.603       44.528       47.455       29.985     1982.776     2252.006      899.095        0.481        0.257       64.333       26.678        0.172      349.377       29.760      861.466
06/29/2014  12:55:00      -18.465      154.394       -5.357       69.049       72.994       43.097     4767.745     5328.188     1857.384        1.808        0.598      155.494       41.269        0.070      348.746       28.665      861.459
06/29/2014  12:56:00       14.953       14.379       24.392       47.895       48.381       26.796     2293.946     2340.697      718.044        0.319        0.268       20.745       17.565        0.717      349.656       30.246      861.441
06/29/2014  12:57:00       62.595       36.182       28.882       46.789       39.650       35.358     2189.245     1572.090     1250.213        0.554        0.251       72.300       25.298        0.122      349.422       29.838      861.427
06/29/2014  12:58:00      182.252      137.923       30.790       88.240       73.615       61.374     7786.337     5419.188     3766.768        3.508        0.849      228.557       47.017        0.042      348.929       28.980      861.408
06/29/2014  12:59:00      239.648      167.880       22.286       96.925       71.134       58.695     9394.500     5059.990     3445.098        5.200        0.895      292.601       31.249        0.011      348.640       28.481      861.391
06/29/2014  13:00:00      173.378       96.679       15.049      130.623       86.372       63.472    17062.466     7460.105     4028.735        3.409        1.428      198.511       47.991        0.058      348.683       28.553      861.380
06/29/2014  13:01:00       98.225       75.245       18.650       80.770       63.028       52.684     6523.780     3972.478     2775.625        1.446        0.664      123.734       33.453        0.073      348.881       28.901      861.367
06/29/2014  13:02:00       94.067       50.871       -9.823       42.990       24.833       31.197     1848.102      616.657      973.270        0.748        0.172      106.942       19.122        0.032      348.435       28.130      861.358
06/29/2014  13:03:00       92.428       46.629       63.235      103.001       60.715       53.707    10609.309     3686.282     2884.439        1.595        0.859      103.524       47.096        0.207      348.926       28.979      861.324
06/29/2014  13:04:00       63.708      -52.249       42.102       58.568       53.040       40.927     3430.187     2813.266     1674.998        0.824        0.396       82.394       35.404        0.185      348.735       28.649      861.314
06/29/2014  13:05:00       24.597       51.178       13.410       58.714       54.232       31.453     3447.314     2941.080      989.313        0.539        0.369       56.782       26.752        0.222      349.270       29.575      861.283
06/29/2014  13:06:00       15.900      161.548      -10.951       58.022      105.983       39.106     3366.529    11232.421     1529.252        2.130        0.806      162.329       45.103        0.077      349.270       29.574      861.259
06/29/2014  13:07:00        8.257      208.552      -21.382       41.337       85.843       34.590     1708.735     7369.069     1196.437        2.714        0.514      208.715       44.065        0.045      348.883       28.902      861.241
06/29/2014  13:08:00       66.159      124.710       -3.352       51.886       54.006       39.575     2692.108     2916.633     1566.213        1.356        0.359      141.173       34.382        0.059      348.928       28.982      861.218
06/29/2014  13:09:00       28.676       60.909       11.797       75.195       30.003       39.149     5654.283      900.209     1532.616        0.638        0.404       67.322       20.104        0.089      348.981       29.073      861.175
06/29/2014  13:10:00       22.206       50.556       36.588       69.191       51.076       40.562     4787.432     2608.756     1645.273        0.671        0.452       55.218       22.351        0.164      349.631       30.202      861.166
06/29/2014  13:11:00       68.580       90.467        8.774       59.337       52.222       45.487     3520.920     2727.153     2069.028        1.064        0.416      113.523       30.100        0.070      348.927       28.980      861.159
06/29/2014  13:12:00        7.907        6.019       -1.441       20.955       43.694       28.612      439.105     1909.132      818.626        0.163        0.158        9.938       14.824        2.225      349.143       29.354      861.134
06/29/2014  13:13:00       28.597       41.022       91.389       49.954       54.901       37.038     2495.441     3014.080     1371.811        0.887        0.344       50.005       31.945        0.408      349.494       29.962      861.124
06/29/2014  13:14:00       57.100       51.783       45.045       47.438       66.402       48.979     2250.323     4409.207     2398.989        0.851        0.453       77.084       42.024        0.297      349.064       29.218      861.113
06/29/2014  13:15:00      132.251      108.153       36.119       59.162       38.418       35.243     3500.116     1475.916     1242.091        1.835        0.311      170.844       27.624        0.026      348.960       29.035      861.122
06/29/2014  13:16:00       96.476       51.694       24.545       64.023       46.871       35.931     4098.962     2196.897     1291.055        1.008        0.379      109.453       19.057        0.030      349.188       29.432      861.127
06/29/2014  13:17:00       88.237       59.893       21.548       79.371       42.954       40.578     6299.749     1845.056     1646.609        1.081        0.490      106.644       25.186        0.056      348.955       29.029      861.097
06/29/2014  13:18:00       61.631       64.803       77.262       61.180       53.394       42.355     3742.991     2850.921     1793.941        1.118        0.419       89.431       31.057        0.121      349.247       29.535      861.077
06/29/2014  13:19:00       23.268       22.242       49.388       63.891       54.376       43.752     4082.055     2956.780     1914.224        0.621        0.448       32.189       36.813        1.308      349.727       30.368      861.061
06/29/2014  13:20:00       52.091       13.243       22.222       36.191       50.993       48.117     1309.760     2600.325     2315.250        0.480        0.311       53.748       11.963        0.050      349.443       29.875      861.079
06/29/2014  13:21:00       53.115      -23.789       33.259       68.602       97.954       60.112     4706.232     9594.941     3613.459        1.120        0.896       58.199       67.834        1.359      349.424       29.842      861.061
06/29/2014  13:22:00       44.238      -22.016       17.393       70.598       56.817       57.485     4984.028     3228.163     3304.546        0.713        0.576       49.413       40.539        0.673      349.374       29.755      861.054
06/29/2014  13:23:00     -109.843       24.982       -8.892       50.525       33.989       22.760     2552.738     1155.232      518.036        0.850        0.211      112.648       14.163        0.016      348.879       28.897      861.033
06/29/2014  13:24:00      -91.788      -53.629        5.691       87.877       48.391       38.938     7722.360     2341.651     1516.156        1.145        0.579      106.307       43.155        0.165      349.303       29.632      861.013
06/29/2014  13:25:00      -69.568      -73.425       21.291       88.430       73.931       45.915     7819.870     5465.844     2108.174        1.304        0.770      101.149       51.144        0.256      349.419       29.832      861.002
06/29/2014  13:26:00       -7.102       -8.336       16.400       30.591       45.867       31.438      935.795     2103.771      988.333        0.221        0.201       10.951       25.326        5.348      349.861       30.601      861.005
06/29/2014  13:27:00      -49.031      -18.725       27.702       51.595       43.663       32.897     2662.056     1906.436     1082.235        0.459        0.283       52.485       30.920        0.347      350.002       30.846      860.994
06/29/2014  13:28:00        0.912       70.050       27.378       84.367       44.300       45.353     7117.825     1962.456     2056.872        0.840        0.557       70.056       34.174        0.238      349.394       29.789      860.973
06/29/2014  13:29:00      -29.688       32.944       -3.369       95.941       55.292       37.085     9204.644     3057.193     1375.323        0.781        0.682       44.347       21.256        0.230      349.490       29.957      860.956
06/29/2014  13:30:00     -206.922        8.400      -26.520       72.724       48.197       38.112     5288.750     2322.955     1452.537        2.633        0.453      207.093       41.794        0.041      349.345       29.701      860.907
06/29/2014  13:31:00      -92.100       83.638      -13.921       68.541       67.424       42.490     4697.803     4546.014     1805.420        1.336        0.552      124.409       46.663        0.141      349.525       30.016      860.894
06/29/2014  13:32:00       32.108       81.581       18.641       78.097       88.928       43.227     6099.148     7908.101     1868.609        1.195        0.794       87.672       40.745        0.216      350.002       30.844      860.898
06/29/2014  13:33:00      153.856      104.549       23.045       94.167       69.125       62.155     8867.447     4778.263     3863.208        2.632        0.875      186.016       35.216        0.036      349.520       30.006      860.868
06/29/2014  13:34:00      171.453      139.418       45.014      148.213       80.520       64.267    21967.209     6483.524     4130.226        4.171        1.629      220.983       63.581        0.083      349.253       29.545      860.859
06/29/2014  13:35:00      267.417      153.026       38.692      115.707      107.972       74.559    13388.021    11657.997     5559.088        6.351        1.530      308.106       48.959        0.025      349.203       29.456      860.823
06/29/2014  13:36:00      188.345       99.404       35.977       94.830       58.679       56.805     8992.717     3443.189     3226.810        3.115        0.783      212.968       46.981        0.049      349.257       29.549      860.828
06/29/2014  13:37:00      183.667       81.950        9.865       85.579       51.350       48.878     7323.792     2636.775     2389.031        2.645        0.617      201.120       13.802        0.005      349.158       29.377      860.818
06/29/2014  13:38:00       88.193       45.184       11.740       45.212       42.333       36.563     2044.094     1792.105     1336.839        0.756        0.259       99.094       16.647        0.028      349.338       29.693      860.821
06/29/2014  13:39:00       42.664      -76.855        5.465       61.634       95.272       48.344     3798.753     9076.703     2337.112        1.148        0.761       87.903       47.793        0.296      349.760       30.423      860.806
06/29/2014  13:40:00       34.237      -13.822        6.555       51.649       75.068       46.534     2667.632     5635.196     2165.402        0.594        0.523       36.922       41.326        1.253      350.013       30.864      860.800
06/29/2014  13:41:00       14.644      -41.693       15.015       38.219       75.408       36.142     1460.708     5686.336     1306.248        0.531        0.423       44.190       24.761        0.314      349.934       30.728      860.774
06/29/2014  13:42:00       81.895       99.241       56.024       65.336       59.041       72.823     4268.847     3485.873     5303.201        1.637        0.653      128.669       47.624        0.137      349.577       30.104      860.784
06/29/2014  13:43:00       35.078       46.242       78.034       46.209       62.974       39.794     2135.317     3965.786     1583.573        0.857        0.384       58.041       33.951        0.342      349.676       30.278      860.773
06/29/2014  13:44:00       78.502      105.904       95.688       82.963       47.829       52.457     6882.790     2287.618     2751.764        1.923        0.596      131.827       48.004        0.133      349.387       29.776      860.748
06/29/2014  13:45:00       65.708       64.653       57.309       66.265       49.435       53.391     4391.063     2443.790     2850.619        1.073        0.484       92.182       47.468        0.265      349.395       29.792      860.717
06/29/2014  13:46:00       73.292      -39.441       39.663       57.823      111.564       55.660     3343.477    12446.630     3098.029        1.369        0.944       83.230       33.545        0.162      349.649       30.232      860.677
06/29/2014  13:47:00       91.731      -35.311       60.802       88.377       98.600       63.745     7810.457     9721.990     4063.483        1.747        1.080       98.293       61.465        0.391      349.854       30.586      860.648
06/29/2014  13:48:00      143.214     -111.018       26.765       97.961      113.725       76.516     9596.445    12933.414     5854.656        3.096        1.419      181.205       79.685        0.193      349.743       30.393      860.615
06/29/2014  13:49:00       67.659       33.431       96.628       81.383      131.136       83.966     6623.270    17196.519     7050.248        2.295        1.544       75.468       87.427        1.342      349.904       30.674      860.606
06/29/2014  13:50:00       76.558       -0.514       91.617       93.789      153.850       82.965     8796.369    23669.724     6883.168        2.680        1.967       76.560       92.088        1.447      349.941       30.736      860.578
06/29/2014  13:51:00      181.824     -215.461        2.682       94.348      165.380       82.614     8901.563    27350.696     6825.044        6.128        2.154      281.928      100.259        0.126      349.599       30.142      860.574
06/29/2014  13:52:00      119.563     -195.025      -14.379      135.129      140.310       91.724    18259.905    19686.848     8413.280        4.944        2.318      228.758       95.282        0.173      349.777       30.451      860.580
06/29/2014  13:53:00      105.301     -201.046      -50.682       69.972       88.060       66.619     4896.116     7754.538     4438.104        3.558        0.854      226.953       53.761        0.056      349.374       29.753      860.606
06/29/2014  13:54:00       -2.103      -80.381      -20.558       57.280       83.771       51.202     3280.959     7017.625     2621.668        0.990        0.646       80.409       50.847        0.400      349.743       30.396      860.609
06/29/2014  13:55:00      -28.160       27.207       31.894       36.807       27.349       33.231     1354.775      747.993     1104.324        0.288        0.160       39.156       21.984        0.315      350.285       31.336      860.611
06/29/2014  13:56:00        6.809       14.461       34.929       28.182       24.131       26.372      794.252      582.320      695.471        0.177        0.104       15.984       22.525        1.986      350.438       31.603      860.617
06/29/2014  13:57:00       -0.035        2.868       14.488       62.174       45.658       31.739     3865.580     2084.669     1007.364        0.359        0.348        2.868       29.321      104.533      349.947       30.751      860.615
06/29/2014  13:58:00      103.170       43.713       35.607       53.377       45.964       56.456     2849.076     2112.662     3187.262        1.098        0.407      112.049       39.680        0.125      349.683       30.290      860.601
06/29/2014  13:59:00      112.212       79.877       16.043       76.198       55.784       50.432     5806.209     3111.901     2543.365        1.534        0.573      137.738       40.063        0.085      349.757       30.419      860.587
06/29/2014  14:00:00      133.203       95.627       15.521       72.200       50.464       47.347     5212.795     2546.593     2241.781        1.856        0.500      163.974       26.819        0.027      349.756       30.414      860.575
06/29/2014  14:01:00       91.604       56.958       59.423       80.325       52.177       43.391     6452.055     2722.450     1882.766        1.311        0.553      107.868       34.129        0.100      349.950       30.753      860.574
06/29/2014  14:02:00       19.548       17.904       52.678       36.806       55.194       40.773     1354.693     3046.432     1662.415        0.477        0.303       26.508       23.768        0.804      350.356       31.461      860.565
06/29/2014  14:03:00       46.103       23.019       67.878       67.643       72.130       52.963     4575.542     5202.706     2805.088        0.992        0.629       51.531       53.907        1.094      349.916       30.696      860.578
06/29/2014  14:04:00       97.316       59.384        9.241       51.341       20.874       29.587     2635.925      435.720      875.388        0.851        0.197      114.004       21.305        0.035      349.358       29.727      860.590
06/29/2014  14:05:00      -19.248       83.050       -4.159       47.760       35.969       31.651     2281.009     1293.804     1001.794        0.593        0.229       85.251       28.493        0.112      349.635       30.207      860.580
06/29/2014  14:06:00      -89.794       31.250      -27.237       20.549       43.540       18.652      422.243     1895.748      347.890        0.622        0.133       95.076       19.232        0.041      349.457       29.897      860.566
06/29/2014  14:07:00      -48.778       -7.111       -3.540       34.322       27.034       27.091     1177.990      730.833      733.923        0.254        0.132       49.294       25.051        0.258      349.880       30.634      860.548
06/29/2014  14:08:00      -44.589      -11.305       -5.599       35.881       52.916       30.850     1287.479     2800.105      951.693        0.359        0.252       45.999       32.021        0.485      349.876       30.626      860.539
06/29/2014  14:09:00      -64.082      -21.357      -17.086       21.761       27.912       13.591      473.546      779.098      184.715        0.315        0.072       67.547       10.818        0.026      349.349       29.713      860.543
06/29/2014  14:10:00      -31.406       -5.747        5.467       22.621       48.487       29.221      511.691     2350.951      853.863        0.238        0.186       31.928       14.903        0.218      349.636       30.211      860.530
06/29/2014  14:11:00      -17.569       43.229       25.366       35.270       40.285       26.881     1243.974     1622.884      722.608        0.320        0.179       46.663       21.590        0.214      350.379       31.501      860.520
06/29/2014  14:12:00     -117.945       81.436      -30.134       25.719       49.826       26.392      661.456     2482.652      696.557        1.265        0.192      143.328       19.294        0.018      349.426       29.844      860.521
06/29/2014  14:13:00      -92.225       92.299      -11.972       51.746       53.012       41.136     2677.635     2810.286     1692.180        1.217        0.359      130.478       37.834        0.084      349.797       30.490      860.512
06/29/2014  14:14:00      -11.621       86.654       -3.016       38.276       52.123       40.095     1465.016     2716.836     1607.617        0.672        0.289       87.430       34.458        0.155      349.932       30.725      860.501
06/29/2014  14:15:00       10.897       71.151        0.079       31.530       41.181       24.758      994.167     1695.849      612.938        0.424        0.165       71.980       21.139        0.086      349.786       30.470      860.495
06/29/2014  14:16:00        2.972       42.447       -2.948       23.661       36.896       25.961      559.852     1361.337      673.961        0.221        0.130       42.551       25.922        0.371      349.833       30.550      860.469
06/29/2014  14:17:00      -26.483      147.350       -9.010       35.155       61.028       29.771     1235.846     3724.442      886.319        1.417        0.292      149.711       27.616        0.034      349.833       30.550      860.444
06/29/2014  14:18:00      -24.397      133.765       -7.698       41.102       64.157       39.144     1689.335     4116.079     1532.276        1.294        0.367      135.971       35.964        0.070      349.939       30.737      860.442
06/29/2014  14:19:00      -30.034      149.584      -18.277       51.899       74.152       39.181     2693.498     5498.474     1535.172        1.667        0.486      152.570       29.904        0.038      350.023       30.881      860.429
06/29/2014  14:20:00       -9.715      132.649       -3.122       76.942       74.134       46.072     5920.067     5495.889     2122.641        1.562        0.677      133.004       40.724        0.094      350.096       31.008      860.430
06/29/2014  14:21:00      -19.148       93.677        9.065       36.560       58.784       32.886     1336.634     3455.597     1081.471        0.755        0.294       95.614       32.240        0.114      350.287       31.340      860.421
06/29/2014  14:22:00      -31.061       35.261       13.682       39.267       32.830       28.407     1541.936     1077.825      806.940        0.291        0.171       46.991       19.318        0.169      350.395       31.529      860.398
06/29/2014  14:23:00       15.542       46.912       15.494       61.453       46.736       37.481     3776.494     2184.277     1404.806        0.502        0.368       49.420       30.994        0.393      350.345       31.442      860.389
06/29/2014  14:24:00        5.541      125.074       -0.087       83.587      112.928       46.534     6986.839    12752.664     2165.455        1.879        1.095      125.197       54.274        0.188      349.875       30.622      860.366
06/29/2014  14:25:00        9.736      127.712      -10.580       40.773       65.703       32.230     1662.467     4316.909     1038.747        1.177        0.351      128.083       35.978        0.079      350.047       30.924      860.362
06/29/2014  14:26:00      -20.334      118.094       -8.244       27.699       48.105       26.085      767.250     2314.121      680.438        0.909        0.188      119.832       22.338        0.035      349.930       30.720      860.353
06/29/2014  14:27:00       -0.729       83.341      -21.799       59.299       66.157       25.761     3516.426     4376.781      663.646        0.799        0.428       83.344       28.270        0.115      349.594       30.135      860.351
06/29/2014  14:28:00      -30.971       17.598       25.538       99.884       64.056       29.275     9976.758     4103.125      857.001        0.843        0.747       35.621       41.214        1.339      350.124       31.056      860.334
06/29/2014  14:29:00     -137.321      -53.564       -5.861       56.010       33.446       28.951     3137.173     1118.658      838.143        1.343        0.255      147.398        3.413        0.001      349.840       30.564      860.336
06/29/2014  14:30:00      -76.108      -32.678       -5.150       55.456       43.318       31.061     3075.318     1876.490      964.766        0.640        0.296       82.827       26.440        0.102      350.129       31.064      860.349
06/29/2014  14:31:00       -4.954       67.552        6.176       50.267       69.047       43.248     2526.797     4767.480     1870.410        0.689        0.458       67.734       27.049        0.159      350.456       31.633      860.345
06/29/2014  14:32:00       26.284       49.567       41.672       39.427       51.877       31.037     1554.526     2691.185      963.284        0.505        0.260       56.104       25.103        0.200      350.481       31.677      860.364
06/29/2014  14:33:00        5.939       42.775       16.757       28.448       37.296       33.310      809.282     1391.019     1109.585        0.273        0.165       43.185       25.761        0.356      350.297       31.359      860.368
06/29/2014  14:34:00       -5.288       20.301        3.314       65.438       22.170       35.037     4282.179      491.513     1227.619        0.323        0.300       20.978       38.047        3.289      350.062       30.950      860.367
06/29/2014  14:35:00        0.325       16.136       -1.780       27.901       34.785       22.145      778.482     1209.969      490.384        0.137        0.124       16.139       10.426        0.417      350.296       31.356      860.365
06/29/2014  14:36:00       36.322       76.454        1.953       35.896       56.304       30.997     1288.530     3170.186      960.823        0.629        0.271       84.643       28.767        0.116      350.178       31.150      860.356
06/29/2014  14:37:00      -23.512       92.095      -16.750       48.574       74.361       36.702     2359.437     5529.527     1347.005        0.927        0.462       95.049       35.086        0.136      350.119       31.048      860.336
06/29/2014  14:38:00       13.834       30.370       11.651       43.536       49.760       33.441     1895.386     2476.013     1118.290        0.337        0.274       33.373       24.705        0.548      350.565       31.823      860.313
06/29/2014  14:39:00       36.651      215.073      -15.945       89.179      109.838       64.362     7952.859    12064.355     4142.503        3.600        1.208      218.173       62.527        0.082      350.433       31.591      860.295
06/29/2014  14:40:00       80.815      128.688       -6.278       83.979      107.671       67.486     7052.510    11592.963     4554.340        2.316        1.160      151.959       62.232        0.168      350.323       31.401      860.295
06/29/2014  14:41:00      165.507      141.587       -1.198      136.493       86.202       78.391    18630.403     7430.713     6145.219        3.982        1.610      217.806       57.025        0.069      350.063       30.949      860.292
06/29/2014  14:42:00       81.062      125.475      -18.140      110.077       63.507       45.901    12116.880     4033.091     2106.930        2.045        0.913      149.383       35.195        0.056      349.792       30.479      860.302
06/29/2014  14:43:00      -65.714       76.724      -19.061       35.788       43.917       27.518     1280.784     1928.674      757.263        0.727        0.198      101.020       20.958        0.043      350.229       31.239      860.281
06/29/2014  14:44:00      -76.493       52.296      -18.904       25.871       41.987       22.746      669.322     1762.914      517.360        0.595        0.147       92.661       16.619        0.032      350.095       31.006      860.253
06/29/2014  14:45:00       81.843       60.666       19.700      106.262       65.443       41.841    11291.654     4282.721     1750.696        1.404        0.866      101.875       14.956        0.022      350.279       31.326      860.248
06/29/2014  14:46:00      280.818      212.380       33.115      114.388       92.866       75.983    13084.562     8624.045     5773.381        7.627        1.374      352.085       43.760        0.015      349.972       30.789      860.221
06/29/2014  14:47:00      269.330      171.715       30.636       92.332       67.144       66.269     8525.265     4508.275     4391.573        6.019        0.871      319.413       33.136        0.011      350.062       30.945      860.213
06/29/2014  14:48:00      194.191      108.838       65.041      153.446       92.506       98.007    23545.600     8557.381     9605.304        4.774        2.085      222.612       76.216        0.117      350.114       31.037      860.166
06/29/2014  14:49:00      122.383       73.720      105.295      109.249      123.432       89.608    11935.334    15235.470     8029.660        3.334        1.760      142.872       91.742        0.412      350.291       31.344      860.137
06/29/2014  14:50:00      162.277      153.781      130.831       90.377       94.035       80.512     8168.041     8842.508     6482.149        4.529        1.175      223.568       69.107        0.096      350.101       31.014      860.109
06/29/2014  14:51:00      112.530       93.818       98.173       85.929       86.683       76.237     7383.772     7514.013     5812.070        2.590        1.035      146.509       62.373        0.181      350.227       31.235      860.101
06/29/2014  14:52:00       66.518       11.356       30.024       67.147       57.152       43.211     4508.781     3266.316     1867.228        0.755        0.482       67.480       39.051        0.335      350.409       31.553      860.104
06/29/2014  14:53:00       78.835      -52.801       33.325       98.420      105.006       68.062     9686.440    11026.269     4632.477        1.773        1.267       94.883       72.100        0.577      350.500       31.710      860.107
06/29/2014  14:54:00        0.080      -53.972        4.853       32.569       65.631       55.927     1060.731     4307.405     3127.808        0.571        0.425       53.972       50.953        0.891      350.480       31.676      860.119
06/29/2014  14:55:00        0.610      -64.743        6.119       54.847       51.484       31.419     3008.211     2650.556      987.134        0.544        0.332       64.746       18.428        0.081      350.312       31.385      860.123
06/29/2014  14:56:00        5.854      -15.682       19.148       30.047       58.531       31.091      902.827     3425.928      966.625        0.297        0.265       16.739       36.697        4.806      350.588       31.864      860.142
06/29/2014  14:57:00        4.834       21.932       10.849       43.057       22.554       30.603     1853.892      508.687      936.514        0.196        0.165       22.458       30.656        1.863      350.498       31.708      860.142
06/29/2014  14:58:00       11.811       73.570        9.864       87.094       42.151       31.681     7585.405     1776.747     1003.705        0.801        0.518       74.512       22.091        0.088      350.879       32.371      860.125
06/29/2014  14:59:00     -138.983       19.984       -8.001       98.076       78.013       44.951     9618.852     6085.983     2020.622        1.875        0.886      140.412       38.065        0.073      350.752       32.147      860.118
06/29/2014  15:00:00     -320.563      -15.453      -39.647      111.807       94.994       52.191    12500.859     9023.889     2723.903        6.441        1.212      320.935       54.747        0.029      350.552       31.797      860.123
06/29/2014  15:01:00     -225.653      -23.667      -29.014       78.508       80.490       36.030     6163.443     6478.609     1298.127        3.313        0.697      226.891       33.012        0.021      350.230       31.240      860.159
06/29/2014  15:02:00     -201.892      -85.843      -30.002       88.878       80.710       50.425     7899.360     6514.152     2542.723        3.299        0.848      219.384       27.961        0.016      350.274       31.313      860.157
06/29/2014  15:03:00     -144.793       30.525      -17.887      106.223       91.026       49.606    11283.288     8285.730     2460.733        2.212        1.101      147.975       44.919        0.092      350.412       31.556      860.166
06/29/2014  15:04:00      -97.346      191.227      -20.102       56.443       78.130       40.845     3185.813     6104.331     1668.340        2.870        0.548      214.579       43.381        0.041      350.408       31.549      860.169
06/29/2014  15:05:00      -72.061      107.101       -6.368       41.659       60.653       34.082     1735.491     3678.729     1161.609        1.164        0.329      129.087       28.245        0.048      350.638       31.950      860.167
06/29/2014  15:06:00      -81.092      141.946       -8.566       58.496       60.800       34.905     3421.725     3696.626     1218.359        1.757        0.417      163.477       36.940        0.051      350.435       31.598      860.163
06/29/2014  15:07:00       69.571       66.145        4.448       59.135       44.279       31.356     3496.928     1960.630      983.179        0.784        0.322       95.996       22.208        0.054      350.190       31.171      860.151
06/29/2014  15:08:00      -47.476       26.450       -5.764       38.418       29.227       21.854     1475.920      854.204      477.576        0.290        0.140       54.347       17.490        0.104      350.328       31.412      860.134
06/29/2014  15:09:00      -21.956        1.848       11.617       49.981       31.493       41.873     2498.142      991.798     1753.331        0.293        0.262       22.034       27.428        1.550      350.700       32.060      860.118
06/29/2014  15:10:00       31.319      -14.917       29.782       45.527       30.139       30.547     2072.719      908.356      933.143        0.300        0.196       34.690       23.585        0.462      350.704       32.067      860.109
06/29/2014  15:11:00       36.039        9.719       -5.545       45.087       29.367       20.316     2032.828      862.419      412.726        0.237        0.165       37.327       14.286        0.146      350.378       31.498      860.107
06/29/2014  15:12:00       85.406       24.272        2.788       33.062       32.823       31.293     1093.106     1077.343      979.262        0.552        0.157       88.788       24.670        0.077      350.198       31.183      860.083
06/29/2014  15:13:00       49.121       77.380       63.621       45.314       43.418       38.132     2053.352     1885.107     1454.069        0.892        0.270       91.655       19.740        0.046      350.336       31.424      860.050
06/29/2014  15:14:00       22.468       88.395       91.854       62.221       67.299       62.922     3871.454     4529.089     3959.160        1.456        0.618       91.206       53.892        0.349      350.425       31.579      860.022
06/29/2014  15:15:00      -25.551        7.148       54.018       60.925       75.414       59.687     3711.880     5687.241     3562.490        0.829        0.648       26.532       55.168        4.324      350.669       32.004      860.010
06/29/2014  15:16:00       82.385      -34.637       32.763       76.389       88.861       55.541     5835.247     7896.334     3084.767        1.294        0.841       89.370       58.044        0.422      350.547       31.790      860.007
06/29/2014  15:17:00       35.751      -13.057       47.226       64.855       73.159       45.726     4206.224     5352.212     2090.904        0.766        0.582       38.061       55.898        2.157      350.570       31.832      859.996
06/29/2014  15:18:00      115.474      107.732       68.947       67.548       53.513       61.661     4562.770     2863.662     3802.017        2.046        0.561      157.925       55.999        0.126      350.303       31.366      859.994
06/29/2014  15:19:00       92.497       97.305       13.079       74.640       73.362       55.772     5571.142     5381.987     3110.561        1.613        0.703      134.253       51.090        0.145      350.501       31.711      859.976
06/29/2014  15:20:00       73.112       33.878       31.769       60.143       79.757       45.999     3617.212     6361.235     2115.879        0.980        0.605       80.580       26.467        0.108      350.621       31.922      859.967
06/29/2014  15:21:00      -27.945      -22.417       -1.825       31.538       37.466       26.217      994.641     1403.711      687.331        0.219        0.154       35.825       13.830        0.149      350.729       32.109      859.962
06/29/2014  15:22:00      -29.887       19.052       18.467       44.735       25.065       25.381     2001.230      628.238      644.218        0.243        0.164       35.443       14.442        0.166      351.031       32.635      859.944
06/29/2014  15:23:00        3.048       20.951       -9.171       37.752       21.862       23.242     1425.196      477.936      540.205        0.149        0.122       21.171       23.980        1.283      350.650       31.972      859.936
06/29/2014  15:24:00       40.992       17.755       32.556       31.939       20.991       24.217     1020.094      440.621      586.458        0.255        0.102       44.672       14.823        0.110      350.396       31.530      859.930
06/29/2014  15:25:00       34.516       42.681       15.790       25.434       10.851       19.836      646.868      117.745      393.459        0.221        0.058       54.891        8.780        0.026      350.548       31.794      859.929
06/29/2014  15:26:00       -3.161       29.685        0.920       24.795       14.077       22.996      614.778      198.162      528.829        0.112        0.067       29.853       17.857        0.358      350.710       32.077      859.913
06/29/2014  15:27:00        0.819       48.327        0.861       20.288       35.172       18.588      411.589     1237.067      345.502        0.217        0.100       48.334       17.059        0.125      350.819       32.266      859.902
06/29/2014  15:28:00       -3.057       67.843        6.291       19.498       28.921       21.944      380.181      836.415      481.550        0.317        0.085       67.912       16.698        0.060      350.771       32.182      859.892
06/29/2014  15:29:00      -13.813       59.618        6.092       26.011       49.196       25.709      676.584     2420.236      660.965        0.377        0.188       61.197       21.174        0.120      351.032       32.638      859.881
06/29/2014  15:30:00      -34.506      151.822      -25.080       35.885       34.303       17.288     1287.754     1176.709      298.861        1.382        0.138      155.694        9.343        0.004      350.504       31.716      859.867
06/29/2014  15:31:00       -9.245       90.595       -9.874       40.216       91.894       29.646     1617.361     8444.502      878.914        0.966        0.547       91.065       43.591        0.229      350.603       31.889      859.857
06/29/2014  15:32:00      221.519      115.584       48.551       93.253      125.665       78.185     8696.170    15791.606     6112.967        4.769        1.530      249.860       47.066        0.035      350.558       31.808      859.814
06/29/2014  15:33:00       79.566       88.099       47.175      112.676       75.569       70.368    12695.796     5710.700     4951.668        1.983        1.168      118.711       23.078        0.038      350.745       32.135      859.807
06/29/2014  15:34:00       86.445       80.009        3.088       55.425       43.998       37.724     3071.973     1935.819     1423.073        1.016        0.322      117.789       27.829        0.056      350.779       32.196      859.810
06/29/2014  15:35:00       98.645       86.076       10.891      122.254       64.646       50.354    14946.082     4179.144     2535.490        1.946        1.083      130.920       47.413        0.131      350.984       32.553      859.784
06/29/2014  15:36:00       85.283      118.780       -2.847       64.580       75.486       49.621     4170.627     5698.169     2462.236        1.686        0.617      146.226       42.517        0.085      350.773       32.183      859.757
06/29/2014  15:37:00      -35.254      145.340       -5.465       88.112       80.741       56.116     7763.756     6519.101     3148.974        1.991        0.872      149.554       47.856        0.102      350.888       32.384      859.737
06/29/2014  15:38:00      -94.696      258.159      -23.200       70.475      107.892       59.205     4966.786    11640.671     3505.225        4.813        1.006      274.979       62.262        0.051      350.666       31.998      859.732
06/29/2014  15:39:00     -109.999      169.983      -18.061      115.773       90.990       56.384    13403.290     8279.103     3179.164        3.309        1.243      202.470       62.425        0.095      350.768       32.173      859.724
06/29/2014  15:40:00      130.487       67.634        6.852       86.212       58.978       44.159     7432.463     3478.381     1950.013        1.725        0.643      146.974       40.832        0.077      350.616       31.911      859.715
06/29/2014  15:41:00       23.483       70.062        4.872       44.544       68.261       33.272     1984.144     4659.606     1106.993        0.662        0.388       73.893       30.043        0.165      350.873       32.360      859.713
06/29/2014  15:42:00      -92.203      180.703      -27.226      101.641       92.063       53.443    10330.941     8475.510     2856.101        3.178        1.083      202.867       43.010        0.045      350.703       32.061      859.722
06/29/2014  15:43:00     -110.850      268.856      -38.683       51.410       79.479       46.346     2643.008     6316.847     2147.944        4.859        0.555      290.811       39.846        0.019      350.485       31.680      859.755
06/29/2014  15:44:00       29.163      237.029      -31.797       73.214       72.901       36.219     5360.233     5314.625     1311.836        3.501        0.599      238.816       30.641        0.016      350.392       31.517      859.740
06/29/2014  15:45:00      103.122      181.830      -22.236       60.005       77.227       53.301     3600.595     5964.020     2841.009        2.830        0.620      209.036       35.519        0.029      350.466       31.650      859.733
06/29/2014  15:46:00      -31.517       84.082      -21.511       72.568       40.762       29.687     5266.160     1661.539      881.323        0.817        0.390       89.795       25.589        0.081      350.635       31.944      859.729
06/29/2014  15:47:00     -180.680      -30.706      -22.496       63.521       58.986       36.652     4034.971     3479.348     1343.364        2.147        0.443      183.271       25.125        0.019      350.744       32.131      859.694
06/29/2014  15:48:00      -26.763      -41.169       20.277       80.822       50.197       48.532     6532.184     2519.762     2355.324        0.711        0.570       49.103       52.442        1.141      351.028       32.629      859.667
06/29/2014  15:49:00      -74.041      -66.949       -1.804       53.418       40.373       34.513     2853.517     1630.011     1191.156        0.782        0.284       99.821       32.998        0.109      350.691       32.044      859.674
06/29/2014  15:50:00        5.730       -8.387       -2.912       47.554       46.395       42.515     2261.342     2152.527     1807.502        0.317        0.311       10.158       32.068        9.967      350.700       32.059      859.679
06/29/2014  15:51:00        6.057      -60.464       -4.132       55.907       35.202       28.331     3125.541     1239.205      802.653        0.444        0.258       60.767       13.396        0.049      350.754       32.152      859.686
06/29/2014  15:52:00      -67.211      -62.428       -0.838       48.682       30.903       35.157     2369.959      954.970     1236.049        0.649        0.228       91.731       30.228        0.109      350.824       32.275      859.672
06/29/2014  15:53:00      -62.150     -150.230      -10.461       65.039       74.644       37.401     4230.057     5571.745     1398.842        1.887        0.560      162.578       32.998        0.041      350.572       31.835      859.661
06/29/2014  15:54:00     -138.775     -111.062       -0.449       83.772       65.532       40.813     7017.726     4294.414     1665.730        2.228        0.649      177.745       45.109        0.064      350.700       32.057      859.648
06/29/2014  15:55:00      -81.241     -149.242      -14.276       48.495       57.591       31.977     2351.726     3316.720     1022.526        1.788        0.335      169.922       28.552        0.028      350.569       31.831      859.662
06/29/2014  15:56:00      -58.240      -19.862       -9.897       61.824       59.053       28.607     3822.197     3487.284      818.342        0.600        0.406       61.534       21.104        0.118      350.605       31.893      859.652
06/29/2014  15:57:00      -70.750       -0.340      -13.945       35.689       36.644       22.372     1273.677     1342.759      500.511        0.416        0.156       70.751       26.027        0.135      350.636       31.948      859.633
06/29/2014  15:58:00      -57.466      -40.642        4.327       45.845       39.235       25.309     2101.719     1539.378      640.558        0.463        0.214       70.386       19.045        0.073      351.085       32.728      859.617
06/29/2014  15:59:00     -137.877     -104.168       -5.194       81.879       49.138       46.120     6704.105     2414.536     2127.011        2.057        0.562      172.804       39.432        0.052      350.879       32.367      859.621
06/29/2014  16:00:00      -25.704      -80.063       -0.801       38.055       51.668       30.538     1448.218     2669.595      932.566        0.606        0.253       84.088       25.433        0.091      351.065       32.694      859.619
06/29/2014  16:01:00      -69.227     -143.368       -9.139       54.980       62.417       42.243     3022.830     3895.926     1784.449        1.707        0.435      159.207       17.426        0.012      350.897       32.400      859.613
06/29/2014  16:02:00       -1.022     -133.768      -11.720       68.903       44.538       42.102     4747.667     1983.612     1772.546        1.327        0.425      133.772       29.950        0.050      350.699       32.056      859.600
06/29/2014  16:03:00      -46.655     -155.731      -10.972       76.717       37.519       22.009     5885.559     1407.656      484.409        1.716        0.389      162.569       18.591        0.013      350.550       31.796      859.594
06/29/2014  16:04:00        2.314      -50.795        2.546       39.573       31.327       23.821     1566.013      981.367      567.459        0.285        0.156       50.847       20.902        0.169      350.819       32.267      859.579
06/29/2014  16:05:00      -56.745      -10.301        0.055       37.737       23.510       26.529     1424.084      552.699      703.788        0.300        0.134       57.672       25.066        0.189      350.791       32.217      859.573
06/29/2014  16:06:00      -79.998        4.023      -14.838       23.622       29.182       31.351      558.006      851.582      982.888        0.451        0.120       80.099       20.323        0.064      351.070       32.703      859.553
06/29/2014  16:07:00      -75.547       14.639        4.582       58.858       54.153       27.436     3464.279     2932.566      752.723        0.654        0.357       76.952       21.750        0.080      351.421       33.314      859.535
06/29/2014  16:08:00     -247.225        3.785      -32.371       90.367      101.755       50.292     8166.210    10354.063     2529.327        4.161        1.052      247.254       46.280        0.035      351.260       33.030      859.512
06/29/2014  16:09:00     -237.518       51.438      -21.408       48.083       61.118       28.230     2311.992     3735.374      796.942        3.318        0.342      243.024       19.932        0.007      350.912       32.423      859.526
06/29/2014  16:10:00     -188.838       26.230      -10.637       81.549       52.493       37.728     6650.279     2755.504     1423.427        2.364        0.541      190.651       43.730        0.053      351.024       32.618      859.523
06/29/2014  16:11:00     -226.167       50.533      -15.713       91.639       72.133       53.168     8397.693     5203.191     2826.785        3.519        0.821      231.744       42.974        0.034      351.243       33.001      859.503
06/29/2014  16:12:00     -231.304        6.171      -25.703       96.431       59.542       36.000     9298.913     3545.232     1296.006        3.417        0.707      231.386       30.465        0.017      351.126       32.797      859.497
06/29/2014  16:13:00      -79.079      -21.444        6.980      111.955       67.356       53.552    12533.972     4536.778     2867.784        1.335        0.997       81.935       54.001        0.434      351.504       33.459      859.488
06/29/2014  16:14:00      -88.372      -95.051        4.313      108.060      105.583       57.128    11676.890    11147.746     3263.659        2.147        1.304      129.786       65.966        0.258      351.295       33.093      859.501
06/29/2014  16:15:00       -0.158      -67.074       18.989       64.415       57.547       47.260     4149.322     3311.651     2233.469        0.728        0.485       67.074       37.254        0.308      351.224       32.971      859.505
06/29/2014  16:16:00       20.513     -112.083       -5.781       48.342       40.134       48.714     2336.923     1610.746     2373.069        0.967        0.316      113.945       37.682        0.109      350.765       32.171      859.521
06/29/2014  16:17:00       17.732      -72.662      -11.484       62.314       36.485       33.910     3883.005     1331.141     1149.885        0.604        0.318       74.794       35.736        0.228      350.728       32.107      859.539
06/29/2014  16:18:00       70.519       29.932       44.339       47.527       43.000       30.231     2258.828     1848.988      913.890        0.643        0.251       76.608       27.613        0.130      350.535       31.771      859.532
06/29/2014  16:19:00       79.832       67.705       67.944       42.488       38.738       28.168     1805.250     1500.654      793.416        0.984        0.205      104.677       22.645        0.047      350.366       31.477      859.516
06/29/2014  16:20:00       33.272       74.832       79.233       44.356       48.811       37.551     1967.436     2382.486     1410.096        0.937        0.288       81.896       26.166        0.102      350.589       31.867      859.499
06/29/2014  16:21:00       91.989       43.657       50.686       83.416       58.854       62.130     6958.276     3463.819     3860.115        1.361        0.714      101.823       41.170        0.163      350.955       32.502      859.505
06/29/2014  16:22:00      155.484       95.191       40.246       51.043       44.357       34.328     2605.349     1967.519     1178.412        2.030        0.288      182.309       23.389        0.016      350.996       32.573      859.511
06/29/2014  16:23:00       97.912       32.186       11.833       48.212       43.057       27.836     2324.383     1853.892      774.825        0.786        0.248      103.066       26.316        0.065      350.908       32.421      859.517
06/29/2014  16:24:00       41.831       25.292       -8.244       28.223       33.493       40.617      796.512     1121.778     1649.742        0.301        0.178       48.882       22.833        0.218      350.952       32.498      859.511
06/29/2014  16:25:00       41.413      -18.866       21.414       50.982       49.788       35.688     2599.122     2478.885     1273.649        0.444        0.318       45.508       32.995        0.526      350.654       31.979      859.498
06/29/2014  16:26:00       14.059        2.463       38.724       69.227       71.791       47.476     4792.393     5153.981     2253.934        0.695        0.610       14.273       15.313        1.151      350.889       32.388      859.481
06/29/2014  16:27:00       65.856     -165.101       -6.388       61.872       69.763       47.020     3828.185     4866.824     2210.881        2.127        0.545      177.751       42.123        0.056      351.028       32.626      859.487
06/29/2014  16:28:00       19.095      -56.678        1.775       32.683       56.914       32.867     1068.208     3239.174     1080.257        0.448        0.269       59.808       19.614        0.108      351.015       32.607      859.514
06/29/2014  16:29:00     -124.800      -54.742       -1.847       98.236       56.520       31.413     9650.262     3194.535      986.769        1.620        0.692      136.278       43.574        0.102      351.172       32.880      859.525
06/29/2014  16:30:00     -167.246     -172.223      -12.324      109.796       88.541       49.629    12055.211     7839.592     2463.041        4.007        1.118      240.067       54.093        0.051      351.097       32.745      859.542
06/29/2014  16:31:00     -431.303     -265.161      -17.191      173.881      133.905       70.067    30234.561    17930.613     4909.330       15.484        2.654      506.293       71.732        0.020      351.137       32.815      859.512
06/29/2014  16:32:00     -258.525     -155.154       -9.214      163.895      148.467       71.541    26861.514    22042.479     5118.062        7.250        2.701      301.510       87.272        0.084      351.277       33.061      859.554
06/29/2014  16:33:00     -142.738     -188.605       -1.431      135.676      161.679       50.129    18407.946    26140.117     2512.918        5.150        2.353      236.529       62.074        0.069      351.061       32.683      859.559
06/29/2014  16:34:00     -139.448      -79.017       11.407      119.718      102.816       60.349    14332.435    10571.085     3642.011        2.718        1.427      160.279       56.157        0.123      351.351       33.191      859.576
06/29/2014  16:35:00     -174.644       14.285      -10.620      163.842       49.018       48.151    26844.085     2402.756     2318.530        3.119        1.578      175.228       76.317        0.190      351.308       33.115      859.540
06/29/2014  16:36:00     -387.659      -42.167      -29.941      204.041      119.060       67.658    41632.536    14175.385     4577.568       10.666        3.019      389.946       90.900        0.054      351.103       32.758      859.486
06/29/2014  16:37:00     -242.534       65.261      -12.790      133.751      168.931       73.089    17889.455    28537.785     5341.992        5.750        2.588      251.161       66.546        0.070      351.269       33.048      859.426
06/29/2014  16:38:00     -595.808      -53.881      -33.989      228.442      172.330      104.820    52185.668    29697.464    10987.266       22.594        4.644      598.240      120.684        0.041      351.252       33.017      859.388
06/29/2014  16:39:00     -454.322      -38.566      -24.030      235.080      148.129       75.526    55262.742    21942.320     5704.111       14.568        4.145      455.956      106.209        0.054      351.216       32.954      859.412
06/29/2014  16:40:00     -333.473     -227.556      -15.389      183.463      132.303       78.549    33658.709    17504.020     6169.972       11.027        2.867      403.715       89.934        0.050      351.298       33.097      859.438
06/29/2014  16:41:00     -278.805      -59.314       -7.339      149.487      115.101       67.003    22346.454    13248.259     4489.421        6.069        2.004      285.045       54.603        0.037      351.419       33.307      859.427
06/29/2014  16:42:00      -90.230      -71.851       15.559      129.460      114.127       63.704    16759.764    13024.885     4058.169        2.369        1.692      115.343       68.599        0.354      351.588       33.605      859.417
06/29/2014  16:43:00     -275.001     -120.177       -4.306      148.986      123.991       63.309    22196.848    15373.797     4008.025        6.583        2.079      300.113       52.395        0.030      351.425       33.319      859.396
06/29/2014  16:44:00     -154.120      -37.310      -13.435       73.105       81.585       39.594     5344.311     6656.166     1567.717        1.944        0.678      158.571       22.071        0.019      351.521       33.487      859.386
06/29/2014  16:45:00     -257.753       19.586       -9.716      153.920      120.792       62.604    23691.357    14590.718     3919.309        5.455        2.110      258.496       72.393        0.078      351.599       33.622      859.409
06/29/2014  16:46:00     -183.430      -78.919       10.479      149.885      104.741       62.688    22465.499    10970.654     3929.837        3.867        1.868      199.687       70.437        0.124      351.587       33.602      859.448
06/29/2014  16:47:00     -184.673     -298.210       -1.768      134.292      166.847       53.276    18034.361    27838.084     2838.372        8.587        2.436      350.761       58.070        0.027      351.285       33.074      859.427
06/29/2014  16:48:00     -179.409     -142.737       29.218      206.359      174.495       96.438    42584.116    30448.432     9300.222        6.786        4.117      229.263      111.054        0.235      351.398       33.272      859.404
06/29/2014  16:49:00     -200.442      -57.012       12.294      143.687      160.573       81.650    20645.974    25783.692     6666.801        4.833        2.655      208.392       83.861        0.162      351.693       33.788      859.419
06/29/2014  16:50:00     -251.647     -159.611       -6.736      172.370      173.642       69.498    29711.365    30151.545     4829.962        7.676        3.235      297.997       83.699        0.079      351.507       33.462      859.459
06/29/2014  16:51:00     -196.405     -170.294        6.373      145.352      127.041       67.960    21127.138    16139.400     4618.532        5.474        2.094      259.952       70.889        0.074      351.291       33.085      859.446
06/29/2014  16:52:00     -246.255     -204.068        2.503      150.119      178.919       63.201    22535.680    32011.928     3994.396        8.041        2.927      319.821       72.116        0.051      351.362       33.208      859.451
06/29/2014  16:53:00      -78.614     -266.323       14.852      175.573      124.029       65.804    30825.894    15383.312     4330.201        6.393        2.527      277.684       34.397        0.015      351.334       33.158      859.434
06/29/2014  16:54:00     -286.759     -336.977       -4.597      163.276      183.739       80.496    26659.013    33759.964     6479.592       13.134        3.345      442.475       82.502        0.035      351.184       32.897      859.442
06/29/2014  16:55:00     -198.576     -232.022        4.399      130.085      167.766       68.549    16922.113    28145.472     4698.989        7.152        2.488      305.396       68.480        0.050      351.143       32.827      859.423
06/29/2014  16:56:00     -206.170     -338.170      -17.306      141.558      137.281       72.403    20038.718    18845.955     5242.208       10.064        2.206      396.062       66.735        0.028      351.223       32.965      859.429
06/29/2014  16:57:00     -201.092     -131.929        4.451      172.407       91.656       70.282    29724.324     8400.843     4939.629        5.046        2.153      240.506       84.438        0.123      351.518       33.481      859.422
06/29/2014  16:58:00     -258.987      -89.065       -3.206      141.411      108.001       61.393    19997.133    11664.177     3769.058        5.522        1.772      273.873       43.742        0.026      351.737       33.862      859.430
06/29/2014  16:59:00     -210.594     -179.235       27.923      180.716      180.400       88.846    32658.238    32544.065     7893.532        7.516        3.655      276.541       99.814        0.130      351.381       33.240      859.431
06/29/2014  17:00:00     -326.112     -194.122        2.735      176.240      126.747       76.450    31060.434    16064.892     5844.621        9.850        2.648      379.516       83.280        0.048      351.225       32.968      859.435
06/29/2014  17:01:00     -285.341     -185.515        6.923      142.451      116.873       74.865    20292.355    13659.203     5604.722        7.771        1.978      340.345       76.242        0.050      351.223       32.965      859.427
06/29/2014  17:02:00     -224.294     -166.793       -5.164      182.183      141.329       86.155    33190.775    19973.752     7422.669        6.936        3.029      279.513       99.715        0.127      351.252       33.017      859.423
06/29/2014  17:03:00     -210.082      -46.483       11.911      115.661      102.579       59.975    13377.447    10522.519     3596.975        3.696        1.375      215.163       60.030        0.078      351.426       33.322      859.416
06/29/2014  17:04:00     -347.158     -266.982       -0.844      212.352      171.519       92.157    45093.582    29418.809     8492.996       13.739        4.150      437.948      108.515        0.061      351.306       33.111      859.406
06/29/2014  17:05:00     -207.333     -139.449        7.062      170.855      112.752       65.955    29191.431    12713.086     4350.095        5.436        2.313      249.866       80.929        0.105      351.433       33.332      859.414
06/29/2014  17:06:00     -266.997     -192.727       -8.564      172.603      125.138       83.757    29791.864    15659.530     7015.313        8.048        2.623      329.289       83.550        0.064      351.356       33.198      859.406
06/29/2014  17:07:00     -332.462     -229.574       -7.441      161.213      123.302       77.559    25989.683    15203.492     6015.410       10.524        2.360      404.024       90.380        0.050      351.201       32.928      859.431
06/29/2014  17:08:00     -278.690     -102.531       -3.933      174.280      111.600       65.950    30373.475    12454.465     4349.440        6.768        2.359      296.952       57.884        0.038      351.295       33.091      859.409
06/29/2014  17:09:00     -357.739     -128.586      -12.657      156.423      184.191       78.092    24468.033    33926.285     6098.369       10.457        3.225      380.147       84.850        0.050      351.421       33.312      859.391
06/29/2014  17:10:00     -137.498      -69.502       22.007      137.996       87.347       67.593    19043.002     7629.463     4568.794        2.773        1.562      154.066       75.313        0.239      351.650       33.711      859.419
06/29/2014  17:11:00     -274.035     -173.178        4.349      193.056      177.961       82.084    37270.462    31670.155     6737.772        9.038        3.784      324.170       97.700        0.091      351.478       33.412      859.430
06/29/2014  17:12:00     -365.157     -278.029      -19.586      159.720      166.152       78.134    25510.480    27606.532     6104.929       13.511        2.961      458.955       75.701        0.027      351.106       32.760      859.453
06/29/2014  17:13:00     -435.911     -244.766      -17.459      218.333      151.479       91.432    47669.319    22945.905     8359.785       16.459        3.949      499.929       89.971        0.032      351.006       32.588      859.454
06/29/2014  17:14:00     -281.468     -127.330       11.525      201.856      138.707       84.876    40745.888    19239.770     7203.908        8.137        3.359      308.929       95.581        0.096      351.119       32.785      859.455
06/29/2014  17:15:00     -451.840     -227.359      -21.589      165.631      134.314       81.235    27433.576    18040.178     6599.117       15.419        2.604      505.818       84.191        0.028      350.987       32.554      859.441
06/29/2014  17:16:00     -461.969     -141.139      -20.206      157.211      128.973       72.953    24715.340    16634.161     5322.175       14.020        2.334      483.048       78.661        0.027      350.959       32.507      859.446
06/29/2014  17:17:00     -287.715     -122.941       -2.634      133.342      118.239       60.001    17780.183    13980.535     3600.075        6.663        1.768      312.881       58.865        0.035      350.998       32.574      859.462
06/29/2014  17:18:00     -233.156     -189.234       -9.689      163.437      129.674       68.035    26711.556    16815.308     4628.711        6.920        2.408      300.285       76.878        0.066      351.147       32.832      859.484
06/29/2014  17:19:00     -422.276     -215.522      -27.967      179.658      159.047       82.869    32277.104    25295.828     6867.327       14.498        3.222      474.096       84.860        0.032      350.950       32.491      859.473
06/29/2014  17:20:00     -280.147     -112.172      -16.638       96.118       77.711       39.985     9238.659     6038.988     1598.816        5.411        0.844      301.770       35.939        0.014      350.907       32.415      859.458
06/29/2014  17:21:00      -57.983      -75.673       -0.318       67.848       78.662       41.673     4603.318     6187.766     1736.657        1.081        0.626       95.333       25.304        0.070      351.051       32.669      859.452
06/29/2014  17:22:00      -47.849     -181.056       -4.219      117.242      182.070       50.904    13745.604    33149.555     2591.176        4.228        2.474      187.273       56.023        0.089      351.061       32.686      859.458
06/29/2014  17:23:00     -168.290     -190.046        5.181      200.101      116.985       77.985    40040.492    13685.434     6081.614        6.213        2.990      253.848       51.429        0.041      351.152       32.842      859.435
06/29/2014  17:24:00     -319.145     -132.522       -8.604      172.169       89.115       49.417    29642.034     7941.564     2442.005        7.975        2.001      345.565       69.521        0.040      350.904       32.410      859.409
06/29/2014  17:25:00     -385.413     -277.656       -4.344      162.224      217.242       67.021    26316.666    47194.173     4491.852       15.182        3.900      475.012       52.967        0.012      351.134       32.810      859.431
06/29/2014  17:26:00     -320.069     -178.669      -12.889      122.487      126.550       63.675    15002.968    16014.926     4054.555        8.480        1.754      366.560       54.265        0.022      351.042       32.650      859.460
06/29/2014  17:27:00     -119.136     -267.352        1.695      142.865      188.613       78.858    20410.358    35574.955     6218.581        7.393        3.110      292.695       90.926        0.097      351.031       32.632      859.451
06/29/2014  17:28:00     -139.043     -319.765       -5.427      164.433      172.338       96.354    27038.191    29700.500     9284.158        9.381        3.301      348.687       95.108        0.074      351.141       32.822      859.445
06/29/2014  17:29:00      -95.225     -109.791       23.110      136.561       92.296       65.942    18648.845     8518.503     4348.367        2.658        1.576      145.333       66.842        0.212      351.327       33.148      859.474
06/29/2014  17:30:00     -197.117      -45.748       -8.969      142.556       75.813       48.884    20322.258     5747.546     2389.611        3.474        1.423      202.357       49.772        0.060      351.285       33.076      859.442
06/29/2014  17:31:00     -261.475     -201.080        8.834      164.421      153.508       73.717    27034.372    23564.818     5434.131        8.245        2.802      329.852       73.488        0.050      351.356       33.198      859.454
06/29/2014  17:32:00     -309.472     -145.933      -19.556      132.688       88.438       60.000    17606.114     7821.320     3599.991        7.323        1.451      342.154       45.296        0.018      351.190       32.908      859.467
06/29/2014  17:33:00     -204.649      -54.099        2.154      115.755       89.092       65.721    13399.313     7937.323     4319.230        3.523        1.283      211.679       58.765        0.077      351.232       32.979      859.467
06/29/2014  17:34:00     -196.854      -61.798        5.106      133.804       99.423       48.202    17903.413     9884.917     2323.459        3.635        1.506      206.326       58.554        0.081      351.340       33.172      859.463
06/29/2014  17:35:00     -212.463     -182.318       -7.024      112.779       83.748       58.232    12719.075     7013.777     3390.918        5.077        1.156      279.965       56.575        0.041      350.922       32.441      859.457
06/29/2014  17:36:00     -145.654      -93.634       13.231      137.488       88.513       45.869    18902.968     7834.636     2103.974        2.949        1.442      173.155       44.843        0.067      351.147       32.836      859.451
06/29/2014  17:37:00     -248.651      -73.974       -8.052      130.472      125.453       63.720    17022.889    15738.435     4060.188        5.209        1.841      259.421       65.063        0.063      351.137       32.816      859.457
06/29/2014  17:38:00     -396.153     -122.298      -17.597      154.507      132.865       63.190    23872.391    17653.039     3992.988       10.885        2.276      414.601       71.129        0.029      351.129       32.803      859.450
06/29/2014  17:39:00     -196.625     -184.607        2.240      185.351      114.493       62.069    34355.148    13108.568     3852.604        6.202        2.566      269.706       70.441        0.068      351.145       32.830      859.435
06/29/2014  17:40:00     -267.464      -30.273        3.488      212.522      140.239       89.505    45165.811    19667.036     8011.180        7.264        3.642      269.172      106.255        0.156      351.246       33.006      859.440
06/29/2014  17:41:00     -258.115     -194.268       -0.840      152.157      133.352       64.116    23151.706    17782.872     4110.838        7.470        2.252      323.053       75.461        0.055      351.251       33.013      859.453
06/29/2014  17:42:00     -418.175     -270.607      -18.198      216.034      156.014       84.017    46670.575    24340.343     7058.774       16.324        3.903      498.094       98.675        0.039      351.073       32.704      859.424
06/29/2014  17:43:00     -501.727     -221.212        3.158      201.426      161.155       92.136    40572.495    25970.916     8489.077       18.784        3.752      548.329       97.734        0.032      351.017       32.605      859.434
06/29/2014  17:44:00     -466.458     -232.872      -29.869      202.700      189.287      101.032    41087.408    35829.600    10207.424       17.990        4.356      521.356      122.175        0.055      350.767       32.174      859.431
06/29/2014  17:45:00     -362.071     -207.518       18.077      287.097      205.723       94.362    82424.585    42321.877     8904.227       15.405        6.683      417.324      129.181        0.096      350.894       32.394      859.416
06/29/2014  17:46:00     -137.367     -113.763       26.751      145.839      108.297       67.648    21269.083    11728.262     4576.186        3.504        1.879      178.358       66.986        0.141      351.117       32.782      859.434
06/29/2014  17:47:00     -322.571     -234.851       -2.208      200.490      152.058       88.466    40196.432    23121.709     7826.200       11.517        3.557      399.008      107.081        0.072      350.995       32.569      859.423
06/29/2014  17:48:00     -285.433     -157.627       20.194      210.280      106.451       67.468    44217.795    11331.732     4551.934        8.340        3.005      326.065       86.600        0.071      350.970       32.525      859.422
06/29/2014  17:49:00     -130.849     -171.873       13.485      125.661      147.649       46.886    15790.723    21800.113     2198.304        4.331        1.989      216.013       46.256        0.046      351.120       32.787      859.438
06/29/2014  17:50:00     -229.396     -213.256       -6.491      129.460      135.367       61.629    16759.801    18324.276     3798.194        6.851        1.944      313.210       66.290        0.045      351.081       32.716      859.424
06/29/2014  17:51:00     -107.987     -122.765       12.548      105.605       87.750       51.033    11152.456     7699.980     2604.394        2.417        1.073      163.501       51.944        0.101      351.058       32.679      859.411
06/29/2014  17:52:00      -16.555     -131.439      -17.298       62.341       63.358       47.188     3886.347     4014.212     2226.747        1.399        0.506      132.478       31.304        0.056      351.111       32.774      859.379
06/29/2014  17:53:00     -118.738      -78.455        4.941      141.809       95.922       50.051    20109.669     9201.117     2505.145        2.604        1.591      142.316       44.108        0.096      351.176       32.884      859.341
06/29/2014  17:54:00     -302.526     -125.661       -2.075      255.037      108.165       60.281    65043.690    11699.683     3633.829        9.383        4.019      327.586       78.431        0.057      351.295       33.094      859.372
06/29/2014  17:55:00     -415.743     -127.475      -11.600      165.293      140.524       75.674    27321.740    19746.856     5726.571       12.100        2.640      434.848       77.816        0.032      351.080       32.716      859.413
06/29/2014  17:56:00     -352.185     -120.528       -8.849      204.994      130.504       75.568    42022.537    17031.218     5710.582       10.169        3.238      372.238       78.486        0.044      351.097       32.746      859.405
06/29/2014  17:57:00     -411.759      -41.344       13.434      293.345      163.216       99.067    86051.559    26639.309     9814.213       14.695        6.125      413.830      126.853        0.094      351.060       32.682      859.418
06/29/2014  17:58:00     -345.896     -236.799       -7.566      195.084      140.391       84.661    38057.629    19709.633     7167.568       12.034        3.247      419.187       86.978        0.043      350.969       32.524      859.453
06/29/2014  17:59:00     -415.447     -267.670       -0.629      189.352      149.621       84.720    35854.325    22386.518     7177.490       15.482        3.271      494.210       88.976        0.032      350.866       32.345      859.431
06/29/2014  18:00:00     -245.698       10.310       -6.759      164.474      124.992       70.910    27051.730    15622.954     5028.194        5.410        2.385      245.915       71.985        0.086      351.132       32.809      859.455
06/29/2014  18:01:00     -479.970     -276.875      -26.838      202.739      162.069       90.530    41102.980    26266.413     8195.725       19.165        3.778      554.103      102.940        0.035      350.866       32.344      859.459
06/29/2014  18:02:00     -299.765     -138.208       -9.720      178.857      146.924       85.941    31989.979    21586.601     7385.922        8.500        3.048      330.092       99.848        0.091      350.925       32.448      859.459
06/29/2014  18:03:00     -257.611      -77.495        9.736      172.174      177.289       76.320    29643.781    31431.487     5824.674        6.967        3.345      269.015       67.343        0.063      351.046       32.658      859.474
06/29/2014  18:04:00     -343.801     -171.086      -12.819      161.129      142.054       72.513    25962.665    20179.282     5258.180        9.951        2.570      384.018       76.107        0.039      350.857       32.329      859.489
06/29/2014  18:05:00     -178.517      -54.498        1.368      101.140       95.050       48.848    10229.248     9034.562     2386.128        2.824        1.082      186.650       51.203        0.075      351.032       32.636      859.507
06/29/2014  18:06:00     -155.151      -64.788       -0.908      128.309       88.724       55.825    16463.196     7871.885     3116.463        2.786        1.373      168.135       57.638        0.118      351.016       32.608      859.495
06/29/2014  18:07:00     -247.306      -63.850        8.595      129.588      106.802       62.986    16793.153    11406.742     3967.248        4.873        1.608      255.415       63.041        0.061      351.027       32.624      859.490
06/29/2014  18:08:00      -85.149      -40.640       17.405      115.282       86.978       49.617    13290.050     7565.139     2461.835        1.626        1.166       94.350       52.125        0.305      351.027       32.628      859.497
06/29/2014  18:09:00     -253.089      -83.870        3.434      130.098      104.385       54.862    16925.523    10896.309     3009.860        5.096        1.542      266.623       59.762        0.050      351.049       32.662      859.481
06/29/2014  18:10:00     -226.660     -181.849        2.593      136.863      193.487       62.341    18731.424    37437.150     3886.428        7.224        3.003      290.592       63.153        0.047      351.065       32.691      859.496
06/29/2014  18:11:00     -494.038     -248.768      -15.331      221.240      195.303       95.892    48947.174    38143.110     9195.218       20.122        4.814      553.136       94.471        0.029      350.842       32.303      859.475
06/29/2014  18:12:00     -385.632      -85.527       -7.332      182.726      145.867       82.713    33388.916    21277.192     6841.443       10.878        3.075      395.002       86.654        0.048      350.958       32.506      859.505
06/29/2014  18:13:00     -286.052     -175.337       -3.302      182.536      165.457       96.284    33319.397    27376.017     9270.698        9.126        3.498      335.513      100.302        0.089      350.829       32.281      859.500
06/29/2014  18:14:00     -271.898      -71.999        1.879      221.602      131.221       85.135    49107.458    17219.073     7247.893        7.633        3.679      281.270      109.370        0.151      350.928       32.454      859.500
06/29/2014  18:15:00     -423.567     -127.324       -9.921      197.376      133.529       85.282    38957.265    17830.056     7272.938       12.988        3.203      442.290      101.146        0.052      350.784       32.201      859.493
06/29/2014  18:16:00     -281.296     -181.984      -17.841      173.313       91.598       66.000    30037.313     8390.169     4355.955        7.767        2.139      335.031       73.331        0.048      350.866       32.346      859.484
06/29/2014  18:17:00     -302.585     -126.775       -7.572      147.360      122.947       52.817    21714.893    15115.878     2789.645        7.365        1.981      328.069       59.164        0.033      351.000       32.578      859.505
06/29/2014  18:18:00     -340.514     -266.671      -10.062      184.996      199.206      102.147    34223.563    39682.997    10434.018       13.574        4.217      432.508      115.185        0.071      350.873       32.356      859.521
06/29/2014  18:19:00     -341.312     -118.552      -16.687      166.025      162.636       73.544    27564.295    26450.309     5408.654        9.512        2.971      361.315       71.968        0.040      350.802       32.233      859.538
06/29/2014  18:20:00     -294.658      -71.928       -7.104      143.311      135.540       73.706    20538.147    18371.163     5432.619        6.819        2.217      303.309       81.572        0.072      350.750       32.142      859.543
06/29/2014  18:21:00     -194.071      -97.416        5.807      106.071      112.959       59.816    11251.086    12759.745     3577.930        3.738        1.379      217.148       64.460        0.088      350.754       32.152      859.512
06/29/2014  18:22:00     -159.327      -76.106       10.374       91.626       94.494       49.177     8395.273     8929.182     2418.401        2.551        0.987      176.571       39.963        0.051      350.796       32.222      859.505
06/29/2014  18:23:00     -203.022      -92.888       12.378      147.139       97.509       58.629    21649.859     9507.941     3437.334        4.229        1.730      223.262       63.447        0.081      350.834       32.289      859.517
06/29/2014  18:24:00     -245.407     -181.635      -13.251      114.896      141.610       71.520    13201.136    20053.416     5115.134        6.587        1.918      305.313       52.625        0.030      350.853       32.323      859.506
06/29/2014  18:25:00     -396.567     -148.146      -11.375      159.644      118.309       77.020    25486.338    13997.024     5932.050       11.237        2.271      423.335       79.632        0.035      350.814       32.254      859.524
06/29/2014  18:26:00     -261.500     -164.510      -12.391      127.528      115.772       65.326    16263.428    13403.136     4267.434        6.476        1.697      308.943       69.157        0.050      350.904       32.411      859.525
06/29/2014  18:27:00     -204.797     -162.607       -0.631      121.514      128.310       63.960    14765.558    16463.518     4090.831        5.185        1.766      261.501       59.773        0.052      350.908       32.416      859.516
06/29/2014  18:28:00     -251.225     -150.480        7.448      166.155       98.289       66.535    27607.430     9660.719     4426.931        6.375        2.085      292.845       74.149        0.064      350.877       32.364      859.500
06/29/2014  18:29:00     -326.893     -179.425      -21.453      179.972      122.121       70.183    32389.907    14913.423     4925.631        9.586        2.611      372.898       78.756        0.045      350.820       32.264      859.507
06/29/2014  18:30:00     -318.933     -191.071       -1.698      193.725      165.729       75.629    37529.542    27465.960     5719.709       10.446        3.536      371.788       96.429        0.067      350.802       32.233      859.521
06/29/2014  18:31:00     -273.936     -217.570       -4.411      216.128      130.151       65.725    46711.366    16939.286     4319.764        9.517        3.399      349.825       62.388        0.032      350.804       32.237      859.524
06/29/2014  18:32:00     -438.439     -186.046      -26.393      159.440      153.645       69.420    25421.228    23606.676     4819.075       14.068        2.692      476.280       69.746        0.021      350.757       32.154      859.514
06/29/2014  18:33:00     -350.639     -202.149       -2.956      198.488      164.481       77.426    39397.582    27053.866     5994.753       11.812        3.622      404.737       77.448        0.037      350.826       32.275      859.506
06/29/2014  18:34:00     -150.747     -150.695       22.239      158.783      147.861       67.390    25211.974    21862.944     4541.474        4.876        2.581      213.151       71.582        0.113      350.909       32.419      859.518
06/29/2014  18:35:00     -252.740     -147.923       11.712      184.883      144.915       82.053    34181.585    21000.487     6732.678        7.389        3.096      292.845       88.743        0.092      350.801       32.230      859.503
06/29/2014  18:36:00     -308.849     -193.726      -12.512      136.991      120.083       57.479    18766.398    14419.861     3303.829        8.478        1.825      364.579       43.894        0.014      350.806       32.240      859.525
06/29/2014  18:37:00     -360.486     -199.690       -9.436      182.667      148.295       80.930    33367.341    21991.486     6549.716       11.590        3.095      412.100       78.142        0.036      350.710       32.071      859.534
06/29/2014  18:38:00     -338.504     -168.372       -0.393      159.714      149.903       91.053    25508.473    22470.823     8290.627        9.959        2.813      378.067       96.947        0.066      350.685       32.028      859.527
06/29/2014  18:39:00     -250.332     -226.703        5.324      172.119      157.059       85.805    29625.097    24667.650     7362.510        8.786        3.083      337.728       90.420        0.072      350.682       32.023      859.528
06/29/2014  18:40:00     -212.390     -109.939        2.894      141.187      135.082       81.547    19933.646    18247.083     6649.857        5.101        2.242      239.156       87.172        0.133      350.728       32.106      859.531
06/29/2014  18:41:00     -534.855     -295.300      -29.505      152.029      148.158       79.876    23112.804    21950.883     6380.170       21.278        2.572      610.960       69.271        0.013      350.568       31.824      859.516
06/29/2014  18:42:00     -297.941     -233.744      -31.484      147.409      168.362       85.202    21729.495    28345.899     7259.460       10.086        2.867      378.689       92.366        0.059      350.631       31.935      859.520
06/29/2014  18:43:00     -299.571     -163.086        2.736      196.061      127.925       72.392    38439.987    16364.744     5240.660        8.819        3.002      341.086       89.596        0.069      350.621       31.918      859.528
06/29/2014  18:44:00     -281.289     -244.756      -14.541      139.895      122.340       64.490    19570.605    14966.972     4158.983        8.896        1.935      372.866       72.462        0.038      350.655       31.976      859.557
06/29/2014  18:45:00     -364.257     -244.100       -8.047      162.556      148.696       73.874    26424.326    22110.631     5457.365       12.315        2.700      438.484       84.567        0.037      350.632       31.937      859.539
06/29/2014  18:46:00     -347.441     -251.725       10.664      211.768      150.728      105.189    44845.850    22718.970    11064.622       13.140        3.931      429.046      111.415        0.067      350.578       31.842      859.541
06/29/2014  18:47:00     -389.303     -257.243      -15.023      171.575      155.734       87.381    29437.942    24253.178     7635.466       13.963        3.066      466.616       72.471        0.024      350.568       31.824      859.539
06/29/2014  18:48:00     -327.287     -223.376       -7.553      168.480      177.986       65.956    28385.450    31679.096     4350.216       11.073        3.221      396.250       74.032        0.035      350.602       31.885      859.557
06/29/2014  18:49:00     -290.657     -189.381       -0.417      205.731      123.505       81.230    42325.313    15253.519     6598.335        9.225        3.209      346.910      104.778        0.091      350.594       31.869      859.565
06/29/2014  18:50:00     -389.975     -198.051       -4.450      168.092      148.430       85.093    28254.793    22031.524     7240.774       12.442        2.876      437.383       82.562        0.036      350.591       31.867      859.565
06/29/2014  18:51:00     -276.694     -111.838       -7.358      215.431      135.707       66.815    46410.390    18416.522     4464.244        7.919        3.465      298.441       83.930        0.079      350.618       31.912      859.578
06/29/2014  18:52:00     -355.924     -147.262       -5.980      201.876      122.677       88.992    40753.844    15049.651     7919.511       10.605        3.186      385.186       90.771        0.056      350.632       31.936      859.588
06/29/2014  18:53:00     -389.389     -255.521      -15.996      224.328      194.707       96.426    50323.168    37910.903     9298.057       15.734        4.877      465.742      112.644        0.058      350.531       31.761      859.582
06/29/2014  18:54:00     -343.865     -247.612      -21.383      181.888      134.188       91.059    33083.423    18006.451     8291.811       11.969        2.969      423.739      102.877        0.059      350.519       31.738      859.585
06/29/2014  18:55:00     -329.433     -197.573      -13.170      167.487      112.041       61.926    28051.855    12553.250     3834.865        9.608        2.222      384.137       59.894        0.024      350.549       31.792      859.590
06/29/2014  18:56:00     -314.809     -172.338      -22.961      155.246      127.057       62.841    24101.168    16143.404     3948.947        8.676        2.210      358.894       57.605        0.026      350.584       31.852      859.609
06/29/2014  18:57:00     -224.583      -91.453        7.929      132.356      122.563       61.198    17518.161    15021.802     3745.160        4.757        1.814      242.489       66.514        0.075      350.655       31.976      859.602
06/29/2014  18:58:00     -393.845     -218.707      -29.938      162.403      103.108       68.597    26374.784    10631.252     4705.610       12.277        2.086      450.496       65.704        0.021      350.520       31.740      859.608
06/29/2014  18:59:00     -220.336     -156.987       -8.237      142.209      102.791       66.683    20223.463    10566.043     4446.565        5.424        1.762      270.542       78.765        0.085      350.536       31.768      859.614
06/29/2014  19:00:00     -201.718      -94.434        3.373      101.579      108.850       69.348    10318.243    11848.274     4809.127        3.829        1.349      222.728       55.685        0.063      350.594       31.870      859.631
06/29/2014  19:01:00     -189.144      -47.285       13.228      110.160      122.649       57.492    12135.232    15042.717     3305.298        3.433        1.524      194.965       61.865        0.101      350.603       31.886      859.630
06/29/2014  19:02:00     -230.272     -161.752        3.439      144.709      106.215       60.712    20940.575    11281.624     3685.945        5.755        1.795      281.405       63.056        0.050      350.615       31.906      859.640
06/29/2014  19:03:00     -367.006     -255.796      -10.671      199.916      142.562       82.631    39966.601    20324.007     6827.897       13.367        3.356      447.353       90.481        0.041      350.493       31.693      859.625
06/29/2014  19:04:00     -315.569      -60.758      -14.384      164.890      107.498       72.915    27188.847    11555.808     5316.606        7.376        2.203      321.365       79.656        0.061      350.536       31.768      859.633
06/29/2014  19:05:00     -228.028     -151.950        6.266      116.258       94.189       57.133    13515.995     8871.652     3264.136        5.038        1.283      274.018       55.523        0.041      350.539       31.773      859.649
06/29/2014  19:06:00     -374.672     -248.997       -9.852      178.225      164.751       85.210    31764.114    27142.946     7260.748       13.431        3.308      449.865       88.766        0.039      350.481       31.672      859.647
06/29/2014  19:07:00     -303.272     -121.451       -3.567      155.845       91.414       59.355    24287.587     8356.556     3523.038        7.145        1.808      326.686       63.046        0.037      350.504       31.712      859.670
06/29/2014  19:08:00     -393.218     -148.572        0.566      142.823      129.701       77.527    20398.383    16822.297     6010.383       10.996        2.162      420.350       78.693        0.035      350.473       31.661      859.660
06/29/2014  19:09:00     -240.024      -51.546       15.629      149.717      101.286       62.542    22415.286    10258.829     3911.473        4.854        1.829      245.496       68.019        0.077      350.497       31.702      859.679
06/29/2014  19:10:00     -325.733        5.371       -4.889      151.063      117.363       71.425    22820.112    13774.025     5101.542        7.392        2.085      325.777       76.561        0.055      350.510       31.724      859.687
06/29/2014  19:11:00     -250.886     -139.432       -8.099      124.236      121.337       66.080    15434.585    14722.693     4366.605        5.848        1.726      287.028       78.804        0.075      350.485       31.681      859.701
06/29/2014  19:12:00     -289.065     -183.815       -1.898      166.477      153.976       80.492    27714.646    23708.694     6479.026        8.762        2.895      342.559       91.865        0.072      350.433       31.591      859.700
06/29/2014  19:13:00     -181.190     -157.313       -8.157      162.484       99.040       60.352    26400.989     9808.993     3642.379        4.874        1.993      239.953       65.039        0.073      350.431       31.587      859.715
06/29/2014  19:14:00     -268.065      -94.643      -10.816      155.310      122.658       76.327    24121.146    15044.931     5825.774        6.295        2.250      284.281       76.695        0.073      350.416       31.561      859.708
06/29/2014  19:15:00     -365.405     -161.271       -2.827      169.643      158.723       70.981    28778.907    25193.083     5038.325       10.926        2.951      399.411       83.945        0.044      350.382       31.502      859.705
06/29/2014  19:16:00     -240.319      -72.684        4.643      181.030      110.571       73.507    32771.784    12225.869     5403.313        5.672        2.520      251.070       83.813        0.111      350.376       31.493      859.726
06/29/2014  19:17:00     -229.702     -130.608      -12.662      156.923      141.182       67.449    24624.950    19932.238     4549.341        5.954        2.455      264.237       80.864        0.094      350.404       31.541      859.730
06/29/2014  19:18:00     -281.089     -148.078       -4.821      197.234      122.336       71.967    38901.384    14966.068     5179.297        7.999        2.952      317.708       83.264        0.069      350.387       31.512      859.742
06/29/2014  19:19:00     -417.713     -104.994      -13.494      199.024      141.966       89.597    39610.546    20154.459     8027.657       12.673        3.390      430.706      104.471        0.059      350.333       31.417      859.734
06/29/2014  19:20:00     -382.616     -105.255       -1.937      187.614      128.936       81.075    35199.124    16624.609     6573.208       10.793        2.920      396.829       88.941        0.050      350.362       31.466      859.736
06/29/2014  19:21:00     -207.384     -125.664      -17.062       96.615       98.988       52.124     9334.365     9798.707     2716.957        4.047        1.093      242.486       45.585        0.035      350.386       31.510      859.758
06/29/2014  19:22:00     -349.647     -106.763      -15.264      144.442      118.909       60.168    20863.578    14139.292     3620.218        8.625        1.931      365.584       65.953        0.033      350.334       31.419      859.759
06/29/2014  19:23:00     -223.654      -88.716        5.603      118.448       79.883       49.820    14029.964     6381.282     2482.082        4.040        1.145      240.607       54.737        0.052      350.329       31.411      859.766
06/29/2014  19:24:00     -297.495      -71.573      -14.228      151.797      100.610       59.324    23042.368    10122.454     3519.346        6.525        1.834      305.983       61.939        0.041      350.306       31.371      859.772
06/29/2014  19:25:00     -246.165     -146.816       -0.382      162.177      109.926       60.718    26301.280    12083.642     3686.727        6.210        2.104      286.622       69.838        0.059      350.302       31.362      859.791
06/29/2014  19:26:00     -218.750     -182.839        7.708      175.659      120.044       75.399    30856.199    14410.642     5684.965        6.614        2.548      285.100       87.579        0.094      350.248       31.269      859.790
06/29/2014  19:27:00     -300.651      -95.435       -4.991      165.474      127.865       75.440    27381.693    16349.469     5691.191        7.446        2.471      315.434       81.764        0.067      350.235       31.247      859.803
06/29/2014  19:28:00     -284.197     -114.770      -11.684      205.205      127.326       85.841    42109.121    16212.002     7368.647        7.987        3.284      306.497       83.723        0.075      350.233       31.243      859.810
06/29/2014  19:29:00     -367.848     -192.229       -4.472      144.005      104.845       79.609    20737.335    10992.516     6337.607       10.517        1.903      415.047       75.976        0.034      350.197       31.181      859.830
06/29/2014  19:30:00     -311.363      -88.367      -14.778      146.079      112.734       66.132    21339.017    12708.920     4373.413        7.169        1.921      323.660       69.214        0.046      350.216       31.213      859.856
06/29/2014  19:31:00     -216.457     -195.749       -3.968      143.592      132.151       88.258    20618.725    17463.919     7789.391        6.552        2.294      291.841       98.301        0.113      350.167       31.130      859.862
06/29/2014  19:32:00     -166.400     -122.941       -9.207      124.451      108.453       63.619    15488.007    11762.002     4047.382        3.709        1.565      206.889       57.628        0.078      350.186       31.161      859.871
06/29/2014  19:33:00     -140.775      -98.087        5.954      117.418       97.060       55.590    13786.946     9420.622     3090.296        2.788        1.315      171.577       56.868        0.110      350.199       31.184      859.885
06/29/2014  19:34:00     -212.865     -113.365      -10.771       95.866       95.068       52.063     9190.326     9037.901     2710.520        3.961        1.047      241.170       52.066        0.047      350.210       31.204      859.894
06/29/2014  19:35:00     -137.638      -92.541       20.697      128.237       89.180       61.036    16444.809     7953.073     3725.410        2.803        1.406      165.856       64.860        0.153      350.196       31.179      859.917
06/29/2014  19:36:00     -210.185     -149.547        4.275      158.160      120.188       63.901    25014.653    14445.265     4083.301        5.504        2.177      257.958       69.764        0.073      350.144       31.090      859.924
06/29/2014  19:37:00     -221.527     -187.892       11.898      178.451      124.310       74.458    31844.805    15453.018     5544.005        6.867        2.642      290.478       75.832        0.068      350.148       31.096      859.910
06/29/2014  19:38:00     -174.222     -118.965      -10.594      135.880       91.955       53.898    18463.448     8455.651     2905.037        3.722        1.491      210.965       62.357        0.087      350.160       31.116      859.933
06/29/2014  19:39:00     -204.930      -95.098       -2.888      124.517       86.717       45.577    15504.533     7519.871     2077.272        3.807        1.255      225.920       51.921        0.053      350.153       31.105      859.958
06/29/2014  19:40:00     -210.564      -67.074       -1.046      130.715       82.027       54.248    17086.391     6728.378     2942.836        3.779        1.338      220.990       64.441        0.085      350.130       31.064      859.968
06/29/2014  19:41:00      -91.163      -72.708       16.547      108.959       85.507       52.626    11872.134     7311.428     2769.545        1.791        1.098      116.607       57.940        0.247      350.139       31.080      859.971
06/29/2014  19:42:00     -163.210     -100.040        3.978       87.049       79.240       50.083     7577.539     6279.005     2508.318        2.651        0.818      191.430       46.412        0.059      350.115       31.038      859.978
06/29/2014  19:43:00     -175.825     -107.807       -0.112      109.646       98.251       59.237    12022.217     9653.218     3508.992        3.386        1.259      206.245       55.894        0.073      350.122       31.050      859.983
06/29/2014  19:44:00     -235.830     -155.368       -6.736      115.819       96.770       57.014    13413.948     9364.434     3250.625        5.291        1.301      282.410       59.046        0.044      350.048       30.921      859.989
06/29/2014  19:45:00     -354.088      -69.070      -19.396      100.945      121.342       52.092    10189.969    14723.828     2713.543        7.907        1.381      360.762       45.049        0.016      350.041       30.909      859.991
06/29/2014  19:46:00     -242.657      -24.594       -4.409      159.941       77.345       70.477    25581.123     5982.286     4967.035        4.801        1.827      243.900       83.323        0.117      350.033       30.896      859.997
06/29/2014  19:47:00     -255.768      -39.505        5.789      118.110      104.090       63.448    13949.913    10834.646     4025.612        4.791        1.441      258.801       60.350        0.054      350.024       30.879      860.003
06/29/2014  19:48:00     -356.818      -33.163      -14.734      155.426      107.336       71.638    24157.136    11521.120     5132.043        8.472        2.041      358.356       85.057        0.056      349.997       30.831      860.016
06/29/2014  19:49:00     -326.024      -56.952       -7.344      138.472       89.744       61.048    19174.373     8054.039     3726.809        7.027        1.548      330.961       61.248        0.034      350.023       30.876      860.041
06/29/2014  19:50:00     -194.019      -46.030       -7.105       90.258       88.095       42.166     8146.563     7760.811     1777.989        2.875        0.884      199.405       33.056        0.027      350.002       30.843      860.051
06/29/2014  19:51:00     -273.603     -133.168       -9.745      160.718      122.011       56.062    25830.159    14886.715     3142.940        6.827        2.193      304.290       59.756        0.039      349.983       30.808      860.073
06/29/2014  19:52:00     -329.902     -248.406       -7.653      147.553      108.746       73.593    21771.906    11825.758     5415.983       10.480        1.951      412.966       73.776        0.032      349.979       30.800      860.069
06/29/2014  19:53:00     -166.608     -124.597       20.404      185.312      130.337       79.362    34340.395    16987.773     6298.372        5.065        2.881      208.045       97.272        0.219      349.928       30.716      860.077
06/29/2014  19:54:00     -358.588     -180.559      -19.463      133.830      101.565       63.728    17910.525    10315.399     4061.214        9.692        1.614      401.481       65.120        0.026      349.939       30.731      860.094
06/29/2014  19:55:00     -192.264       -0.784       -1.441      127.924       82.172       43.884    16364.583     6752.280     1925.790        3.100        1.252      192.266       36.501        0.036      349.924       30.707      860.122
06/29/2014  19:56:00     -125.670     -110.657        0.757      157.097      108.385       64.790    24679.503    11747.238     4197.742        3.432        2.031      167.445       72.424        0.187      349.860       30.598      860.135
06/29/2014  19:57:00     -133.980      -97.632        3.437      111.068       66.362       49.895    12336.133     4403.864     2489.472        2.336        0.961      165.779       47.924        0.084      349.833       30.548      860.161
06/29/2014  19:58:00     -203.103      -74.696       -5.402       86.504       80.742       37.693     7482.967     6519.339     1420.756        3.114        0.771      216.403       36.247        0.028      349.838       30.556      860.173
06/29/2014  19:59:00      -78.393      -71.707       16.049       77.899       96.047       42.825     6068.328     9224.944     1833.985        1.433        0.856      106.242       50.977        0.230      349.805       30.501      860.181
06/29/2014  20:00:00     -186.808     -125.110       12.264      118.920       96.529       56.909    14141.896     9317.906     3238.594        3.869        1.335      224.833       44.175        0.039      349.820       30.525      860.182
06/29/2014  20:01:00     -215.111     -161.498       -1.452      122.315      113.412       57.994    14960.984    12862.205     3363.322        5.177        1.559      268.988       57.126        0.045      349.808       30.505      860.194
06/29/2014  20:02:00     -257.474     -170.679      -10.007       81.606       72.376       46.346     6659.582     5238.245     2147.974        5.478        0.702      308.908       40.410        0.017      349.800       30.489      860.194
06/29/2014  20:03:00     -148.723      -95.947        3.472       90.750       83.142       42.780     8235.531     6912.593     1830.106        2.415        0.849      176.986       48.518        0.075      349.747       30.400      860.197
06/29/2014  20:04:00     -288.672      -62.193       -4.205      138.561       93.111       51.823    19199.251     8669.672     2685.614        5.888        1.528      295.296       54.571        0.034      349.748       30.399      860.212
06/29/2014  20:05:00     -367.272     -131.568       -9.578      146.972      104.819       58.699    21600.734    10987.118     3445.591        9.416        1.802      390.127       69.748        0.032      349.717       30.346      860.206
06/29/2014  20:06:00     -259.058      -65.223       -4.719       93.833       92.664       53.439     8804.655     8586.627     2855.711        4.581        1.012      267.143       50.102        0.035      349.682       30.284      860.218
06/29/2014  20:07:00     -218.560     -117.827       -6.286       76.929       69.321       40.931     5918.052     4805.371     1675.349        3.704        0.620      248.298       40.102        0.026      349.652       30.233      860.229
06/29/2014  20:08:00     -121.175      -43.426       17.329       91.873       94.261       55.366     8440.647     8885.091     3065.399        1.863        1.020      128.721       53.738        0.174      349.573       30.100      860.242
06/29/2014  20:09:00     -116.128     -115.561        6.302       96.577       61.562       50.392     9327.146     3789.850     2539.342        2.127        0.783      163.829       54.149        0.109      349.565       30.086      860.262
06/29/2014  20:10:00     -162.944      -44.434        1.380      153.837       98.482       51.370    23665.837     9698.720     2638.899        3.226        1.800      168.894       66.121        0.153      349.614       30.170      860.265
06/29/2014  20:11:00     -194.473      -80.824        5.247      110.424       83.060       52.671    12193.478     6898.950     2774.232        3.312        1.093      210.600       55.530        0.070      349.574       30.100      860.286
06/29/2014  20:12:00     -103.846      -56.298       24.360      136.251       95.381       57.500    18564.414     9097.462     3306.276        2.275        1.548      118.125       70.497        0.356      349.533       30.028      860.302
06/29/2014  20:13:00     -194.079       -6.038       -8.741      104.575       75.478       49.125    10935.934     5696.980     2413.280        2.841        0.952      194.173       47.810        0.061      349.532       30.028      860.312
06/29/2014  20:14:00     -305.665      -49.349      -26.524      111.748      109.687       58.410    12487.650    12031.296     3411.686        6.225        1.397      309.623       61.419        0.039      349.578       30.106      860.329
06/29/2014  20:15:00     -157.466      -92.812       -3.514       84.503       77.505       43.399     7140.818     6007.091     1883.459        2.422        0.752      182.783       42.897        0.055      349.495       29.963      860.343
06/29/2014  20:16:00     -276.671      -69.908       -8.236      105.765       82.028       51.420    11186.285     6728.627     2643.988        5.103        1.028      285.366       35.243        0.015      349.539       30.039      860.353
06/29/2014  20:17:00     -207.282      -36.723        2.386      106.845       75.205       46.412    11415.792     5655.843     2154.099        3.177        0.961      210.510       52.577        0.062      349.455       29.895      860.368
06/29/2014  20:18:00     -227.789      -65.085       -9.275       80.412       72.049       40.160     6466.142     5191.010     1612.837        3.474        0.663      236.904       48.137        0.041      349.495       29.962      860.387
06/29/2014  20:19:00     -141.210      -17.543       -2.861       85.412       66.455       32.989     7295.236     4416.228     1088.303        1.653        0.640      142.296       37.015        0.068      349.418       29.830      860.385
06/29/2014  20:20:00     -271.689      -87.937       -5.502       94.008       81.554       41.066     8837.501     6651.039     1686.438        4.937        0.859      285.566       42.406        0.022      349.477       29.930      860.397
06/29/2014  20:21:00     -175.527      -53.501       -2.133      104.406       67.981       42.983    10900.637     4621.455     1847.512        2.552        0.868      183.499       46.681        0.065      349.389       29.779      860.406
06/29/2014  20:22:00     -228.466      -12.357      -26.880       75.188       87.070       40.612     5653.261     7581.221     1649.324        3.398        0.744      228.800       26.974        0.014      349.458       29.896      860.396
06/29/2014  20:23:00     -237.664      -56.960      -12.660       77.904       86.953       42.527     6068.958     7560.877     1808.515        3.766        0.772      244.394       41.233        0.028      349.408       29.810      860.416
06/29/2014  20:24:00     -255.431      -80.127       -8.902      110.411       93.088       51.255    12190.637     8665.366     2627.077        4.761        1.174      267.704       52.779        0.039      349.393       29.784      860.419
06/29/2014  20:25:00     -200.296      -50.628       -6.240      108.554       70.699       49.140    11783.998     4998.385     2414.695        3.096        0.960      206.595       58.633        0.081      349.329       29.673      860.425
06/29/2014  20:26:00     -242.659      -64.507       -7.811       70.996       67.275       35.001     5040.479     4525.980     1225.076        3.695        0.540      251.086       38.559        0.024      349.325       29.666      860.434
06/29/2014  20:27:00     -245.528      -48.407       -5.557       90.229       62.776       46.630     8141.303     3940.819     2174.373        3.845        0.713      250.255       50.788        0.041      349.278       29.585      860.442
06/29/2014  20:28:00     -179.387      -22.440        1.133       97.053       57.263       37.384     9419.291     3279.013     1397.549        2.339        0.705      180.785       37.082        0.042      349.195       29.442      860.450
06/29/2014  20:29:00     -207.220      -57.849       -2.361       54.880       53.300       28.848     3011.762     2840.932      832.185        2.649        0.334      215.143       20.907        0.009      349.278       29.585      860.452
06/29/2014  20:30:00     -200.858      -59.079       -3.016      103.820       55.624       36.037    10778.532     3094.046     1298.650        2.950        0.759      209.367       43.216        0.043      349.243       29.526      860.464
06/29/2014  20:31:00     -179.254      -75.497       -2.474       74.518       66.435       42.042     5552.931     4413.551     1767.564        2.478        0.587      194.504       43.226        0.049      349.211       29.470      860.476
06/29/2014  20:32:00     -188.427      -93.043        1.673       63.138       64.377       36.670     3986.409     4144.339     1344.687        2.682        0.474      210.147       34.537        0.027      349.216       29.478      860.472
06/29/2014  20:33:00     -178.710      -32.272       -1.067       73.861       59.068       44.141     5455.493     3489.079     1948.389        2.193        0.545      181.601       45.051        0.062      349.161       29.383      860.491
06/29/2014  20:34:00     -146.659      -59.526       -5.349       66.014       34.457       30.558     4357.885     1187.275      933.764        1.578        0.324      158.279       34.596        0.048      349.148       29.363      860.481
06/29/2014  20:35:00     -112.402      -30.129        2.656       67.681       53.316       40.250     4580.757     2842.573     1620.080        1.129        0.452      116.370       31.033        0.071      349.088       29.260      860.484
06/29/2014  20:36:00     -202.255     -108.172        6.116      107.435       93.001       46.709    11542.343     8649.169     2181.706        3.751        1.119      229.365       46.973        0.042      349.166       29.390      860.496
06/29/2014  20:37:00     -227.836      -96.041       -0.995       87.488       99.616       40.846     7654.115     9923.428     1668.360        4.019        0.962      247.251       39.192        0.025      349.145       29.354      860.495
06/29/2014  20:38:00     -249.806      -62.796      -13.179      132.407      101.676       58.034    17531.582    10337.981     3367.956        4.887        1.562      257.578       65.017        0.064      349.166       29.391      860.501
06/29/2014  20:39:00     -239.882      -52.717       -4.011      117.269       98.891       57.859    13751.926     9779.376     3347.620        4.360        1.344      245.606       66.293        0.073      349.109       29.294      860.496
06/29/2014  20:40:00     -235.110     -160.010      -15.219      121.158       88.262       65.261    14679.374     7790.118     4258.993        5.392        1.336      284.394       72.171        0.064      349.185       29.425      860.504
06/29/2014  20:41:00     -265.031     -116.466      -13.429       88.168       70.084       44.469     7773.641     4911.745     1977.529        4.932        0.733      289.492       41.724        0.021      349.197       29.444      860.516
06/29/2014  20:42:00     -174.552      -92.225      -11.093       78.664       60.047       37.747     6188.051     3605.660     1424.828        2.516        0.561      197.418       37.379        0.036      349.125       29.321      860.513
06/29/2014  20:43:00     -144.531     -110.746       -6.506       65.495       44.447       39.530     4289.603     1975.537     1562.659        2.051        0.391      182.082       36.489        0.040      349.072       29.230      860.535
06/29/2014  20:44:00     -144.761     -102.168        3.975       90.239       67.366       39.673     8142.994     4538.125     1573.953        2.283        0.713      177.183       41.795        0.056      349.059       29.206      860.539
06/29/2014  20:45:00     -177.703      -95.466       -6.046       69.445       68.207       39.783     4822.677     4652.159     1582.705        2.589        0.553      201.723       39.924        0.039      349.049       29.188      860.553
06/29/2014  20:46:00     -146.542      -75.588        0.319       85.959       65.421       35.153     7388.950     4279.934     1235.724        2.004        0.645      164.888       41.451        0.063      348.976       29.063      860.564
06/29/2014  20:47:00     -114.884      -51.576        9.231       70.257       57.714       30.288     4936.072     3330.891      917.350        1.256        0.459      125.930       23.331        0.034      348.954       29.026      860.568
06/29/2014  20:48:00      -83.702      -65.416        7.900       68.195       46.997       28.637     4650.526     2208.718      820.086        0.951        0.384      106.232       30.054        0.080      348.887       28.911      860.575
06/29/2014  20:49:00     -146.326      -80.511        5.200       73.471       57.451       33.305     5398.036     3300.607     1109.222        1.886        0.490      167.013       35.066        0.044      348.972       29.058      860.577
06/29/2014  20:50:00      -44.046      -32.186       11.754       51.436       34.187       24.029     2645.681     1168.752      577.383        0.375        0.220       54.552       20.999        0.148      348.851       28.848      860.585
06/29/2014  20:51:00      -95.352      -53.976        1.471       49.154       42.959       28.113     2416.154     1845.483      790.313        0.853        0.253      109.569       25.652        0.055      348.926       28.978      860.599
06/29/2014  20:52:00     -104.908      -64.241       -3.013       34.882       42.296       24.410     1216.765     1788.942      595.826        0.937        0.180      123.015       16.891        0.019      348.927       28.981      860.609
06/29/2014  20:53:00      -71.200      -75.834        1.852       84.871       49.208       31.417     7203.103     2421.407      987.057        1.072        0.531      104.020       25.066        0.058      348.844       28.836      860.630
06/29/2014  20:54:00     -145.159      -43.769        9.256       69.571       61.150       31.463     4840.131     3739.298      989.933        1.632        0.478      151.614       36.399        0.058      348.824       28.802      860.643
06/29/2014  20:55:00      -93.242      -72.709        6.295       64.476       53.355       32.484     4157.209     2846.741     1055.228        1.104        0.403      118.240       31.885        0.073      348.787       28.738      860.647
06/29/2014  20:56:00     -118.220      -20.155       -3.705       40.217       43.742       27.045     1617.432     1913.400      731.454        0.933        0.213      119.925       22.661        0.036      348.838       28.827      860.667
06/29/2014  20:57:00     -115.889      -37.591       -7.272       49.157       45.283       22.493     2416.447     2050.573      505.919        0.993        0.249      121.833       21.466        0.031      348.732       28.641      860.678
06/29/2014  20:58:00     -102.612      -26.706       -5.393       32.721       23.732       24.716     1070.640      563.192      610.870        0.676        0.112      106.030        9.196        0.008      348.711       28.608      860.681
06/29/2014  20:59:00      -72.175      -38.489        5.101       41.329       47.398       30.140     1708.118     2246.599      908.405        0.579        0.243       81.797       27.673        0.114      348.614       28.439      860.687
06/29/2014  21:00:00     -120.620      -34.075        0.404       34.798       28.109       15.809     1210.929      790.135      249.930        0.898        0.113      125.341       15.973        0.016      348.585       28.389      860.699
06/29/2014  21:01:00     -120.641      -29.672       -0.304       41.966       33.291       18.635     1761.152     1108.319      347.270        0.933        0.161      124.237       23.515        0.036      348.645       28.490      860.707
06/29/2014  21:02:00     -106.076      -21.625        0.210       43.117       30.697       20.042     1859.073      942.286      401.677        0.746        0.160      108.258       19.673        0.033      348.607       28.425      860.723
06/29/2014  21:03:00      -65.657      -14.987       -0.629       23.258       34.641       14.081      540.921     1200.023      198.288        0.324        0.097       67.345       13.324        0.039      348.504       28.248      860.727
06/29/2014  21:04:00      -94.068      -14.044        1.091       42.285       29.738       22.835     1788.010      884.370      521.430        0.612        0.160       95.111       25.129        0.070      348.482       28.210      860.741
06/29/2014  21:05:00      -69.694      -51.967        6.294       40.966       31.710       22.313     1678.196     1005.526      497.869        0.539        0.159       86.936       21.900        0.063      348.410       28.085      860.749
06/29/2014  21:06:00      -87.275      -41.889       -5.430       45.185       26.468       13.911     2041.664      700.539      193.526        0.617        0.147       96.807       17.713        0.033      348.474       28.196      860.756
06/29/2014  21:07:00     -104.226      -39.165       -4.063       40.001       29.822       20.591     1600.108      889.352      423.996        0.766        0.146      111.341       19.380        0.030      348.381       28.036      860.777
06/29/2014  21:08:00     -133.607      -60.387       -3.813       23.768       20.570       17.597      564.935      423.126      309.646        1.140        0.065      146.620        9.925        0.005      348.415       28.094      860.785
06/29/2014  21:09:00     -135.940      -38.953        3.850       45.672       34.576       24.506     2085.913     1195.489      600.527        1.195        0.194      141.411       21.938        0.024      348.406       28.079      860.787
06/29/2014  21:10:00     -156.514      -69.420       -3.837       22.172       32.393       21.389      491.587     1049.292      457.474        1.566        0.100      171.219       11.257        0.004      348.400       28.070      860.790
06/29/2014  21:11:00      -76.171      -39.711        8.565       60.787       39.959       26.969     3695.079     1596.752      727.335        0.673        0.301       85.901       29.006        0.114      348.274       27.851      860.792
06/29/2014  21:12:00     -149.109      -83.467       -1.411       63.651       49.677       32.092     4051.420     2467.810     1029.887        1.837        0.377      170.881       26.555        0.024      348.332       27.949      860.796
06/29/2014  21:13:00     -132.698      -99.037        7.200       79.452       45.226       34.663     6312.693     2045.352     1201.539        1.851        0.478      165.581       37.300        0.051      348.316       27.922      860.805
06/29/2014  21:14:00     -109.527      -95.298        8.734       74.417       58.129       42.261     5537.908     3378.975     1786.019        1.593        0.535      145.182       45.039        0.096      348.336       27.956      860.809
06/29/2014  21:15:00     -135.719     -122.458       -0.140       73.953       64.970       48.910     5469.115     4221.041     2392.217        2.275        0.604      182.799       36.513        0.040      348.349       27.979      860.822
06/29/2014  21:16:00     -198.596     -119.819       -5.689       87.891       63.983       42.097     7724.812     4093.868     1772.120        3.371        0.680      231.942       46.658        0.040      348.356       27.988      860.819
06/29/2014  21:17:00     -192.294     -130.967       -7.282       94.598       84.472       46.073     8948.771     7135.597     2122.720        3.619        0.910      232.657       46.679        0.040      348.333       27.948      860.828
06/29/2014  21:18:00     -301.984     -156.836      -17.402      124.399       88.569       53.452    15475.221     7844.529     2857.090        7.113        1.309      340.282       57.651        0.029      348.388       28.044      860.833
06/29/2014  21:19:00     -244.421      -99.983       -5.419      138.758      119.660       58.404    19253.817    14318.439     3411.042        5.337        1.849      264.080       67.084        0.065      348.373       28.018      860.830
06/29/2014  21:20:00     -258.352      -82.446       -1.184      123.562       84.951       51.261    15267.483     7216.740     2627.695        4.932        1.256      271.188       58.440        0.046      348.302       27.893      860.847
06/29/2014  21:21:00     -111.591      -68.492       13.740      110.996       91.500       54.699    12320.036     8372.308     2992.014        2.050        1.184      130.934       61.215        0.219      348.236       27.784      860.860
06/29/2014  21:22:00     -167.749      -47.878        1.546      105.508       67.966       43.782    11131.919     4619.331     1916.826        2.405        0.883      174.448       47.094        0.073      348.207       27.731      860.865
06/29/2014  21:23:00     -271.993      -51.356       -9.429      102.950       94.649       55.338    10598.750     8958.524     3062.325        4.966        1.131      276.799       61.915        0.050      348.206       27.730      860.888
06/29/2014  21:24:00     -309.425      -54.185      -14.285      103.747       75.859       56.016    10763.361     5754.558     3137.784        5.927        0.983      314.134       56.315        0.032      348.188       27.698      860.900
06/29/2014  21:25:00     -168.992      -74.683        8.460       98.021       79.254       42.234     9608.197     6281.256     1783.707        2.594        0.884      184.759       47.338        0.066      348.164       27.656      860.913
06/29/2014  21:26:00     -243.460      -51.828       -0.361      129.302       71.791       44.720    16719.030     5153.985     1999.892        4.291        1.194      248.916       57.719        0.054      348.148       27.630      860.917
06/29/2014  21:27:00     -288.541      -53.623       -6.291      131.461       86.669       60.352    17281.891     7511.584     3642.402        5.730        1.422      293.482       62.449        0.045      348.184       27.692      860.913
06/29/2014  21:28:00     -342.470      -92.634      -19.841       91.065       85.244       44.725     8292.849     7266.603     2000.321        7.191        0.878      354.777       30.017        0.007      348.212       27.740      860.921
06/29/2014  21:29:00     -207.694      -94.441       16.691      113.245      113.926       69.376    12824.442    12979.169     4813.010        4.147        1.531      228.158       63.495        0.077      348.109       27.563      860.928
06/29/2014  21:30:00     -268.817      -30.190        1.290      117.358       98.773       56.083    13772.991     9756.091     3145.251        4.992        1.334      270.507       58.353        0.047      348.138       27.611      860.945
06/29/2014  21:31:00     -272.893      -51.630      -13.353       96.107      101.265       54.317     9236.578    10254.512     2950.358        4.987        1.122      277.735       49.350        0.032      348.141       27.618      860.960
06/29/2014  21:32:00     -313.081      -86.023      -11.031      129.368      101.543       66.344    16736.176    10310.980     4401.470        6.849        1.572      324.684       65.435        0.041      348.139       27.615      860.982
06/29/2014  21:33:00     -280.104      -51.986      -11.559      119.384      101.161       48.498    14252.602    10233.589     2352.079        5.406        1.342      284.887       43.768        0.024      348.151       27.635      860.998
06/29/2014  21:34:00     -261.798      -42.746      -18.858      117.101       97.673       55.968    13712.664     9539.948     3132.422        4.855        1.319      265.264       59.821        0.051      348.122       27.585      861.008
06/29/2014  21:35:00     -240.640      -81.740      -14.278      109.961       90.869       48.864    12091.418     8257.224     2387.664        4.376        1.137      254.144       33.406        0.017      348.129       27.596      861.038
06/29/2014  21:36:00     -335.867      -47.403      -12.192      116.586       71.476       53.798    13592.295     5108.848     2894.219        6.840        1.080      339.196       51.794        0.023      348.176       27.675      861.056
06/29/2014  21:37:00     -324.847      -72.589      -28.728      109.842       85.915       54.030    12065.367     7381.464     2919.283        6.699        1.118      332.858       43.513        0.017      348.163       27.654      861.067
06/29/2014  21:38:00     -261.107      -29.528      -18.731      113.990       81.476       54.597    12993.740     6638.298     2980.789        4.600        1.131      262.771       66.308        0.064      348.126       27.591      861.081
06/29/2014  21:39:00     -244.282      -62.319       -8.584      112.923       87.936       56.945    12751.629     7732.784     3242.705        4.368        1.186      252.106       58.733        0.054      348.135       27.608      861.105
06/29/2014  21:40:00     -194.312      -15.587       -6.186       97.677       70.440       46.489     9540.744     4961.843     2161.212        2.735        0.833      194.936       40.971        0.044      348.116       27.575      861.139
06/29/2014  21:41:00     -211.260      -57.923       -8.607       94.010       69.299       43.117     8837.884     4802.304     1859.059        3.178        0.775      219.057       45.074        0.042      348.093       27.536      861.171
06/29/2014  21:42:00     -235.215      -34.441      -24.762       58.537       52.269       36.220     3426.584     2732.086     1311.902        3.230        0.374      237.723       31.001        0.017      348.046       27.454      861.203
06/29/2014  21:43:00     -142.108      -58.418       -8.274       52.634       41.025       35.352     2770.361     1683.060     1249.758        1.469        0.285      153.646       18.707        0.015      348.025       27.419      861.234
06/29/2014  21:44:00     -101.458       -4.855       -7.159       59.130       43.516       35.771     3496.350     1893.684     1279.535        0.852        0.333      101.574       24.363        0.058      347.939       27.272      861.249
06/29/2014  21:45:00     -116.306       -1.479      -21.706       32.991       40.106       28.138     1088.409     1608.530      791.770        0.874        0.174      116.315       13.504        0.013      347.913       27.227      861.273
06/29/2014  21:46:00      -98.311      -19.387      -10.999       64.661       54.071       34.782     4181.095     2923.636     1209.766        0.924        0.416      100.204       29.433        0.086      347.830       27.083      861.285
06/29/2014  21:47:00     -120.271       50.009      -10.492       65.232       64.279       41.824     4255.242     4131.774     1749.242        1.360        0.507      130.254       36.018        0.076      347.796       27.023      861.294
06/29/2014  21:48:00     -113.705       60.644      -22.260       58.485       89.116       44.966     3420.463     7941.588     2021.913        1.524        0.669      128.867       40.110        0.097      347.807       27.043      861.311
06/29/2014  21:49:00     -103.465       64.508      -17.055       66.274       48.281       44.311     4392.227     2331.055     1963.456        1.192        0.434      121.928       35.204        0.083      347.790       27.015      861.332
06/29/2014  21:50:00     -157.191       31.719      -19.103       61.819       72.877       41.857     3821.549     5311.057     1752.004        1.848        0.544      160.360       32.332        0.041      347.814       27.054      861.337
06/29/2014  21:51:00      -71.524       24.835        6.436       76.554       38.292       43.817     5860.553     1466.286     1919.973        0.751        0.462       75.713       39.771        0.276      347.731       26.912      861.349
06/29/2014  21:52:00      -62.201      -12.447       -5.262       77.384       52.741       36.062     5988.257     2781.663     1300.491        0.706        0.504       63.435       20.213        0.102      347.727       26.906      861.355
06/29/2014  21:53:00     -222.438      -32.549      -16.024       97.505       75.549       45.106     9507.294     5707.615     2034.508        3.402        0.862      224.807       50.912        0.051      347.808       27.040      861.358
06/29/2014  21:54:00     -281.569      -82.744      -18.257       95.015       98.959       55.649     9027.825     9792.890     3096.839        5.419        1.096      293.475       41.976        0.020      347.830       27.080      861.374
06/29/2014  21:55:00     -317.661      -36.647      -27.514       88.690       93.377       57.975     7865.904     8719.317     3361.131        6.147        0.997      319.768       44.839        0.020      347.866       27.141      861.380
06/29/2014  21:56:00     -224.595      -34.911      -21.702       88.903       96.952       54.251     7903.827     9399.783     2943.166        3.619        1.012      227.292       51.353        0.051      347.825       27.071      861.389
06/29/2014  21:57:00     -268.043      -67.422      -23.005       75.692       86.229       42.766     5729.302     7435.441     1828.924        4.596        0.750      276.393       26.463        0.009      347.869       27.146      861.410
06/29/2014  21:58:00     -228.732      -21.903      -18.197       75.558       79.601       44.090     5709.033     6336.377     1943.936        3.356        0.699      229.779       40.385        0.031      347.922       27.239      861.416
06/29/2014  21:59:00     -316.295      -45.490      -24.874      142.207       89.096       54.281    20222.953     7938.108     2946.478        6.691        1.555      319.549       62.957        0.039      347.935       27.263      861.429
06/29/2014  22:00:00     -273.590       -9.715      -20.430       88.829       73.224       49.854     7890.648     5361.698     2485.434        4.555        0.787      273.762       44.573        0.027      347.873       27.153      861.446
06/29/2014  22:01:00     -242.442      -80.456      -20.692      103.782       90.843       57.985    10770.719     8252.526     3362.245        4.403        1.119      255.443       59.980        0.055      347.903       27.206      861.442
06/29/2014  22:02:00     -173.875      -53.931      -16.482       47.160       61.049       38.298     2224.064     3727.020     1466.720        2.041        0.371      182.047       33.692        0.034      347.837       27.094      861.445
06/29/2014  22:03:00     -198.190      -93.368       -7.244       54.217       58.409       34.693     2939.509     3411.644     1203.571        2.780        0.378      219.082       20.211        0.009      347.829       27.078      861.453
06/29/2014  22:04:00     -178.985      -81.657       -7.393       79.505       72.841       51.729     6320.967     5305.822     2675.896        2.653        0.715      196.732       39.454        0.040      347.872       27.153      861.445
06/29/2014  22:05:00     -304.418      -38.593      -34.127       83.384       70.851       43.957     6952.839     5019.828     1932.237        5.461        0.695      306.854       44.533        0.021      347.854       27.119      861.452
06/29/2014  22:06:00     -262.141     -103.845      -12.704      101.665       90.544       52.266    10335.673     8198.150     2731.693        5.046        1.063      281.960       38.664        0.019      347.819       27.061      861.451
06/29/2014  22:07:00     -248.584       39.489      -18.348      102.614       90.188       41.671    10529.635     8133.826     1736.511        4.204        1.020      251.701       30.392        0.015      347.805       27.037      861.465
06/29/2014  22:08:00     -231.359      -10.748      -26.751       89.040       78.277       49.856     7928.135     6127.285     2485.576        3.545        0.827      231.608       45.509        0.039      347.873       27.153      861.463
06/29/2014  22:09:00     -306.741       21.292      -22.421       83.287       79.847       43.609     6936.698     6375.547     1901.761        5.513        0.761      307.479       39.072        0.016      347.910       27.217      861.459
06/29/2014  22:10:00     -235.497      -48.330      -11.594       57.562       61.968       35.504     3313.432     3840.051     1260.523        3.317        0.421      240.405       30.825        0.016      347.864       27.137      861.465
06/29/2014  22:11:00     -235.663      -56.453      -17.144       76.781       77.694       41.543     5895.374     6036.358     1725.849        3.634        0.683      242.330       40.858        0.028      347.777       26.989      861.454
06/29/2014  22:12:00     -182.214      -25.717       -4.361      175.169      103.565       61.669    30684.069    10725.679     3803.076        3.954        2.261      184.019       79.316        0.186      347.787       27.008      861.455
06/29/2014  22:13:00     -325.346      -55.131      -36.256       79.082       75.551       41.424     6253.965     5708.014     1715.954        6.194        0.684      329.984       36.607        0.012      347.887       27.177      861.463
06/29/2014  22:14:00     -289.144      -76.118      -14.055       97.008       91.713       47.354     9410.577     8411.281     2242.445        5.483        1.003      298.995       44.683        0.022      347.926       27.247      861.450
06/29/2014  22:15:00     -317.374      -66.326      -25.734       72.697       96.406       46.887     5284.882     9294.138     2198.425        6.128        0.839      324.230       38.608        0.014      347.946       27.280      861.452
06/29/2014  22:16:00     -258.968      -95.152      -20.563       65.794       89.824       43.575     4328.877     8068.310     1898.823        4.542        0.715      275.896       25.005        0.008      347.913       27.222      861.458
06/29/2014  22:17:00     -323.442      -31.383      -28.032      113.853      108.268       44.148    12962.565    11722.045     1949.031        6.650        1.332      324.961       48.851        0.023      347.901       27.201      861.455
06/29/2014  22:18:00     -314.755     -115.818       -4.343      118.403       78.111       45.308    14019.176     6101.263     2052.797        6.733        1.109      335.387       50.881        0.023      347.835       27.087      861.481
06/29/2014  22:19:00     -308.620      -59.293       -3.752       99.217       77.577       58.399     9844.112     6018.175     3410.488        5.902        0.964      314.264       61.712        0.039      347.880       27.164      861.480
06/29/2014  22:20:00     -336.619        9.013      -26.859       66.219       67.157       45.539     4384.905     4510.119     2073.840        6.254        0.548      336.740       32.420        0.009      347.937       27.263      861.464
06/29/2014  22:21:00     -381.394        4.265      -30.510      137.338      100.417       48.878    18861.863    10083.484     2389.019        8.887        1.567      381.418       42.153        0.012      347.898       27.195      861.471
06/29/2014  22:22:00     -188.756      -58.782        3.923       96.284       87.685       49.658     9270.644     7688.654     2465.932        2.926        0.971      197.697       50.336        0.065      347.817       27.058      861.476
06/29/2014  22:23:00     -332.198      -46.880      -31.649      121.567       75.345       43.628    14778.416     5676.900     1903.384        6.795        1.118      335.489       54.970        0.027      347.924       27.243      861.463
06/29/2014  22:24:00     -225.382      -78.509       -9.181      111.073       79.756       45.726    12337.211     6361.089     2090.873        3.891        1.039      238.665       49.432        0.043      347.803       27.034      861.460
06/29/2014  22:25:00     -272.642      -15.268      -25.299       95.307       80.898       51.390     9083.428     6544.499     2640.964        4.673        0.913      273.069       49.412        0.033      347.793       27.016      861.461
06/29/2014  22:26:00     -219.878      -49.675       -7.324       89.794       92.363       45.554     8062.931     8530.952     2075.196        3.477        0.933      225.419       43.857        0.038      347.825       27.072      861.447
06/29/2014  22:27:00     -243.166      -77.681       -7.012       81.089       74.365       44.011     6575.468     5530.195     1937.006        3.963        0.702      255.273       36.962        0.021      347.788       27.008      861.451
06/29/2014  22:28:00     -255.364      -71.403       -9.537      114.205       70.806       52.019    13042.820     5013.520     2705.983        4.558        1.038      265.159       52.970        0.040      347.728       26.905      861.456
06/29/2014  22:29:00     -287.397      -80.436      -13.027       98.449       78.397       43.782     9692.157     6146.021     1916.892        5.349        0.888      298.441       46.046        0.024      347.785       27.002      861.454
06/29/2014  22:30:00     -261.055     -105.401       -1.176       84.433       71.063       52.648     7128.902     5049.895     2771.815        4.710        0.748      281.530       46.171        0.027      347.749       26.940      861.444
06/29/2014  22:31:00     -308.286      -81.895      -20.294      123.152       87.543       56.521    15166.361     7663.825     3194.594        6.409        1.301      318.978       63.023        0.039      347.751       26.944      861.453
06/29/2014  22:32:00     -242.844      -99.011      -12.538       78.403       85.254       50.336     6147.084     7268.220     2533.697        4.244        0.797      262.252       46.500        0.031      347.711       26.873      861.460
06/29/2014  22:33:00     -267.224      -49.832      -25.580      102.092       81.333       49.660    10422.850     6615.049     2466.165        4.702        0.975      271.831       57.382        0.045      347.709       26.872      861.472
06/29/2014  22:34:00     -192.562      -85.749        5.384      108.030       89.117       49.942    11670.441     7941.873     2494.237        3.328        1.105      210.791       52.953        0.063      347.574       26.639      861.475
06/29/2014  22:35:00     -258.832      -35.901      -25.281      101.946      120.824       51.680    10393.079    14598.367     2670.809        4.829        1.383      261.310       42.031        0.026      347.657       26.781      861.461
06/29/2014  22:36:00     -201.427      -72.393      -15.038      115.194       56.808       43.100    13269.672     3227.097     1857.582        3.219        0.918      214.041       53.424        0.062      347.687       26.835      861.454
06/29/2014  22:37:00     -307.608      -46.081      -21.164       73.867       68.153       41.075     5456.352     4644.875     1687.138        5.449        0.589      311.040       32.964        0.011      347.650       26.770      861.479
06/29/2014  22:38:00     -254.530      -21.349      -18.770       67.754       72.616       34.353     4590.539     5273.031     1180.111        3.832        0.552      255.423       29.220        0.013      347.652       26.771      861.479
06/29/2014  22:39:00     -222.231        7.602      -11.122       83.839       68.239       40.197     7028.972     4656.516     1615.771        3.143        0.665      222.361       39.769        0.032      347.599       26.682      861.465
06/29/2014  22:40:00     -222.244      -22.320      -14.656       70.280       59.356       40.817     4939.273     3523.147     1666.034        3.012        0.506      223.362       38.208        0.029      347.681       26.823      861.460
06/29/2014  22:41:00     -168.361      -69.845       -5.744       71.283       72.023       38.890     5081.274     5187.245     1512.423        2.252        0.589      182.274       27.777        0.023      347.525       26.555      861.464
06/29/2014  22:42:00     -189.235      -16.458      -12.217       61.037       66.349       36.959     3725.566     4402.252     1365.933        2.286        0.475      189.949       30.625        0.026      347.605       26.692      861.457
06/29/2014  22:43:00     -183.299      -44.618       -3.141       73.705       47.821       37.059     5432.494     2286.835     1373.338        2.234        0.455      188.651       36.646        0.038      347.558       26.613      861.447
06/29/2014  22:44:00     -226.903      -31.598      -22.451      106.054       56.424       37.798    11247.392     3183.645     1428.667        3.442        0.793      229.092       29.375        0.016      347.583       26.656      861.464
06/29/2014  22:45:00     -227.189      -70.210      -10.172       80.885       75.580       39.683     6542.377     5712.291     1574.713        3.524        0.691      237.790       38.922        0.027      347.537       26.576      861.468
06/29/2014  22:46:00     -237.607      -62.541       -5.792      125.885       86.529       46.850    15846.983     7487.279     2194.915        4.296        1.276      245.700       37.178        0.023      347.548       26.593      861.464
06/29/2014  22:47:00     -278.102     -108.256       -2.593      124.819      122.023       55.777    15579.829    14889.715     3111.054        6.132        1.679      298.429       46.906        0.025      347.632       26.738      861.449
06/29/2014  22:48:00     -283.180      -96.893       -3.587      105.071       94.050       47.646    11039.946     8845.480     2270.129        5.587        1.108      299.298       50.531        0.029      347.648       26.764      861.453
06/29/2014  22:49:00     -186.584      -43.604      -12.803       75.747       50.939       36.135     5737.657     2594.786     1305.755        2.326        0.482      191.611       35.336        0.034      347.572       26.637      861.454
06/29/2014  22:50:00     -277.639      -53.726        0.536      125.195       85.981       56.713    15673.845     7392.684     3216.344        5.312        1.314      282.789       62.028        0.048      347.634       26.743      861.440
06/29/2014  22:51:00     -265.760      -47.822       -1.536      123.735       91.889       56.300    15310.227     8443.561     3169.650        4.992        1.346      270.028       64.887        0.058      347.640       26.752      861.440
06/29/2014  22:52:00     -213.232      -48.650       -8.667      110.012       84.991       45.034    12102.667     7223.501     2028.089        3.463        1.068      218.712       44.865        0.042      347.585       26.658      861.451
06/29/2014  22:53:00     -234.925      -75.722       -6.973       78.862       79.779       46.854     6219.217     6364.624     2195.285        3.787        0.739      246.827       42.994        0.030      347.626       26.728      861.447
06/29/2014  22:54:00     -290.906      -19.788      -20.723      118.044       98.802       48.461    13934.300     9761.903     2348.478        5.574        1.302      291.578       50.030        0.029      347.649       26.767      861.437
06/29/2014  22:55:00     -280.039      -44.866      -13.772      115.628      101.499       55.247    13369.874    10302.132     3052.250        5.367        1.336      283.611       55.498        0.038      347.656       26.781      861.453
06/29/2014  22:56:00     -195.205      -35.276        5.331      125.639       89.859       50.878    15785.176     8074.663     2588.549        3.291        1.322      198.367       59.156        0.089      347.636       26.745      861.471
06/29/2014  22:57:00     -191.647        9.991      -16.410      106.320      101.272       39.980    11304.011    10255.970     1598.395        3.012        1.158      191.907       44.183        0.053      347.675       26.812      861.501
06/29/2014  22:58:00     -104.868      103.952       -9.325       57.015       72.340       39.600     3250.731     5233.044     1568.195        1.597        0.503      147.660       36.427        0.061      347.564       26.623      861.538
06/29/2014  22:59:00     -226.736      139.308      -40.085       75.865       81.804       44.210     5755.522     6691.967     1954.554        4.341        0.720      266.113       38.054        0.020      347.556       26.608      861.569
06/29/2014  23:00:00     -240.067       32.881      -34.791       89.809      104.958       53.155     8065.717    11016.282     2825.460        4.091        1.095      242.308       47.253        0.038      347.577       26.646      861.577
06/29/2014  23:01:00     -207.139      -33.870      -18.925       69.313       68.738       42.006     4804.251     4724.953     1764.465        2.785        0.565      209.890       39.922        0.036      347.540       26.579      861.568
06/29/2014  23:02:00     -180.878      100.504      -34.486       61.622      170.585       47.984     3797.326    29099.194     2302.451        3.960        1.760      206.925       52.191        0.064      347.495       26.501      861.583
06/29/2014  23:03:00     -269.152      161.821      -46.317       76.107       67.192       47.089     5792.249     4514.720     2217.388        5.665        0.626      314.052       46.666        0.022      347.828       27.076      861.612
06/29/2014  23:04:00     -163.142      103.432      -27.985       75.626       83.215       36.308     5719.346     6924.807     1318.305        2.603        0.698      193.167       26.040        0.018      347.980       27.340      861.609
06/29/2014  23:05:00     -139.784       76.422      -29.438       56.338       78.583       36.953     3173.995     6175.363     1365.500        1.848        0.536      159.311       35.018        0.048      347.581       26.654      861.624
06/29/2014  23:06:00      -86.594       38.755       -2.415       63.048       73.106       34.712     3975.075     5344.439     1204.929        0.976        0.526       94.870       32.383        0.117      347.505       26.522      861.609
06/29/2014  23:07:00     -197.341       68.176      -32.988       95.773       65.582       42.655     9172.483     4300.991     1819.431        2.998        0.765      208.786       26.748        0.016      347.629       26.734      861.618
06/29/2014  23:08:00     -129.584       13.096      -14.715       42.917       87.282       30.011     1841.858     7618.186      900.670        1.377        0.518      130.244       24.551        0.036      347.514       26.538      861.640
06/29/2014  23:09:00     -126.357       53.454      -17.315       65.723       52.235       29.864     4319.462     2728.448      891.878        1.353        0.397      137.198       32.929        0.058      347.433       26.397      861.647
06/29/2014  23:10:00     -115.862       93.380      -18.696       45.678       44.084       34.605     2086.459     1943.396     1197.521        1.386        0.261      148.808       33.526        0.051      347.311       26.189      861.659
06/29/2014  23:11:00      -73.757       69.474       -8.107       36.004       49.186       22.770     1296.254     2419.284      518.489        0.728        0.212      101.325       24.736        0.060      347.267       26.111      861.679
06/29/2014  23:12:00      -90.281       59.833      -14.053       52.267       49.924       25.856     2731.863     2492.405      668.532        0.891        0.295      108.308       24.832        0.053      347.263       26.107      861.676
06/29/2014  23:13:00     -128.082       -1.350      -10.846       33.018       43.627       20.175     1090.174     1903.276      407.040        0.996        0.170      128.089       17.605        0.019      347.262       26.104      861.678
06/29/2014  23:14:00     -103.972      -16.036       -5.443       26.947       24.669       22.268      726.156      608.563      495.882        0.646        0.092      105.201       17.524        0.028      347.184       25.967      861.681
06/29/2014  23:15:00      -74.781       14.459       -9.469       30.792       51.354       21.788      948.117     2637.237      474.700        0.497        0.203       76.166       17.482        0.053      347.174       25.953      861.688
06/29/2014  23:16:00      -52.100       36.649       -7.781       25.929       20.972       13.944      672.335      439.819      194.424        0.271        0.065       63.699       11.684        0.034      347.158       25.925      861.694
06/29/2014  23:17:00      -59.834       59.093      -17.113       24.268       17.307        9.785      588.936      299.533       95.739        0.417        0.049       84.096       11.275        0.018      347.192       25.982      861.701
06/29/2014  23:18:00      -51.561       28.905      -10.761       14.771       21.807        9.845      218.195      475.567       96.917        0.220        0.040       59.111        5.836        0.010      347.200       25.996      861.689
06/29/2014  23:19:00      -40.006       -6.387       -0.663       22.066       15.681        9.254      486.924      245.885       85.644        0.123        0.041       40.512        8.460        0.044      347.210       26.013      861.688
06/29/2014  23:20:00      -40.289       20.997       -4.500       22.535       11.463        9.295      507.838      131.405       86.394        0.140        0.036       45.432        8.693        0.037      347.165       25.937      861.705
06/29/2014  23:21:00        5.088       17.834        5.181        7.678        9.782        7.166       58.951       95.695       51.358        0.029        0.010       18.546        6.220        0.112      347.082       25.795      861.713
06/29/2014  23:22:00       36.720       31.451        3.347       20.142        7.686        7.558      405.718       59.069       57.122        0.144        0.026       48.348        7.660        0.025      347.151       25.913      861.725
06/29/2014  23:23:00       29.835       21.627        5.809       19.848       18.011       11.141      393.950      324.390      124.120        0.112        0.042       36.849       11.440        0.096      346.980       25.617      861.733
06/29/2014  23:24:00       42.100        1.491        7.644       27.524       23.125       14.822      757.549      534.768      219.703        0.167        0.076       42.127        4.784        0.013      346.801       25.311      861.747
06/29/2014  23:25:00       53.586       23.905        1.925       32.611       16.256       12.504     1063.486      264.251      156.361        0.247        0.074       58.676       14.584        0.062      346.657       25.062      861.759
06/29/2014  23:26:00       45.712       33.960        1.710       13.463       15.576       14.339      181.247      242.599      205.597        0.194        0.031       56.946        8.829        0.024      346.548       24.874      861.756
06/29/2014  23:27:00       42.693       56.490       -6.912       25.334       32.004       18.576      641.797     1024.251      345.071        0.354        0.101       70.808       18.908        0.071      346.739       25.204      861.769
06/29/2014  23:28:00       59.245       47.009       -2.427       32.552       27.918       23.363     1059.665      779.417      545.816        0.405        0.119       75.630       20.268        0.072      346.753       25.226      861.786
06/29/2014  23:29:00       69.325       31.826        1.098       12.260       15.152       10.441      150.318      229.568      109.024        0.315        0.024       76.281        5.562        0.005      346.681       25.104      861.788
06/29/2014  23:30:00       64.091       18.760        6.170       29.775       12.910       13.884      886.540      166.677      192.775        0.287        0.062       66.780        9.040        0.018      346.709       25.152      861.785
06/29/2014  23:31:00      -12.561      -15.742       22.779       17.034       21.459       14.060      290.157      460.476      197.696        0.094        0.047       20.139        7.529        0.140      346.654       25.057      861.773
06/29/2014  23:32:00       54.903      -28.818        2.333       36.711       37.156       30.840     1347.730     1380.555      951.113        0.376        0.184       62.006       29.278        0.223      346.602       24.968      861.772
06/29/2014  23:33:00       38.394      -50.149       15.936       37.011       47.656       28.813     1369.799     2271.069      830.213        0.436        0.224       63.159       27.025        0.183      346.601       24.965      861.768
06/29/2014  23:34:00       94.250      -66.212       -1.110       39.098       34.543       31.170     1528.684     1193.187      971.549        0.848        0.185      115.183       17.938        0.024      346.643       25.037      861.774
06/29/2014  23:35:00       63.332      -49.533       10.669       39.878       58.365       38.995     1590.236     3406.452     1520.599        0.655        0.326       80.401       38.417        0.228      346.555       24.887      861.770
06/29/2014  23:36:00       35.673       28.422       44.753       65.641       53.105       41.122     4308.799     2820.167     1691.026        0.645        0.441       45.611       46.236        1.028      346.382       24.590      861.773
06/29/2014  23:37:00       26.111        8.917       44.285       39.711       49.088       35.690     1576.983     2409.628     1273.798        0.399        0.263       27.592       26.896        0.950      346.384       24.593      861.783
06/29/2014  23:38:00       24.536      -24.246       25.837       41.277       44.455       26.277     1703.750     1976.211      690.479        0.311        0.219       34.495       27.132        0.619      346.346       24.529      861.811
06/29/2014  23:39:00       22.999       -2.044        3.252       26.524       19.652       19.804      703.538      386.215      392.203        0.101        0.074       23.090       10.508        0.207      346.351       24.535      861.858
06/29/2014  23:40:00       21.604       -5.600       -0.788       30.653       10.571       12.296      939.615      111.756      151.200        0.085        0.060       22.318        8.132        0.133      346.365       24.560      861.872
06/29/2014  23:41:00       64.931        1.282       -2.857       15.168       14.321       14.855      230.054      205.088      220.682        0.244        0.033       64.943        9.846        0.023      346.331       24.502      861.887
06/29/2014  23:42:00       33.838      -13.076        5.351       24.965       22.082       21.323      623.248      487.604      454.667        0.145        0.078       36.277       18.394        0.257      346.260       24.379      861.908
06/29/2014  23:43:00       40.536      -79.645       -0.512       20.230       26.081       12.039      409.243      680.222      144.936        0.461        0.062       89.367        8.636        0.009      346.403       24.625      861.900
06/29/2014  23:44:00      111.240     -135.568      -28.478       41.554       46.696       15.364     1726.721     2180.531      236.063        1.785        0.207      175.365        9.595        0.003      346.477       24.750      861.880
06/29/2014  23:45:00       78.654     -121.361      -13.273       71.102       73.840       53.844     5055.488     5452.363     2899.134        1.725        0.670      144.620       55.830        0.149      346.436       24.681      861.837
06/29/2014  23:46:00      147.650     -188.847      -34.414      105.369      112.075       65.056    11102.530    12560.788     4232.315        4.327        1.395      239.716       64.155        0.072      346.570       24.908      861.766
06/29/2014  23:47:00       37.058     -128.179       -2.941       57.459       64.275       51.556     3301.539     4131.305     2658.017        1.395        0.505      133.429       41.265        0.096      346.529       24.840      861.749
06/29/2014  23:48:00      -20.070      -10.944       13.690       48.317       60.551       32.774     2334.511     3666.440     1074.140        0.389        0.354       22.860       30.616        1.794      346.510       24.808      861.770
06/29/2014  23:49:00      -98.498       19.632      -20.626       32.948       32.203       20.682     1085.561     1037.035      427.753        0.653        0.128      100.436       18.322        0.033      346.715       25.163      861.810
06/29/2014  23:50:00     -131.093       -2.383       -7.052       75.731       55.140       33.230     5735.243     3040.408     1104.229        1.356        0.494      131.114       36.357        0.077      346.607       24.976      861.834
06/29/2014  23:51:00     -113.924        7.376      -11.720       61.942       57.888       24.959     3836.784     3351.064      622.954        1.049        0.391      114.163       19.716        0.030      346.768       25.253      861.851
06/29/2014  23:52:00     -158.304        9.443      -19.004       54.101       37.653       27.476     2926.869     1417.712      754.928        1.530        0.255      158.585       16.732        0.011      346.632       25.020      861.871
06/29/2014  23:53:00     -142.017       24.447      -14.009       48.762       36.419       26.652     2377.726     1326.361      710.341        1.269        0.221      144.106       23.311        0.026      346.462       24.726      861.878
06/29/2014  23:54:00     -131.204       34.205      -10.216       44.251       27.009       19.407     1958.195      729.505      376.613        1.078        0.153      135.590       17.537        0.017      346.537       24.855      861.884
06/29/2014  23:55:00     -154.132       36.348      -12.334       29.741       27.223       21.355      884.513      741.102      456.029        1.366        0.104      158.360       14.301        0.008      346.754       25.228      861.905
06/29/2014  23:56:00     -129.086       10.460       -7.090       28.440       25.116       14.180      808.852      630.834      201.059        0.923        0.082      129.510        9.937        0.006      346.534       24.852      861.912
06/29/2014  23:57:00      -76.679       49.342      -14.998       20.084       18.678       13.888      403.371      348.882      192.867        0.474        0.047       91.183       12.490        0.019      346.928       25.529      861.906
06/29/2014  23:58:00      -32.284       -0.439       -5.570       11.300       54.984        7.643      127.699     3023.252       58.415        0.214        0.160       32.287        7.993        0.061      347.441       26.411      861.896
06/29/2014  23:59:00      -27.154     -150.921       -5.881       38.960       26.044       14.617     1517.872      678.275      213.645        1.298        0.120      153.345       11.514        0.006      347.658       26.787      861.844
